Wetterdaten: Sonntag, 17.04.2016
Datum Zeit Temp. A. Feuchte A. Luftdruck Regen Wind Richtung Richtung Sonnenschein ET UV Solar Taupunkt Windchill Windben Empfang
17.04.2016 00:00 10,8 C 85 % 1005,6 hPa 0,0 l/m 10,3 km/h (2 Bft) O-NO 69 0 min 0,000 mm 0,0 UV-I 0 W/m 8,4 C 8,3 C 12,9 km/h (3 Bft) 100,00 %
17.04.2016 00:02 11,0 C 85 % 1005,4 hPa 0,0 l/m 9,1 km/h (2 Bft) O-NO 57 0 min 0,000 mm 0,0 UV-I 0 W/m 8,6 C 9,2 C 12,9 km/h (3 Bft) 100,00 %
17.04.2016 00:03 11,1 C 84 % 1005,4 hPa 0,0 l/m 7,2 km/h (2 Bft) O 80 0 min 0,000 mm 0,0 UV-I 0 W/m 8,5 C 10,5 C 11,3 km/h (2 Bft) 100,00 %
17.04.2016 00:04 11,1 C 84 % 1005,4 hPa 0,0 l/m 8,0 km/h (2 Bft) O-NO 74 0 min 0,000 mm 0,0 UV-I 0 W/m 8,5 C 10,0 C 11,3 km/h (2 Bft) 100,00 %
17.04.2016 00:05 11,2 C 84 % 1005,4 hPa 0,0 l/m 9,1 km/h (2 Bft) O-NO 63 0 min 0,000 mm 0,0 UV-I 0 W/m 8,6 C 9,4 C 12,9 km/h (3 Bft) 100,00 %
17.04.2016 00:06 11,2 C 84 % 1005,3 hPa 0,0 l/m 10,0 km/h (2 Bft) O-NO 70 0 min 0,000 mm 0,0 UV-I 0 W/m 8,6 C 8,9 C 12,9 km/h (3 Bft) 96,30 %
17.04.2016 00:07 11,2 C 84 % 1005,3 hPa 0,0 l/m 9,0 km/h (2 Bft) O 82 0 min 0,000 mm 0,0 UV-I 0 W/m 8,6 C 9,5 C 12,9 km/h (3 Bft) 100,00 %
17.04.2016 00:08 11,3 C 83 % 1005,3 hPa 0,0 l/m 9,8 km/h (2 Bft) O-NO 67 0 min 0,000 mm 0,0 UV-I 0 W/m 8,5 C 9,1 C 14,5 km/h (3 Bft) 96,30 %
17.04.2016 00:09 11,3 C 83 % 1005,3 hPa 0,0 l/m 8,8 km/h (2 Bft) O-NO 73 0 min 0,000 mm 0,0 UV-I 0 W/m 8,5 C 9,7 C 12,9 km/h (3 Bft) 100,00 %
17.04.2016 00:10 11,3 C 83 % 1005,3 hPa 0,0 l/m 8,6 km/h (2 Bft) O-NO 67 0 min 0,000 mm 0,0 UV-I 0 W/m 8,5 C 9,8 C 12,9 km/h (3 Bft) 93,33 %
17.04.2016 00:11 11,3 C 83 % 1005,4 hPa 0,0 l/m 7,7 km/h (2 Bft) O-NO 74 0 min 0,000 mm 0,0 UV-I 0 W/m 8,5 C 10,4 C 12,9 km/h (3 Bft) 100,00 %
17.04.2016 00:12 11,4 C 83 % 1005,3 hPa 0,0 l/m 4,9 km/h (1 Bft) O 82 0 min 0,000 mm 0,0 UV-I 0 W/m 8,6 C 11,4 C 8,0 km/h (2 Bft) 96,30 %
17.04.2016 00:13 11,4 C 82 % 1005,3 hPa 0,0 l/m 3,9 km/h (1 Bft) O 88 0 min 0,000 mm 0,0 UV-I 0 W/m 8,4 C 11,4 C 6,4 km/h (2 Bft) 96,15 %
17.04.2016 00:14 11,4 C 82 % 1005,3 hPa 0,0 l/m 6,3 km/h (2 Bft) O 90 0 min 0,000 mm 0,0 UV-I 0 W/m 8,4 C 11,4 C 8,0 km/h (2 Bft) 95,83 %
17.04.2016 00:15 11,3 C 82 % 1005,3 hPa 0,0 l/m 4,4 km/h (1 Bft) O-NO 64 0 min 0,000 mm 0,0 UV-I 0 W/m 8,3 C 11,3 C 4,8 km/h (1 Bft) 95,65 %
17.04.2016 00:16 11,3 C 82 % 1005,3 hPa 0,0 l/m 5,8 km/h (2 Bft) O-NO 71 0 min 0,000 mm 0,0 UV-I 0 W/m 8,3 C 11,3 C 8,0 km/h (2 Bft) 100,00 %
17.04.2016 00:17 11,3 C 82 % 1005,3 hPa 0,0 l/m 4,8 km/h (1 Bft) O-NO 67 0 min 0,000 mm 0,0 UV-I 0 W/m 8,3 C 11,3 C 6,4 km/h (2 Bft) 96,30 %
17.04.2016 00:18 11,3 C 82 % 1005,3 hPa 0,0 l/m 4,4 km/h (1 Bft) O-NO 68 0 min 0,000 mm 0,0 UV-I 0 W/m 8,3 C 11,3 C 6,4 km/h (2 Bft) 95,65 %
17.04.2016 00:19 11,3 C 82 % 1005,3 hPa 0,0 l/m 3,8 km/h (1 Bft) O-NO 60 0 min 0,000 mm 0,0 UV-I 0 W/m 8,3 C 11,3 C 6,4 km/h (2 Bft) 95,83 %
17.04.2016 00:20 11,3 C 82 % 1005,2 hPa 0,0 l/m 5,0 km/h (1 Bft) O-NO 72 0 min 0,000 mm 0,0 UV-I 0 W/m 8,3 C 11,3 C 6,4 km/h (2 Bft) 100,00 %
17.04.2016 00:21 11,3 C 82 % 1005,2 hPa 0,0 l/m 4,9 km/h (1 Bft) O-NO 69 0 min 0,000 mm 0,0 UV-I 0 W/m 8,3 C 11,3 C 8,0 km/h (2 Bft) 95,83 %
17.04.2016 00:22 11,2 C 83 % 1005,2 hPa 0,0 l/m 5,1 km/h (1 Bft) O-NO 64 0 min 0,000 mm 0,0 UV-I 0 W/m 8,4 C 11,2 C 8,0 km/h (2 Bft) 100,00 %
17.04.2016 00:23 11,2 C 83 % 1005,2 hPa 0,0 l/m 5,0 km/h (1 Bft) O-NO 64 0 min 0,000 mm 0,0 UV-I 0 W/m 8,4 C 11,2 C 6,4 km/h (2 Bft) 96,30 %
17.04.2016 00:24 11,2 C 83 % 1005,2 hPa 0,0 l/m 3,9 km/h (1 Bft) O-NO 66 0 min 0,000 mm 0,0 UV-I 0 W/m 8,4 C 11,2 C 4,8 km/h (1 Bft) 100,00 %
17.04.2016 00:25 11,1 C 83 % 1005,2 hPa 0,0 l/m 5,1 km/h (1 Bft) O-NO 76 0 min 0,000 mm 0,0 UV-I 0 W/m 8,3 C 11,1 C 6,4 km/h (2 Bft) 96,30 %
17.04.2016 00:26 11,1 C 83 % 1005,2 hPa 0,0 l/m 6,7 km/h (2 Bft) O-NO 71 0 min 0,000 mm 0,0 UV-I 0 W/m 8,3 C 10,9 C 8,0 km/h (2 Bft) 96,15 %
17.04.2016 00:27 11,1 C 83 % 1005,2 hPa 0,0 l/m 6,3 km/h (2 Bft) O 80 0 min 0,000 mm 0,0 UV-I 0 W/m 8,3 C 11,1 C 6,4 km/h (2 Bft) 100,00 %
17.04.2016 00:28 11,0 C 83 % 1005,1 hPa 0,0 l/m 6,1 km/h (2 Bft) O 86 0 min 0,000 mm 0,0 UV-I 0 W/m 8,2 C 11,0 C 9,7 km/h (2 Bft) 92,31 %
17.04.2016 00:29 11,0 C 83 % 1005,2 hPa 0,0 l/m 5,5 km/h (1 Bft) O-NO 77 0 min 0,000 mm 0,0 UV-I 0 W/m 8,2 C 11,0 C 8,0 km/h (2 Bft) 95,83 %
17.04.2016 00:30 10,9 C 83 % 1005,1 hPa 0,0 l/m 4,7 km/h (1 Bft) O 88 0 min 0,000 mm 0,0 UV-I 0 W/m 8,1 C 10,9 C 4,8 km/h (1 Bft) 95,65 %
17.04.2016 00:31 10,9 C 84 % 1005,1 hPa 0,0 l/m 5,2 km/h (1 Bft) O 90 0 min 0,000 mm 0,0 UV-I 0 W/m 8,3 C 10,9 C 9,7 km/h (2 Bft) 95,83 %
17.04.2016 00:32 10,8 C 84 % 1005,1 hPa 0,0 l/m 6,9 km/h (2 Bft) O 84 0 min 0,000 mm 0,0 UV-I 0 W/m 8,2 C 10,5 C 11,3 km/h (2 Bft) 100,00 %
17.04.2016 00:33 10,8 C 84 % 1005,0 hPa 0,0 l/m 6,5 km/h (2 Bft) O-NO 78 0 min 0,000 mm 0,0 UV-I 0 W/m 8,2 C 10,8 C 9,7 km/h (2 Bft) 96,67 %
17.04.2016 00:34 10,7 C 84 % 1005,0 hPa 0,0 l/m 6,9 km/h (2 Bft) O-NO 74 0 min 0,000 mm 0,0 UV-I 0 W/m 8,1 C 10,4 C 8,0 km/h (2 Bft) 100,00 %
17.04.2016 00:35 10,7 C 84 % 1005,0 hPa 0,0 l/m 6,4 km/h (2 Bft) O-SO 107 0 min 0,000 mm 0,0 UV-I 0 W/m 8,1 C 10,7 C 9,7 km/h (2 Bft) 93,33 %
17.04.2016 00:36 10,6 C 85 % 1005,0 hPa 0,0 l/m 7,4 km/h (2 Bft) O 86 0 min 0,000 mm 0,0 UV-I 0 W/m 8,2 C 9,9 C 12,9 km/h (3 Bft) 100,00 %
17.04.2016 00:37 10,6 C 85 % 1005,0 hPa 0,0 l/m 8,9 km/h (2 Bft) O 86 0 min 0,000 mm 0,0 UV-I 0 W/m 8,2 C 8,9 C 14,5 km/h (3 Bft) 96,15 %
17.04.2016 00:38 10,6 C 85 % 1005,0 hPa 0,0 l/m 9,8 km/h (2 Bft) O 87 0 min 0,000 mm 0,0 UV-I 0 W/m 8,2 C 8,4 C 12,9 km/h (3 Bft) 100,00 %
17.04.2016 00:39 10,6 C 85 % 1004,9 hPa 0,0 l/m 7,0 km/h (2 Bft) O 79 0 min 0,000 mm 0,0 UV-I 0 W/m 8,2 C 10,2 C 8,0 km/h (2 Bft) 91,30 %
17.04.2016 00:40 10,6 C 85 % 1004,9 hPa 0,0 l/m 8,5 km/h (2 Bft) O 86 0 min 0,000 mm 0,0 UV-I 0 W/m 8,2 C 9,2 C 12,9 km/h (3 Bft) 100,00 %
17.04.2016 00:41 10,6 C 85 % 1004,9 hPa 0,0 l/m 8,9 km/h (2 Bft) O-NO 74 0 min 0,000 mm 0,0 UV-I 0 W/m 8,2 C 8,9 C 12,9 km/h (3 Bft) 92,86 %
17.04.2016 00:42 10,5 C 85 % 1004,9 hPa 0,0 l/m 8,7 km/h (2 Bft) O-NO 74 0 min 0,000 mm 0,0 UV-I 0 W/m 8,1 C 8,9 C 11,3 km/h (2 Bft) 100,00 %
17.04.2016 00:43 10,6 C 85 % 1004,9 hPa 0,0 l/m 8,9 km/h (2 Bft) O 82 0 min 0,000 mm 0,0 UV-I 0 W/m 8,2 C 8,9 C 12,9 km/h (3 Bft) 100,00 %
17.04.2016 00:44 10,6 C 85 % 1004,9 hPa 0,0 l/m 8,6 km/h (2 Bft) O-SO 107 0 min 0,000 mm 0,0 UV-I 0 W/m 8,2 C 9,1 C 12,9 km/h (3 Bft) 100,00 %
17.04.2016 00:45 10,6 C 85 % 1004,8 hPa 0,0 l/m 8,9 km/h (2 Bft) O 97 0 min 0,000 mm 0,0 UV-I 0 W/m 8,2 C 8,9 C 12,9 km/h (3 Bft) 100,00 %
17.04.2016 00:46 10,7 C 85 % 1004,8 hPa 0,0 l/m 5,4 km/h (1 Bft) O-NO 78 0 min 0,000 mm 0,0 UV-I 0 W/m 8,3 C 10,7 C 6,4 km/h (2 Bft) 100,00 %
17.04.2016 00:47 10,7 C 85 % 1004,8 hPa 0,0 l/m 9,9 km/h (2 Bft) O 95 0 min 0,000 mm 0,0 UV-I 0 W/m 8,3 C 8,4 C 14,5 km/h (3 Bft) 100,00 %
17.04.2016 00:48 10,8 C 85 % 1004,8 hPa 0,0 l/m 10,9 km/h (2 Bft) O-NO 76 0 min 0,000 mm 0,0 UV-I 0 W/m 8,4 C 8,0 C 17,7 km/h (3 Bft) 100,00 %
17.04.2016 00:49 10,8 C 85 % 1004,7 hPa 0,0 l/m 8,1 km/h (2 Bft) O-NO 71 0 min 0,000 mm 0,0 UV-I 0 W/m 8,4 C 9,6 C 12,9 km/h (3 Bft) 93,33 %
17.04.2016 00:50 10,8 C 85 % 1004,8 hPa 0,0 l/m 8,0 km/h (2 Bft) O 95 0 min 0,000 mm 0,0 UV-I 0 W/m 8,4 C 9,7 C 12,9 km/h (3 Bft) 97,37 %
17.04.2016 00:51 10,9 C 85 % 1004,7 hPa 0,0 l/m 7,8 km/h (2 Bft) O-NO 73 0 min 0,000 mm 0,0 UV-I 0 W/m 8,5 C 9,9 C 12,9 km/h (3 Bft) 95,65 %
17.04.2016 00:52 10,8 C 84 % 1004,7 hPa 0,0 l/m 11,3 km/h (2 Bft) O-NO 66 0 min 0,000 mm 0,0 UV-I 0 W/m 8,2 C 7,8 C 16,1 km/h (3 Bft) 100,00 %
17.04.2016 00:53 10,9 C 85 % 1004,7 hPa 0,0 l/m 9,8 km/h (2 Bft) O-NO 71 0 min 0,000 mm 0,0 UV-I 0 W/m 8,5 C 8,7 C 14,5 km/h (3 Bft) 97,69 %
17.04.2016 00:54 10,9 C 85 % 1004,7 hPa 0,0 l/m 9,5 km/h (2 Bft) O 79 0 min 0,000 mm 0,0 UV-I 0 W/m 8,5 C 8,9 C 14,5 km/h (3 Bft) 100,00 %
17.04.2016 00:55 10,9 C 85 % 1004,7 hPa 0,0 l/m 12,7 km/h (3 Bft) O-NO 66 0 min 0,000 mm 0,0 UV-I 0 W/m 8,5 C 7,2 C 17,7 km/h (3 Bft) 100,00 %
17.04.2016 00:56 10,9 C 84 % 1004,7 hPa 0,0 l/m 10,1 km/h (2 Bft) O-NO 68 0 min 0,000 mm 0,0 UV-I 0 W/m 8,3 C 8,5 C 14,5 km/h (3 Bft) 100,00 %
17.04.2016 00:57 10,9 C 84 % 1004,7 hPa 0,0 l/m 9,4 km/h (2 Bft) O-NO 67 0 min 0,000 mm 0,0 UV-I 0 W/m 8,3 C 8,9 C 14,5 km/h (3 Bft) 100,00 %
17.04.2016 00:58 11,0 C 84 % 1004,7 hPa 0,0 l/m 11,3 km/h (2 Bft) O-NO 63 0 min 0,000 mm 0,0 UV-I 0 W/m 8,4 C 8,0 C 17,7 km/h (3 Bft) 96,15 %
17.04.2016 00:59 11,0 C 84 % 1004,6 hPa 0,0 l/m 12,3 km/h (3 Bft) O 83 0 min 0,000 mm 0,0 UV-I 0 W/m 8,4 C 7,5 C 16,1 km/h (3 Bft) 100,00 %
17.04.2016 01:00 11,0 C 84 % 1004,6 hPa 0,0 l/m 9,9 km/h (2 Bft) O-NO 69 0 min 0,025 mm 0,0 UV-I 0 W/m 8,4 C 8,8 C 12,9 km/h (3 Bft) 95,65 %
17.04.2016 01:01 11,0 C 84 % 1004,5 hPa 0,0 l/m 8,9 km/h (2 Bft) O 80 0 min 0,000 mm 0,0 UV-I 0 W/m 8,4 C 9,3 C 12,9 km/h (3 Bft) 100,00 %
17.04.2016 01:02 11,0 C 84 % 1004,5 hPa 0,0 l/m 8,7 km/h (2 Bft) O-NO 67 0 min 0,000 mm 0,0 UV-I 0 W/m 8,4 C 9,5 C 12,9 km/h (3 Bft) 100,00 %
17.04.2016 01:03 11,0 C 84 % 1004,5 hPa 0,0 l/m 8,3 km/h (2 Bft) O-NO 68 0 min 0,000 mm 0,0 UV-I 0 W/m 8,4 C 9,7 C 11,3 km/h (2 Bft) 100,00 %
17.04.2016 01:04 10,9 C 84 % 1004,4 hPa 0,0 l/m 8,1 km/h (2 Bft) NO 46 0 min 0,000 mm 0,0 UV-I 0 W/m 8,3 C 9,7 C 11,3 km/h (2 Bft) 100,00 %
17.04.2016 01:05 10,9 C 84 % 1004,4 hPa 0,0 l/m 8,8 km/h (2 Bft) O-NO 66 0 min 0,000 mm 0,0 UV-I 0 W/m 8,3 C 9,3 C 11,3 km/h (2 Bft) 100,00 %
17.04.2016 01:06 10,9 C 84 % 1004,3 hPa 0,0 l/m 8,2 km/h (2 Bft) O-NO 74 0 min 0,000 mm 0,0 UV-I 0 W/m 8,3 C 9,7 C 11,3 km/h (2 Bft) 96,15 %
17.04.2016 01:07 10,8 C 84 % 1004,3 hPa 0,0 l/m 9,2 km/h (2 Bft) O-NO 77 0 min 0,000 mm 0,0 UV-I 0 W/m 8,2 C 8,9 C 12,9 km/h (3 Bft) 100,00 %
17.04.2016 01:08 10,7 C 84 % 1004,3 hPa 0,0 l/m 8,8 km/h (2 Bft) O 82 0 min 0,000 mm 0,0 UV-I 0 W/m 8,1 C 9,1 C 11,3 km/h (2 Bft) 100,00 %
17.04.2016 01:09 10,7 C 85 % 1004,3 hPa 0,0 l/m 8,9 km/h (2 Bft) O-NO 65 0 min 0,000 mm 0,0 UV-I 0 W/m 8,3 C 9,0 C 11,3 km/h (2 Bft) 100,00 %
17.04.2016 01:10 10,7 C 85 % 1004,2 hPa 0,0 l/m 8,6 km/h (2 Bft) O-NO 76 0 min 0,000 mm 0,0 UV-I 0 W/m 8,3 C 9,2 C 11,3 km/h (2 Bft) 100,00 %
17.04.2016 01:11 10,7 C 85 % 1004,2 hPa 0,0 l/m 7,2 km/h (2 Bft) O-NO 66 0 min 0,000 mm 0,0 UV-I 0 W/m 8,3 C 10,1 C 9,7 km/h (2 Bft) 100,00 %
17.04.2016 01:12 10,6 C 85 % 1004,2 hPa 0,0 l/m 6,8 km/h (2 Bft) O 80 0 min 0,000 mm 0,0 UV-I 0 W/m 8,2 C 10,3 C 8,0 km/h (2 Bft) 100,00 %
17.04.2016 01:13 10,6 C 85 % 1004,2 hPa 0,0 l/m 6,6 km/h (2 Bft) O-NO 68 0 min 0,000 mm 0,0 UV-I 0 W/m 8,2 C 10,5 C 8,0 km/h (2 Bft) 100,00 %
17.04.2016 01:14 10,6 C 85 % 1004,2 hPa 0,0 l/m 6,3 km/h (2 Bft) O-NO 76 0 min 0,000 mm 0,0 UV-I 0 W/m 8,2 C 10,6 C 8,0 km/h (2 Bft) 100,00 %
17.04.2016 01:15 10,5 C 85 % 1004,2 hPa 0,0 l/m 7,9 km/h (2 Bft) O-NO 66 0 min 0,000 mm 0,0 UV-I 0 W/m 8,1 C 9,4 C 11,3 km/h (2 Bft) 100,00 %
17.04.2016 01:16 10,5 C 85 % 1004,2 hPa 0,0 l/m 6,0 km/h (2 Bft) O-NO 65 0 min 0,000 mm 0,0 UV-I 0 W/m 8,1 C 10,5 C 8,0 km/h (2 Bft) 100,00 %
17.04.2016 01:17 10,4 C 86 % 1004,1 hPa 0,0 l/m 6,4 km/h (2 Bft) O-NO 74 0 min 0,000 mm 0,0 UV-I 0 W/m 8,2 C 10,4 C 8,0 km/h (2 Bft) 100,00 %
17.04.2016 01:18 10,4 C 86 % 1004,1 hPa 0,0 l/m 6,9 km/h (2 Bft) O-NO 67 0 min 0,000 mm 0,0 UV-I 0 W/m 8,2 C 10,0 C 8,0 km/h (2 Bft) 100,00 %
17.04.2016 01:19 10,4 C 86 % 1004,1 hPa 0,0 l/m 6,4 km/h (2 Bft) O-NO 67 0 min 0,000 mm 0,0 UV-I 0 W/m 8,2 C 10,4 C 8,0 km/h (2 Bft) 96,55 %
17.04.2016 01:20 10,4 C 86 % 1004,1 hPa 0,0 l/m 7,0 km/h (2 Bft) O-NO 69 0 min 0,000 mm 0,0 UV-I 0 W/m 8,2 C 10,0 C 8,0 km/h (2 Bft) 100,00 %
17.04.2016 01:21 10,3 C 86 % 1004,1 hPa 0,0 l/m 5,6 km/h (1 Bft) O-NO 64 0 min 0,000 mm 0,0 UV-I 0 W/m 8,1 C 10,3 C 8,0 km/h (2 Bft) 100,00 %
17.04.2016 01:22 10,3 C 86 % 1004,1 hPa 0,0 l/m 6,2 km/h (2 Bft) O-NO 75 0 min 0,000 mm 0,0 UV-I 0 W/m 8,1 C 10,3 C 8,0 km/h (2 Bft) 98,31 %
17.04.2016 01:23 10,3 C 86 % 1004,0 hPa 0,0 l/m 7,0 km/h (2 Bft) O-NO 70 0 min 0,000 mm 0,0 UV-I 0 W/m 8,1 C 9,9 C 8,0 km/h (2 Bft) 100,00 %
17.04.2016 01:24 10,2 C 86 % 1004,0 hPa 0,0 l/m 7,0 km/h (2 Bft) O-NO 76 0 min 0,000 mm 0,0 UV-I 0 W/m 8,0 C 9,8 C 11,3 km/h (2 Bft) 100,00 %
17.04.2016 01:25 10,2 C 86 % 1003,9 hPa 0,0 l/m 6,9 km/h (2 Bft) O-NO 62 0 min 0,000 mm 0,0 UV-I 0 W/m 8,0 C 9,8 C 9,7 km/h (2 Bft) 100,00 %
17.04.2016 01:26 10,2 C 87 % 1003,9 hPa 0,0 l/m 6,7 km/h (2 Bft) O-NO 58 0 min 0,000 mm 0,0 UV-I 0 W/m 8,1 C 10,0 C 9,7 km/h (2 Bft) 100,00 %
17.04.2016 01:27 10,2 C 87 % 1003,9 hPa 0,0 l/m 7,6 km/h (2 Bft) O-NO 78 0 min 0,000 mm 0,0 UV-I 0 W/m 8,1 C 9,3 C 11,3 km/h (2 Bft) 100,00 %
17.04.2016 01:28 10,2 C 87 % 1003,9 hPa 0,0 l/m 7,8 km/h (2 Bft) O-NO 69 0 min 0,000 mm 0,0 UV-I 0 W/m 8,1 C 9,2 C 12,9 km/h (3 Bft) 100,00 %
17.04.2016 01:29 10,1 C 87 % 1003,9 hPa 0,0 l/m 7,7 km/h (2 Bft) O-NO 68 0 min 0,000 mm 0,0 UV-I 0 W/m 8,0 C 9,2 C 11,3 km/h (2 Bft) 100,00 %
17.04.2016 01:30 10,1 C 87 % 1003,9 hPa 0,0 l/m 7,9 km/h (2 Bft) O 83 0 min 0,000 mm 0,0 UV-I 0 W/m 8,0 C 9,0 C 11,3 km/h (2 Bft) 100,00 %
17.04.2016 01:31 10,1 C 87 % 1003,9 hPa 0,0 l/m 4,6 km/h (1 Bft) O 92 0 min 0,000 mm 0,0 UV-I 0 W/m 8,0 C 10,1 C 6,4 km/h (2 Bft) 100,00 %
17.04.2016 01:32 10,0 C 87 % 1003,8 hPa 0,0 l/m 4,8 km/h (1 Bft) O-SO 119 0 min 0,000 mm 0,0 UV-I 0 W/m 7,9 C 10,0 C 6,4 km/h (2 Bft) 100,00 %
17.04.2016 01:33 9,9 C 87 % 1003,8 hPa 0,0 l/m 6,2 km/h (2 Bft) O-SO 112 0 min 0,000 mm 0,0 UV-I 0 W/m 7,8 C 9,9 C 9,7 km/h (2 Bft) 100,00 %
17.04.2016 01:34 9,8 C 87 % 1003,8 hPa 0,0 l/m 4,8 km/h (1 Bft) O 101 0 min 0,000 mm 0,0 UV-I 0 W/m 7,7 C 9,8 C 6,4 km/h (2 Bft) 100,00 %
17.04.2016 01:35 9,7 C 87 % 1003,8 hPa 0,0 l/m 5,6 km/h (1 Bft) O-SO 104 0 min 0,000 mm 0,0 UV-I 0 W/m 7,6 C 9,7 C 6,4 km/h (2 Bft) 100,00 %
17.04.2016 01:36 9,7 C 87 % 1003,8 hPa 0,0 l/m 6,6 km/h (2 Bft) O-SO 105 0 min 0,000 mm 0,0 UV-I 0 W/m 7,6 C 9,6 C 9,7 km/h (2 Bft) 100,00 %
17.04.2016 01:37 9,6 C 88 % 1003,8 hPa 0,0 l/m 7,2 km/h (2 Bft) O-SO 106 0 min 0,000 mm 0,0 UV-I 0 W/m 7,7 C 9,0 C 12,9 km/h (3 Bft) 100,00 %
17.04.2016 01:38 9,6 C 88 % 1003,7 hPa 0,0 l/m 5,6 km/h (1 Bft) O 80 0 min 0,000 mm 0,0 UV-I 0 W/m 7,7 C 9,6 C 6,4 km/h (2 Bft) 100,00 %
17.04.2016 01:39 9,6 C 88 % 1003,7 hPa 0,0 l/m 7,2 km/h (2 Bft) O-NO 77 0 min 0,000 mm 0,0 UV-I 0 W/m 7,7 C 9,0 C 9,7 km/h (2 Bft) 100,00 %
17.04.2016 01:40 9,7 C 89 % 1003,6 hPa 0,0 l/m 8,8 km/h (2 Bft) O 79 0 min 0,000 mm 0,0 UV-I 0 W/m 8,0 C 8,0 C 14,5 km/h (3 Bft) 100,00 %
17.04.2016 01:41 9,7 C 89 % 1003,5 hPa 0,0 l/m 6,6 km/h (2 Bft) O-NO 57 0 min 0,000 mm 0,0 UV-I 0 W/m 8,0 C 9,6 C 9,7 km/h (2 Bft) 100,00 %
17.04.2016 01:42 9,8 C 88 % 1003,4 hPa 0,0 l/m 7,4 km/h (2 Bft) O-NO 59 0 min 0,000 mm 0,0 UV-I 0 W/m 7,9 C 9,1 C 9,7 km/h (2 Bft) 100,00 %
17.04.2016 01:43 9,8 C 88 % 1003,4 hPa 0,0 l/m 8,4 km/h (2 Bft) O-NO 67 0 min 0,000 mm 0,0 UV-I 0 W/m 7,9 C 8,4 C 12,9 km/h (3 Bft) 100,00 %
17.04.2016 01:44 9,8 C 88 % 1003,4 hPa 0,0 l/m 13,7 km/h (3 Bft) O 86 0 min 0,000 mm 0,0 UV-I 0 W/m 7,9 C 5,5 C 17,7 km/h (3 Bft) 100,00 %
17.04.2016 01:45 9,8 C 88 % 1003,5 hPa 0,0 l/m 12,9 km/h (3 Bft) O 81 0 min 0,000 mm 0,0 UV-I 0 W/m 7,9 C 5,8 C 14,5 km/h (3 Bft) 100,00 %
17.04.2016 01:46 9,8 C 88 % 1003,5 hPa 0,0 l/m 10,8 km/h (2 Bft) O 90 0 min 0,000 mm 0,0 UV-I 0 W/m 7,9 C 6,9 C 12,9 km/h (3 Bft) 100,00 %
17.04.2016 01:47 9,9 C 88 % 1003,5 hPa 0,0 l/m 9,0 km/h (2 Bft) O-SO 116 0 min 0,000 mm 0,0 UV-I 0 W/m 8,0 C 8,1 C 11,3 km/h (2 Bft) 100,00 %
17.04.2016 01:48 9,9 C 88 % 1003,5 hPa 0,0 l/m 7,2 km/h (2 Bft) O-NO 65 0 min 0,000 mm 0,0 UV-I 0 W/m 8,0 C 9,3 C 12,9 km/h (3 Bft) 100,00 %
17.04.2016 01:49 10,1 C 88 % 1003,4 hPa 0,0 l/m 7,3 km/h (2 Bft) O-NO 65 0 min 0,000 mm 0,0 UV-I 0 W/m 8,2 C 9,4 C 12,9 km/h (3 Bft) 100,00 %
17.04.2016 01:50 10,1 C 87 % 1003,4 hPa 0,0 l/m 9,4 km/h (2 Bft) O 90 0 min 0,000 mm 0,0 UV-I 0 W/m 8,0 C 8,1 C 11,3 km/h (2 Bft) 98,75 %
17.04.2016 01:51 10,1 C 87 % 1003,4 hPa 0,0 l/m 9,8 km/h (2 Bft) O 84 0 min 0,000 mm 0,0 UV-I 0 W/m 8,0 C 7,8 C 12,9 km/h (3 Bft) 100,00 %
17.04.2016 01:52 10,2 C 87 % 1003,4 hPa 0,0 l/m 6,9 km/h (2 Bft) O 84 0 min 0,000 mm 0,0 UV-I 0 W/m 8,1 C 9,8 C 11,3 km/h (2 Bft) 100,00 %
17.04.2016 01:53 10,2 C 87 % 1003,4 hPa 0,0 l/m 4,7 km/h (1 Bft) O 94 0 min 0,000 mm 0,0 UV-I 0 W/m 8,1 C 10,2 C 6,4 km/h (2 Bft) 100,00 %
17.04.2016 01:54 10,2 C 87 % 1003,4 hPa 0,0 l/m 6,1 km/h (2 Bft) O 80 0 min 0,000 mm 0,0 UV-I 0 W/m 8,1 C 10,2 C 11,3 km/h (2 Bft) 100,00 %
17.04.2016 01:55 10,2 C 87 % 1003,4 hPa 0,0 l/m 5,4 km/h (1 Bft) O 96 0 min 0,000 mm 0,0 UV-I 0 W/m 8,1 C 10,2 C 9,7 km/h (2 Bft) 95,65 %
17.04.2016 01:56 10,2 C 87 % 1003,4 hPa 0,0 l/m 6,9 km/h (2 Bft) SO 127 0 min 0,000 mm 0,0 UV-I 0 W/m 8,1 C 9,8 C 9,7 km/h (2 Bft) 100,00 %
17.04.2016 01:57 10,2 C 87 % 1003,4 hPa 0,0 l/m 5,4 km/h (1 Bft) O-SO 105 0 min 0,000 mm 0,0 UV-I 0 W/m 8,1 C 10,2 C 6,4 km/h (2 Bft) 100,00 %
17.04.2016 01:58 10,1 C 87 % 1003,3 hPa 0,0 l/m 4,7 km/h (1 Bft) O-NO 68 0 min 0,000 mm 0,0 UV-I 0 W/m 8,0 C 10,1 C 6,4 km/h (2 Bft) 100,00 %
17.04.2016 01:59 10,1 C 87 % 1003,3 hPa 0,0 l/m 4,8 km/h (1 Bft) O-SO 113 0 min 0,000 mm 0,0 UV-I 0 W/m 8,0 C 10,1 C 8,0 km/h (2 Bft) 96,55 %
17.04.2016 02:00 10,1 C 87 % 1003,2 hPa 0,0 l/m 7,6 km/h (2 Bft) O 94 0 min 0,026 mm 0,0 UV-I 0 W/m 8,0 C 9,2 C 12,9 km/h (3 Bft) 100,00 %
17.04.2016 02:02 10,0 C 87 % 1003,2 hPa 0,0 l/m 7,5 km/h (2 Bft) O-NO 74 0 min 0,000 mm 0,0 UV-I 0 W/m 7,9 C 9,2 C 12,9 km/h (3 Bft) 98,11 %
17.04.2016 02:03 10,0 C 87 % 1003,2 hPa 0,0 l/m 6,1 km/h (2 Bft) O-NO 57 0 min 0,000 mm 0,0 UV-I 0 W/m 7,9 C 10,0 C 9,7 km/h (2 Bft) 95,65 %
17.04.2016 02:04 10,0 C 87 % 1003,1 hPa 0,0 l/m 8,7 km/h (2 Bft) O-NO 61 0 min 0,000 mm 0,0 UV-I 0 W/m 7,9 C 8,4 C 12,9 km/h (3 Bft) 100,00 %
17.04.2016 02:05 10,0 C 87 % 1003,1 hPa 0,0 l/m 7,6 km/h (2 Bft) O-NO 76 0 min 0,000 mm 0,0 UV-I 0 W/m 7,9 C 9,1 C 11,3 km/h (2 Bft) 100,00 %
17.04.2016 02:06 10,0 C 87 % 1003,1 hPa 0,0 l/m 5,7 km/h (1 Bft) O-NO 63 0 min 0,000 mm 0,0 UV-I 0 W/m 7,9 C 10,0 C 8,0 km/h (2 Bft) 100,00 %
17.04.2016 02:07 10,0 C 87 % 1003,1 hPa 0,0 l/m 9,0 km/h (2 Bft) O-NO 71 0 min 0,000 mm 0,0 UV-I 0 W/m 7,9 C 8,2 C 12,9 km/h (3 Bft) 96,15 %
17.04.2016 02:08 10,0 C 87 % 1003,1 hPa 0,0 l/m 6,2 km/h (2 Bft) O-NO 69 0 min 0,000 mm 0,0 UV-I 0 W/m 7,9 C 10,0 C 6,4 km/h (2 Bft) 100,00 %
17.04.2016 02:09 9,9 C 87 % 1003,1 hPa 0,0 l/m 6,4 km/h (2 Bft) O-NO 58 0 min 0,000 mm 0,0 UV-I 0 W/m 7,8 C 9,9 C 8,0 km/h (2 Bft) 100,00 %
17.04.2016 02:10 9,9 C 87 % 1003,1 hPa 0,0 l/m 10,3 km/h (2 Bft) O 84 0 min 0,000 mm 0,0 UV-I 0 W/m 7,8 C 7,3 C 16,1 km/h (3 Bft) 95,83 %
17.04.2016 02:11 9,9 C 87 % 1003,1 hPa 0,0 l/m 8,0 km/h (2 Bft) O-NO 74 0 min 0,000 mm 0,0 UV-I 0 W/m 7,8 C 8,7 C 12,9 km/h (3 Bft) 95,65 %
17.04.2016 02:12 9,9 C 87 % 1003,1 hPa 0,0 l/m 6,4 km/h (2 Bft) O-SO 105 0 min 0,000 mm 0,0 UV-I 0 W/m 7,8 C 9,9 C 11,3 km/h (2 Bft) 91,67 %
17.04.2016 02:13 9,8 C 87 % 1002,9 hPa 0,0 l/m 3,7 km/h (1 Bft) O 93 0 min 0,000 mm 0,0 UV-I 0 W/m 7,7 C 9,8 C 4,8 km/h (1 Bft) 100,00 %
17.04.2016 02:14 9,8 C 87 % 1003,0 hPa 0,0 l/m 6,5 km/h (2 Bft) O-NO 66 0 min 0,000 mm 0,0 UV-I 0 W/m 7,7 C 9,8 C 11,3 km/h (2 Bft) 96,15 %
17.04.2016 02:15 9,8 C 88 % 1002,9 hPa 0,0 l/m 8,7 km/h (2 Bft) O-NO 73 0 min 0,000 mm 0,0 UV-I 0 W/m 7,9 C 8,2 C 12,9 km/h (3 Bft) 96,55 %
17.04.2016 02:16 9,8 C 88 % 1002,8 hPa 0,0 l/m 8,0 km/h (2 Bft) O 86 0 min 0,000 mm 0,0 UV-I 0 W/m 7,9 C 8,6 C 12,9 km/h (3 Bft) 100,00 %
17.04.2016 02:17 9,8 C 88 % 1002,9 hPa 0,0 l/m 10,7 km/h (2 Bft) O 90 0 min 0,000 mm 0,0 UV-I 0 W/m 7,9 C 7,0 C 14,5 km/h (3 Bft) 100,00 %
17.04.2016 02:18 9,8 C 88 % 1002,9 hPa 0,0 l/m 8,5 km/h (2 Bft) O 87 0 min 0,000 mm 0,0 UV-I 0 W/m 7,9 C 8,3 C 11,3 km/h (2 Bft) 97,56 %
17.04.2016 02:19 9,8 C 88 % 1002,9 hPa 0,0 l/m 9,1 km/h (2 Bft) O 89 0 min 0,000 mm 0,0 UV-I 0 W/m 7,9 C 7,9 C 12,9 km/h (3 Bft) 91,67 %
17.04.2016 02:20 9,7 C 88 % 1002,9 hPa 0,0 l/m 7,6 km/h (2 Bft) O-NO 71 0 min 0,000 mm 0,0 UV-I 0 W/m 7,8 C 8,8 C 17,7 km/h (3 Bft) 100,00 %
17.04.2016 02:21 9,7 C 88 % 1002,8 hPa 0,0 l/m 13,2 km/h (3 Bft) O 82 0 min 0,000 mm 0,0 UV-I 0 W/m 7,8 C 5,6 C 17,7 km/h (3 Bft) 93,33 %
17.04.2016 02:22 9,7 C 88 % 1002,8 hPa 0,0 l/m 12,3 km/h (3 Bft) O-NO 74 0 min 0,000 mm 0,0 UV-I 0 W/m 7,8 C 6,0 C 14,5 km/h (3 Bft) 100,00 %
17.04.2016 02:23 9,7 C 88 % 1002,9 hPa 0,0 l/m 9,0 km/h (2 Bft) O 79 0 min 0,000 mm 0,0 UV-I 0 W/m 7,8 C 7,9 C 12,9 km/h (3 Bft) 96,97 %
17.04.2016 02:24 9,7 C 88 % 1002,9 hPa 0,0 l/m 5,8 km/h (2 Bft) O 79 0 min 0,000 mm 0,0 UV-I 0 W/m 7,8 C 9,7 C 6,4 km/h (2 Bft) 96,88 %
17.04.2016 02:25 9,7 C 88 % 1002,9 hPa 0,0 l/m 5,1 km/h (1 Bft) NO 55 0 min 0,000 mm 0,0 UV-I 0 W/m 7,8 C 9,7 C 8,0 km/h (2 Bft) 100,00 %
17.04.2016 02:26 9,7 C 88 % 1002,8 hPa 0,0 l/m 7,3 km/h (2 Bft) NO 55 0 min 0,000 mm 0,0 UV-I 0 W/m 7,8 C 9,0 C 9,7 km/h (2 Bft) 100,00 %
17.04.2016 02:27 9,7 C 88 % 1002,8 hPa 0,0 l/m 7,2 km/h (2 Bft) O-NO 71 0 min 0,000 mm 0,0 UV-I 0 W/m 7,8 C 9,1 C 12,9 km/h (3 Bft) 96,30 %
17.04.2016 02:28 9,7 C 88 % 1002,8 hPa 0,0 l/m 9,7 km/h (2 Bft) NO 53 0 min 0,000 mm 0,0 UV-I 0 W/m 7,8 C 7,4 C 14,5 km/h (3 Bft) 96,15 %
17.04.2016 02:29 9,7 C 88 % 1002,8 hPa 0,0 l/m 7,0 km/h (2 Bft) O-NO 59 0 min 0,000 mm 0,0 UV-I 0 W/m 7,8 C 9,3 C 8,0 km/h (2 Bft) 100,00 %
17.04.2016 02:30 9,6 C 88 % 1002,8 hPa 0,0 l/m 6,3 km/h (2 Bft) O-NO 63 0 min 0,000 mm 0,0 UV-I 0 W/m 7,7 C 9,6 C 9,7 km/h (2 Bft) 95,65 %
17.04.2016 02:31 9,6 C 88 % 1002,8 hPa 0,0 l/m 8,4 km/h (2 Bft) O 79 0 min 0,000 mm 0,0 UV-I 0 W/m 7,7 C 8,2 C 9,7 km/h (2 Bft) 100,00 %
17.04.2016 02:32 9,6 C 88 % 1002,8 hPa 0,0 l/m 7,4 km/h (2 Bft) O-NO 75 0 min 0,000 mm 0,0 UV-I 0 W/m 7,7 C 8,9 C 11,3 km/h (2 Bft) 91,67 %
17.04.2016 02:33 9,6 C 88 % 1002,8 hPa 0,0 l/m 7,7 km/h (2 Bft) O-NO 61 0 min 0,000 mm 0,0 UV-I 0 W/m 7,7 C 8,6 C 12,9 km/h (3 Bft) 100,00 %
17.04.2016 02:34 9,5 C 88 % 1002,8 hPa 0,0 l/m 6,3 km/h (2 Bft) O-NO 69 0 min 0,000 mm 0,0 UV-I 0 W/m 7,6 C 9,5 C 8,0 km/h (2 Bft) 96,15 %
17.04.2016 02:35 9,5 C 88 % 1002,7 hPa 0,0 l/m 8,5 km/h (2 Bft) O-NO 71 0 min 0,000 mm 0,0 UV-I 0 W/m 7,6 C 8,0 C 11,3 km/h (2 Bft) 100,00 %
17.04.2016 02:36 9,4 C 88 % 1002,7 hPa 0,0 l/m 8,7 km/h (2 Bft) O-NO 61 0 min 0,000 mm 0,0 UV-I 0 W/m 7,5 C 7,7 C 12,9 km/h (3 Bft) 96,30 %
17.04.2016 02:37 9,4 C 89 % 1002,6 hPa 0,0 l/m 7,2 km/h (2 Bft) O-NO 62 0 min 0,000 mm 0,0 UV-I 0 W/m 7,7 C 8,8 C 9,7 km/h (2 Bft) 96,15 %
17.04.2016 02:38 9,4 C 89 % 1002,6 hPa 0,0 l/m 6,3 km/h (2 Bft) O 91 0 min 0,000 mm 0,0 UV-I 0 W/m 7,7 C 9,4 C 8,0 km/h (2 Bft) 100,00 %
17.04.2016 02:39 9,4 C 89 % 1002,6 hPa 0,0 l/m 7,4 km/h (2 Bft) O-NO 61 0 min 0,000 mm 0,0 UV-I 0 W/m 7,7 C 8,7 C 11,3 km/h (2 Bft) 96,15 %
17.04.2016 02:40 9,4 C 89 % 1002,6 hPa 0,0 l/m 7,1 km/h (2 Bft) O-NO 66 0 min 0,000 mm 0,0 UV-I 0 W/m 7,7 C 8,9 C 8,0 km/h (2 Bft) 100,00 %
17.04.2016 02:41 9,3 C 89 % 1002,6 hPa 0,0 l/m 6,9 km/h (2 Bft) O-NO 65 0 min 0,000 mm 0,0 UV-I 0 W/m 7,6 C 8,9 C 8,0 km/h (2 Bft) 95,65 %
17.04.2016 02:42 9,3 C 89 % 1002,6 hPa 0,0 l/m 5,5 km/h (1 Bft) O-NO 58 0 min 0,000 mm 0,0 UV-I 0 W/m 7,6 C 9,3 C 8,0 km/h (2 Bft) 96,30 %
17.04.2016 02:43 9,3 C 89 % 1002,4 hPa 0,0 l/m 6,5 km/h (2 Bft) O-NO 58 0 min 0,000 mm 0,0 UV-I 0 W/m 7,6 C 9,3 C 8,0 km/h (2 Bft) 100,00 %
17.04.2016 02:44 9,2 C 89 % 1002,4 hPa 0,0 l/m 7,7 km/h (2 Bft) NO 49 0 min 0,000 mm 0,0 UV-I 0 W/m 7,5 C 8,2 C 9,7 km/h (2 Bft) 95,83 %
17.04.2016 02:45 9,1 C 88 % 1002,4 hPa 0,0 l/m 6,3 km/h (2 Bft) O-NO 58 0 min 0,000 mm 0,0 UV-I 0 W/m 7,2 C 9,1 C 8,0 km/h (2 Bft) 100,00 %
17.04.2016 02:46 8,9 C 88 % 1002,4 hPa 0,0 l/m 5,9 km/h (2 Bft) NO 53 0 min 0,000 mm 0,0 UV-I 0 W/m 7,0 C 8,9 C 8,0 km/h (2 Bft) 96,30 %
17.04.2016 02:47 8,8 C 89 % 1002,4 hPa 0,0 l/m 6,4 km/h (2 Bft) O-NO 61 0 min 0,000 mm 0,0 UV-I 0 W/m 7,1 C 8,8 C 8,0 km/h (2 Bft) 100,00 %
17.04.2016 02:48 8,8 C 90 % 1002,4 hPa 0,0 l/m 6,7 km/h (2 Bft) NO 51 0 min 0,000 mm 0,0 UV-I 0 W/m 7,3 C 8,6 C 8,0 km/h (2 Bft) 91,67 %
17.04.2016 02:49 8,8 C 90 % 1002,4 hPa 0,0 l/m 7,4 km/h (2 Bft) NO 40 0 min 0,000 mm 0,0 UV-I 0 W/m 7,3 C 8,0 C 9,7 km/h (2 Bft) 100,00 %
17.04.2016 02:50 8,7 C 90 % 1002,3 hPa 0,0 l/m 7,5 km/h (2 Bft) NO 47 0 min 0,000 mm 0,0 UV-I 0 W/m 7,2 C 7,9 C 8,0 km/h (2 Bft) 100,00 %
17.04.2016 02:51 8,7 C 90 % 1002,3 hPa 0,0 l/m 7,2 km/h (2 Bft) NO 54 0 min 0,000 mm 0,0 UV-I 0 W/m 7,2 C 8,1 C 9,7 km/h (2 Bft) 98,49 %
17.04.2016 02:52 8,6 C 90 % 1002,3 hPa 0,0 l/m 7,5 km/h (2 Bft) O-NO 57 0 min 0,000 mm 0,0 UV-I 0 W/m 7,1 C 7,8 C 11,3 km/h (2 Bft) 100,00 %
17.04.2016 02:53 8,6 C 91 % 1002,3 hPa 0,0 l/m 10,7 km/h (2 Bft) NO 51 0 min 0,000 mm 0,0 UV-I 0 W/m 7,2 C 5,6 C 14,5 km/h (3 Bft) 100,00 %
17.04.2016 02:54 8,6 C 91 % 1002,3 hPa 0,0 l/m 9,5 km/h (2 Bft) NO 56 0 min 0,000 mm 0,0 UV-I 0 W/m 7,2 C 6,4 C 12,9 km/h (3 Bft) 100,00 %
17.04.2016 02:55 8,6 C 91 % 1002,2 hPa 0,0 l/m 7,6 km/h (2 Bft) NO 44 0 min 0,000 mm 0,0 UV-I 0 W/m 7,2 C 7,7 C 9,7 km/h (2 Bft) 95,83 %
17.04.2016 02:56 8,7 C 91 % 1002,2 hPa 0,0 l/m 6,4 km/h (2 Bft) O-NO 60 0 min 0,000 mm 0,0 UV-I 0 W/m 7,3 C 8,7 C 9,7 km/h (2 Bft) 100,00 %
17.04.2016 02:57 8,7 C 91 % 1002,2 hPa 0,0 l/m 7,2 km/h (2 Bft) O-NO 59 0 min 0,000 mm 0,0 UV-I 0 W/m 7,3 C 8,1 C 8,0 km/h (2 Bft) 100,00 %
17.04.2016 02:58 8,7 C 91 % 1002,2 hPa 0,0 l/m 7,1 km/h (2 Bft) O-NO 63 0 min 0,000 mm 0,0 UV-I 0 W/m 7,3 C 8,2 C 11,3 km/h (2 Bft) 100,00 %
17.04.2016 02:59 8,6 C 90 % 1002,2 hPa 0,0 l/m 7,2 km/h (2 Bft) O-NO 68 0 min 0,000 mm 0,0 UV-I 0 W/m 7,1 C 8,0 C 9,7 km/h (2 Bft) 100,00 %
17.04.2016 03:00 8,6 C 90 % 1002,2 hPa 0,0 l/m 6,8 km/h (2 Bft) NO 56 0 min 0,000 mm 0,0 UV-I 0 W/m 7,1 C 8,3 C 9,7 km/h (2 Bft) 92,31 %
17.04.2016 03:01 8,6 C 90 % 1002,2 hPa 0,0 l/m 6,9 km/h (2 Bft) O-NO 69 0 min 0,000 mm 0,0 UV-I 0 W/m 7,1 C 8,2 C 9,7 km/h (2 Bft) 100,00 %
17.04.2016 03:02 8,4 C 90 % 1002,1 hPa 0,0 l/m 4,9 km/h (1 Bft) O-NO 59 0 min 0,000 mm 0,0 UV-I 0 W/m 6,9 C 8,4 C 6,4 km/h (2 Bft) 100,00 %
17.04.2016 03:03 8,4 C 91 % 1002,1 hPa 0,0 l/m 6,9 km/h (2 Bft) NO 53 0 min 0,000 mm 0,0 UV-I 0 W/m 7,0 C 8,0 C 9,7 km/h (2 Bft) 100,00 %
17.04.2016 03:04 8,4 C 91 % 1002,1 hPa 0,0 l/m 6,1 km/h (2 Bft) O-NO 62 0 min 0,000 mm 0,0 UV-I 0 W/m 7,0 C 8,4 C 8,0 km/h (2 Bft) 100,00 %
17.04.2016 03:05 8,4 C 91 % 1002,1 hPa 0,0 l/m 6,9 km/h (2 Bft) O-NO 63 0 min 0,000 mm 0,0 UV-I 0 W/m 7,0 C 8,0 C 8,0 km/h (2 Bft) 100,00 %
17.04.2016 03:06 8,3 C 91 % 1002,1 hPa 0,0 l/m 6,8 km/h (2 Bft) O-NO 77 0 min 0,000 mm 0,0 UV-I 0 W/m 6,9 C 8,0 C 8,0 km/h (2 Bft) 100,00 %
17.04.2016 03:07 8,3 C 91 % 1002,1 hPa 0,0 l/m 10,2 km/h (2 Bft) O-NO 71 0 min 0,000 mm 0,0 UV-I 0 W/m 6,9 C 5,6 C 14,5 km/h (3 Bft) 100,00 %
17.04.2016 03:08 8,3 C 91 % 1002,1 hPa 0,0 l/m 9,7 km/h (2 Bft) NO 44 0 min 0,000 mm 0,0 UV-I 0 W/m 6,9 C 5,9 C 14,5 km/h (3 Bft) 92,31 %
17.04.2016 03:09 8,4 C 92 % 1002,0 hPa 0,0 l/m 5,9 km/h (2 Bft) O-NO 67 0 min 0,000 mm 0,0 UV-I 0 W/m 7,2 C 8,4 C 8,0 km/h (2 Bft) 100,00 %
17.04.2016 03:10 8,4 C 92 % 1002,0 hPa 0,0 l/m 4,8 km/h (1 Bft) O-NO 61 0 min 0,000 mm 0,0 UV-I 0 W/m 7,2 C 8,4 C 6,4 km/h (2 Bft) 100,00 %
17.04.2016 03:11 8,4 C 92 % 1002,0 hPa 0,0 l/m 7,0 km/h (2 Bft) O-NO 78 0 min 0,000 mm 0,0 UV-I 0 W/m 7,2 C 7,9 C 9,7 km/h (2 Bft) 96,30 %
17.04.2016 03:12 8,4 C 92 % 1002,0 hPa 0,0 l/m 9,2 km/h (2 Bft) O-NO 75 0 min 0,000 mm 0,0 UV-I 0 W/m 7,2 C 6,3 C 14,5 km/h (3 Bft) 100,00 %
17.04.2016 03:13 8,4 C 92 % 1002,0 hPa 0,0 l/m 8,9 km/h (2 Bft) NO 40 0 min 0,000 mm 0,0 UV-I 0 W/m 7,2 C 6,5 C 11,3 km/h (2 Bft) 100,00 %
17.04.2016 03:14 8,4 C 91 % 1002,0 hPa 0,0 l/m 7,3 km/h (2 Bft) NO 47 0 min 0,000 mm 0,0 UV-I 0 W/m 7,0 C 7,7 C 9,7 km/h (2 Bft) 96,15 %
17.04.2016 03:15 8,3 C 91 % 1002,0 hPa 0,0 l/m 4,1 km/h (1 Bft) O-NO 65 0 min 0,000 mm 0,0 UV-I 0 W/m 6,9 C 8,3 C 6,4 km/h (2 Bft) 100,00 %
17.04.2016 03:16 8,3 C 91 % 1002,1 hPa 0,0 l/m 7,7 km/h (2 Bft) O-NO 62 0 min 0,000 mm 0,0 UV-I 0 W/m 6,9 C 7,3 C 12,9 km/h (3 Bft) 100,00 %
17.04.2016 03:17 8,3 C 91 % 1002,1 hPa 0,0 l/m 6,4 km/h (2 Bft) O-NO 78 0 min 0,000 mm 0,0 UV-I 0 W/m 6,9 C 8,3 C 8,0 km/h (2 Bft) 100,00 %
17.04.2016 03:18 8,3 C 92 % 1002,0 hPa 0,0 l/m 8,2 km/h (2 Bft) NO 40 0 min 0,000 mm 0,0 UV-I 0 W/m 7,1 C 6,9 C 9,7 km/h (2 Bft) 93,33 %
17.04.2016 03:19 8,2 C 92 % 1001,9 hPa 0,0 l/m 9,0 km/h (2 Bft) NO 51 0 min 0,000 mm 0,0 UV-I 0 W/m 7,0 C 6,3 C 11,3 km/h (2 Bft) 100,00 %
17.04.2016 03:20 8,2 C 91 % 1001,9 hPa 0,0 l/m 8,1 km/h (2 Bft) NO 53 0 min 0,000 mm 0,0 UV-I 0 W/m 6,8 C 6,9 C 9,7 km/h (2 Bft) 100,00 %
17.04.2016 03:21 8,1 C 91 % 1001,9 hPa 0,0 l/m 7,4 km/h (2 Bft) O-NO 76 0 min 0,000 mm 0,0 UV-I 0 W/m 6,7 C 7,3 C 11,3 km/h (2 Bft) 100,00 %
17.04.2016 03:22 8,1 C 92 % 1001,9 hPa 0,0 l/m 6,8 km/h (2 Bft) O 80 0 min 0,000 mm 0,0 UV-I 0 W/m 6,9 C 7,8 C 9,7 km/h (2 Bft) 100,00 %
17.04.2016 03:23 8,1 C 92 % 1001,9 hPa 0,0 l/m 8,2 km/h (2 Bft) O 82 0 min 0,000 mm 0,0 UV-I 0 W/m 6,9 C 6,7 C 14,5 km/h (3 Bft) 100,00 %
17.04.2016 03:24 8,1 C 92 % 1001,9 hPa 0,0 l/m 7,4 km/h (2 Bft) O-NO 65 0 min 0,000 mm 0,0 UV-I 0 W/m 6,9 C 7,3 C 14,5 km/h (3 Bft) 100,00 %
17.04.2016 03:25 8,2 C 92 % 1001,9 hPa 0,0 l/m 8,6 km/h (2 Bft) O-NO 60 0 min 0,000 mm 0,0 UV-I 0 W/m 7,0 C 6,5 C 11,3 km/h (2 Bft) 100,00 %
17.04.2016 03:26 8,2 C 92 % 1001,9 hPa 0,0 l/m 8,8 km/h (2 Bft) O-NO 65 0 min 0,000 mm 0,0 UV-I 0 W/m 7,0 C 6,4 C 11,3 km/h (2 Bft) 100,00 %
17.04.2016 03:27 8,2 C 93 % 1001,9 hPa 0,0 l/m 10,1 km/h (2 Bft) O-NO 67 0 min 0,000 mm 0,0 UV-I 0 W/m 7,1 C 5,5 C 14,5 km/h (3 Bft) 95,65 %
17.04.2016 03:28 8,2 C 93 % 1001,8 hPa 0,0 l/m 10,0 km/h (2 Bft) NO 56 0 min 0,000 mm 0,0 UV-I 0 W/m 7,1 C 5,6 C 14,5 km/h (3 Bft) 100,00 %
17.04.2016 03:29 8,2 C 93 % 1001,8 hPa 0,0 l/m 8,8 km/h (2 Bft) NO 49 0 min 0,000 mm 0,0 UV-I 0 W/m 7,1 C 6,4 C 11,3 km/h (2 Bft) 100,00 %
17.04.2016 03:30 8,2 C 93 % 1001,8 hPa 0,0 l/m 8,4 km/h (2 Bft) O-NO 57 0 min 0,000 mm 0,0 UV-I 0 W/m 7,1 C 6,7 C 11,3 km/h (2 Bft) 100,00 %
17.04.2016 03:31 8,2 C 92 % 1001,7 hPa 0,0 l/m 11,5 km/h (2 Bft) O-NO 58 0 min 0,000 mm 0,0 UV-I 0 W/m 7,0 C 4,7 C 16,1 km/h (3 Bft) 100,00 %
17.04.2016 03:32 8,2 C 92 % 1001,8 hPa 0,0 l/m 9,9 km/h (2 Bft) O-NO 75 0 min 0,000 mm 0,0 UV-I 0 W/m 7,0 C 5,7 C 14,5 km/h (3 Bft) 100,00 %
17.04.2016 03:33 8,3 C 92 % 1001,8 hPa 0,0 l/m 8,0 km/h (2 Bft) O 80 0 min 0,000 mm 0,0 UV-I 0 W/m 7,1 C 7,1 C 12,9 km/h (3 Bft) 96,15 %
17.04.2016 03:34 8,3 C 92 % 1001,8 hPa 0,0 l/m 8,0 km/h (2 Bft) O-NO 69 0 min 0,000 mm 0,0 UV-I 0 W/m 7,1 C 7,1 C 12,9 km/h (3 Bft) 100,00 %
17.04.2016 03:35 8,3 C 92 % 1001,8 hPa 0,0 l/m 7,5 km/h (2 Bft) O-NO 63 0 min 0,000 mm 0,0 UV-I 0 W/m 7,1 C 7,4 C 9,7 km/h (2 Bft) 100,00 %
17.04.2016 03:36 8,3 C 92 % 1001,8 hPa 0,0 l/m 7,9 km/h (2 Bft) O-NO 72 0 min 0,000 mm 0,0 UV-I 0 W/m 7,1 C 7,1 C 11,3 km/h (2 Bft) 100,00 %
17.04.2016 03:37 8,3 C 92 % 1001,7 hPa 0,0 l/m 8,3 km/h (2 Bft) O-NO 71 0 min 0,000 mm 0,0 UV-I 0 W/m 7,1 C 6,9 C 11,3 km/h (2 Bft) 96,30 %
17.04.2016 03:38 8,3 C 92 % 1001,6 hPa 0,0 l/m 6,5 km/h (2 Bft) O-NO 74 0 min 0,000 mm 0,0 UV-I 0 W/m 7,1 C 8,2 C 8,0 km/h (2 Bft) 100,00 %
17.04.2016 03:39 8,3 C 92 % 1001,6 hPa 0,0 l/m 7,7 km/h (2 Bft) NO 44 0 min 0,000 mm 0,0 UV-I 0 W/m 7,1 C 7,3 C 9,7 km/h (2 Bft) 100,00 %
17.04.2016 03:40 8,2 C 92 % 1001,6 hPa 0,0 l/m 6,8 km/h (2 Bft) O-NO 76 0 min 0,000 mm 0,0 UV-I 0 W/m 7,0 C 7,9 C 8,0 km/h (2 Bft) 97,37 %
17.04.2016 03:41 8,2 C 92 % 1001,6 hPa 0,0 l/m 5,9 km/h (2 Bft) O 84 0 min 0,000 mm 0,0 UV-I 0 W/m 7,0 C 8,2 C 9,7 km/h (2 Bft) 100,00 %
17.04.2016 03:42 8,2 C 92 % 1001,6 hPa 0,0 l/m 9,7 km/h (2 Bft) O-NO 61 0 min 0,000 mm 0,0 UV-I 0 W/m 7,0 C 5,8 C 16,1 km/h (3 Bft) 100,00 %
17.04.2016 03:43 8,2 C 92 % 1001,6 hPa 0,0 l/m 7,1 km/h (2 Bft) O-NO 69 0 min 0,000 mm 0,0 UV-I 0 W/m 7,0 C 7,7 C 9,7 km/h (2 Bft) 96,30 %
17.04.2016 03:44 8,2 C 93 % 1001,6 hPa 0,0 l/m 5,5 km/h (1 Bft) NO 53 0 min 0,000 mm 0,0 UV-I 0 W/m 7,1 C 8,2 C 9,7 km/h (2 Bft) 100,00 %
17.04.2016 03:45 8,2 C 93 % 1001,6 hPa 0,0 l/m 6,8 km/h (2 Bft) O 79 0 min 0,000 mm 0,0 UV-I 0 W/m 7,1 C 7,9 C 11,3 km/h (2 Bft) 100,00 %
17.04.2016 03:46 8,2 C 93 % 1001,6 hPa 0,0 l/m 6,5 km/h (2 Bft) O 90 0 min 0,000 mm 0,0 UV-I 0 W/m 7,1 C 8,1 C 8,0 km/h (2 Bft) 100,00 %
17.04.2016 03:47 8,2 C 93 % 1001,6 hPa 0,0 l/m 9,4 km/h (2 Bft) O-NO 69 0 min 0,000 mm 0,0 UV-I 0 W/m 7,1 C 6,0 C 14,5 km/h (3 Bft) 96,30 %
17.04.2016 03:48 8,2 C 93 % 1001,6 hPa 0,0 l/m 6,3 km/h (2 Bft) O 101 0 min 0,000 mm 0,0 UV-I 0 W/m 7,1 C 8,2 C 9,7 km/h (2 Bft) 100,00 %
17.04.2016 03:49 8,2 C 93 % 1001,6 hPa 0,0 l/m 8,7 km/h (2 Bft) O-NO 78 0 min 0,000 mm 0,0 UV-I 0 W/m 7,1 C 6,5 C 14,5 km/h (3 Bft) 100,00 %
17.04.2016 03:50 8,2 C 93 % 1001,6 hPa 0,0 l/m 9,6 km/h (2 Bft) O-NO 66 0 min 0,000 mm 0,0 UV-I 0 W/m 7,1 C 5,9 C 16,1 km/h (3 Bft) 100,00 %
17.04.2016 03:51 8,2 C 93 % 1001,6 hPa 0,0 l/m 6,1 km/h (2 Bft) O-NO 63 0 min 0,000 mm 0,0 UV-I 0 W/m 7,1 C 8,2 C 9,7 km/h (2 Bft) 96,67 %
17.04.2016 03:52 8,3 C 93 % 1001,6 hPa 0,0 l/m 5,2 km/h (1 Bft) O 85 0 min 0,000 mm 0,0 UV-I 0 W/m 7,2 C 8,3 C 9,7 km/h (2 Bft) 100,00 %
17.04.2016 03:53 8,3 C 93 % 1001,6 hPa 0,0 l/m 4,8 km/h (1 Bft) NO 50 0 min 0,000 mm 0,0 UV-I 0 W/m 7,2 C 8,3 C 6,4 km/h (2 Bft) 100,00 %
17.04.2016 03:54 8,3 C 93 % 1001,6 hPa 0,0 l/m 6,9 km/h (2 Bft) O-NO 67 0 min 0,000 mm 0,0 UV-I 0 W/m 7,2 C 7,9 C 9,7 km/h (2 Bft) 100,00 %
17.04.2016 03:55 8,3 C 93 % 1001,5 hPa 0,0 l/m 4,1 km/h (1 Bft) NO 53 0 min 0,000 mm 0,0 UV-I 0 W/m 7,2 C 8,3 C 8,0 km/h (2 Bft) 100,00 %
17.04.2016 03:56 8,2 C 92 % 1001,5 hPa 0,0 l/m 3,8 km/h (1 Bft) NO 50 0 min 0,000 mm 0,0 UV-I 0 W/m 7,0 C 8,2 C 6,4 km/h (2 Bft) 100,00 %
17.04.2016 03:57 8,1 C 91 % 1001,6 hPa 0,0 l/m 1,9 km/h (1 Bft) NO 50 0 min 0,000 mm 0,0 UV-I 0 W/m 6,7 C 8,1 C 3,2 km/h (1 Bft) 100,00 %
17.04.2016 03:58 8,0 C 91 % 1001,6 hPa 0,0 l/m 2,7 km/h (1 Bft) O-NO 73 0 min 0,000 mm 0,0 UV-I 0 W/m 6,6 C 8,0 C 3,2 km/h (1 Bft) 100,00 %
17.04.2016 03:59 7,9 C 91 % 1001,6 hPa 0,0 l/m 5,3 km/h (1 Bft) O-NO 71 0 min 0,000 mm 0,0 UV-I 0 W/m 6,5 C 7,9 C 6,4 km/h (2 Bft) 100,00 %
17.04.2016 04:00 7,8 C 92 % 1001,6 hPa 0,0 l/m 4,2 km/h (1 Bft) O-NO 71 0 min 0,000 mm 0,0 UV-I 0 W/m 6,6 C 7,8 C 6,4 km/h (2 Bft) 93,33 %
17.04.2016 04:02 7,8 C 93 % 1001,6 hPa 0,0 l/m 5,6 km/h (1 Bft) NO 45 0 min 0,000 mm 0,0 UV-I 0 W/m 6,7 C 7,8 C 8,0 km/h (2 Bft) 100,00 %
17.04.2016 04:03 7,9 C 93 % 1001,5 hPa 0,0 l/m 5,1 km/h (1 Bft) NO 40 0 min 0,000 mm 0,0 UV-I 0 W/m 6,8 C 7,9 C 6,4 km/h (2 Bft) 100,00 %
17.04.2016 04:04 7,8 C 92 % 1001,5 hPa 0,0 l/m 4,0 km/h (1 Bft) NO 39 0 min 0,000 mm 0,0 UV-I 0 W/m 6,6 C 7,8 C 4,8 km/h (1 Bft) 100,00 %
17.04.2016 04:05 7,7 C 92 % 1001,5 hPa 0,0 l/m 5,9 km/h (2 Bft) NO 46 0 min 0,000 mm 0,0 UV-I 0 W/m 6,5 C 7,7 C 6,4 km/h (2 Bft) 81,82 %
17.04.2016 04:06 7,6 C 92 % 1001,4 hPa 0,0 l/m 5,2 km/h (1 Bft) NO 44 0 min 0,000 mm 0,0 UV-I 0 W/m 6,4 C 7,6 C 6,4 km/h (2 Bft) 100,00 %
17.04.2016 04:07 7,5 C 92 % 1001,5 hPa 0,0 l/m 4,0 km/h (1 Bft) O-NO 59 0 min 0,000 mm 0,0 UV-I 0 W/m 6,3 C 7,5 C 6,4 km/h (2 Bft) 100,00 %
17.04.2016 04:08 7,4 C 92 % 1001,4 hPa 0,0 l/m 5,6 km/h (1 Bft) O-NO 61 0 min 0,000 mm 0,0 UV-I 0 W/m 6,2 C 7,4 C 6,4 km/h (2 Bft) 100,00 %
17.04.2016 04:09 7,4 C 93 % 1001,4 hPa 0,0 l/m 6,6 km/h (2 Bft) NO 44 0 min 0,000 mm 0,0 UV-I 0 W/m 6,3 C 7,3 C 8,0 km/h (2 Bft) 100,00 %
17.04.2016 04:10 7,4 C 93 % 1001,4 hPa 0,0 l/m 5,6 km/h (1 Bft) NO 54 0 min 0,000 mm 0,0 UV-I 0 W/m 6,3 C 7,4 C 6,4 km/h (2 Bft) 100,00 %
17.04.2016 04:11 7,4 C 93 % 1001,4 hPa 0,0 l/m 5,4 km/h (1 Bft) NO 48 0 min 0,000 mm 0,0 UV-I 0 W/m 6,3 C 7,4 C 8,0 km/h (2 Bft) 95,65 %
17.04.2016 04:12 7,4 C 93 % 1001,4 hPa 0,0 l/m 7,0 km/h (2 Bft) O-NO 61 0 min 0,000 mm 0,0 UV-I 0 W/m 6,3 C 6,9 C 9,7 km/h (2 Bft) 100,00 %
17.04.2016 04:13 7,4 C 94 % 1001,3 hPa 0,0 l/m 8,0 km/h (2 Bft) NO 51 0 min 0,000 mm 0,0 UV-I 0 W/m 6,5 C 6,1 C 9,7 km/h (2 Bft) 100,00 %
17.04.2016 04:14 7,5 C 94 % 1001,3 hPa 0,0 l/m 8,4 km/h (2 Bft) NO 51 0 min 0,000 mm 0,0 UV-I 0 W/m 6,6 C 5,9 C 12,9 km/h (3 Bft) 95,83 %
17.04.2016 04:15 7,6 C 94 % 1001,4 hPa 0,0 l/m 7,4 km/h (2 Bft) O-NO 67 0 min 0,000 mm 0,0 UV-I 0 W/m 6,7 C 6,8 C 9,7 km/h (2 Bft) 96,30 %
17.04.2016 04:16 7,6 C 94 % 1001,4 hPa 0,0 l/m 7,7 km/h (2 Bft) O-NO 68 0 min 0,000 mm 0,0 UV-I 0 W/m 6,7 C 6,6 C 9,7 km/h (2 Bft) 90,91 %
17.04.2016 04:17 7,6 C 94 % 1001,4 hPa 0,0 l/m 7,2 km/h (2 Bft) O-NO 65 0 min 0,000 mm 0,0 UV-I 0 W/m 6,7 C 7,0 C 9,7 km/h (2 Bft) 100,00 %
17.04.2016 04:18 7,6 C 94 % 1001,3 hPa 0,0 l/m 6,2 km/h (2 Bft) O-NO 61 0 min 0,000 mm 0,0 UV-I 0 W/m 6,7 C 7,6 C 8,0 km/h (2 Bft) 88,46 %
17.04.2016 04:19 7,6 C 94 % 1001,3 hPa 0,0 l/m 4,8 km/h (1 Bft) NO 52 0 min 0,000 mm 0,0 UV-I 0 W/m 6,7 C 7,6 C 8,0 km/h (2 Bft) 96,30 %
17.04.2016 04:20 7,7 C 94 % 1001,3 hPa 0,0 l/m 4,3 km/h (1 Bft) O-NO 59 0 min 0,000 mm 0,0 UV-I 0 W/m 6,8 C 7,7 C 6,4 km/h (2 Bft) 100,00 %
17.04.2016 04:21 7,7 C 94 % 1001,3 hPa 0,0 l/m 4,9 km/h (1 Bft) NO 46 0 min 0,000 mm 0,0 UV-I 0 W/m 6,8 C 7,7 C 6,4 km/h (2 Bft) 91,67 %
17.04.2016 04:22 7,7 C 94 % 1001,3 hPa 0,0 l/m 5,2 km/h (1 Bft) NO 45 0 min 0,000 mm 0,0 UV-I 0 W/m 6,8 C 7,7 C 6,4 km/h (2 Bft) 100,00 %
17.04.2016 04:23 7,6 C 93 % 1001,3 hPa 0,0 l/m 5,3 km/h (1 Bft) O-NO 65 0 min 0,000 mm 0,0 UV-I 0 W/m 6,5 C 7,6 C 8,0 km/h (2 Bft) 91,67 %
17.04.2016 04:24 7,6 C 93 % 1001,3 hPa 0,0 l/m 3,8 km/h (1 Bft) O-NO 74 0 min 0,000 mm 0,0 UV-I 0 W/m 6,5 C 7,6 C 4,8 km/h (1 Bft) 100,00 %
17.04.2016 04:25 7,6 C 94 % 1001,3 hPa 0,0 l/m 3,4 km/h (1 Bft) O-NO 72 0 min 0,000 mm 0,0 UV-I 0 W/m 6,7 C 7,6 C 4,8 km/h (1 Bft) 95,83 %
17.04.2016 04:26 7,6 C 94 % 1001,2 hPa 0,0 l/m 3,6 km/h (1 Bft) O-NO 69 0 min 0,000 mm 0,0 UV-I 0 W/m 6,7 C 7,6 C 4,8 km/h (1 Bft) 100,00 %
17.04.2016 04:27 7,6 C 94 % 1001,2 hPa 0,0 l/m 2,4 km/h (1 Bft) O-NO 59 0 min 0,000 mm 0,0 UV-I 0 W/m 6,7 C 7,6 C 4,8 km/h (1 Bft) 95,83 %
17.04.2016 04:28 7,6 C 94 % 1001,2 hPa 0,0 l/m 3,5 km/h (1 Bft) O-NO 59 0 min 0,000 mm 0,0 UV-I 0 W/m 6,7 C 7,6 C 4,8 km/h (1 Bft) 95,65 %
17.04.2016 04:29 7,5 C 93 % 1001,2 hPa 0,0 l/m 4,9 km/h (1 Bft) NO 55 0 min 0,000 mm 0,0 UV-I 0 W/m 6,4 C 7,5 C 6,4 km/h (2 Bft) 100,00 %
17.04.2016 04:30 7,4 C 93 % 1001,2 hPa 0,0 l/m 5,4 km/h (1 Bft) NO 50 0 min 0,000 mm 0,0 UV-I 0 W/m 6,3 C 7,4 C 6,4 km/h (2 Bft) 91,67 %
17.04.2016 04:31 7,3 C 93 % 1001,2 hPa 0,0 l/m 4,8 km/h (1 Bft) NO 55 0 min 0,000 mm 0,0 UV-I 0 W/m 6,2 C 7,3 C 6,4 km/h (2 Bft) 100,00 %
17.04.2016 04:32 7,3 C 93 % 1001,1 hPa 0,0 l/m 5,4 km/h (1 Bft) O-NO 61 0 min 0,000 mm 0,0 UV-I 0 W/m 6,2 C 7,3 C 6,4 km/h (2 Bft) 95,83 %
17.04.2016 04:33 7,3 C 94 % 1001,2 hPa 0,0 l/m 4,9 km/h (1 Bft) NO 44 0 min 0,000 mm 0,0 UV-I 0 W/m 6,4 C 7,3 C 6,4 km/h (2 Bft) 100,00 %
17.04.2016 04:34 7,3 C 94 % 1001,2 hPa 0,0 l/m 4,7 km/h (1 Bft) NO 44 0 min 0,000 mm 0,0 UV-I 0 W/m 6,4 C 7,3 C 4,8 km/h (1 Bft) 95,83 %
17.04.2016 04:35 7,3 C 94 % 1001,2 hPa 0,0 l/m 3,5 km/h (1 Bft) NO 44 0 min 0,000 mm 0,0 UV-I 0 W/m 6,4 C 7,3 C 4,8 km/h (1 Bft) 96,55 %
17.04.2016 04:36 7,3 C 94 % 1001,2 hPa 0,0 l/m 2,7 km/h (1 Bft) NO 44 0 min 0,000 mm 0,0 UV-I 0 W/m 6,4 C 7,3 C 3,2 km/h (1 Bft) 100,00 %
17.04.2016 04:37 7,3 C 94 % 1001,2 hPa 0,0 l/m 3,7 km/h (1 Bft) O-NO 59 0 min 0,000 mm 0,0 UV-I 0 W/m 6,4 C 7,3 C 4,8 km/h (1 Bft) 96,15 %
17.04.2016 04:38 7,3 C 94 % 1001,2 hPa 0,0 l/m 3,3 km/h (1 Bft) NO 55 0 min 0,000 mm 0,0 UV-I 0 W/m 6,4 C 7,3 C 4,8 km/h (1 Bft) 100,00 %
17.04.2016 04:39 7,3 C 94 % 1001,3 hPa 0,0 l/m 3,3 km/h (1 Bft) NO 55 0 min 0,000 mm 0,0 UV-I 0 W/m 6,4 C 7,3 C 4,8 km/h (1 Bft) 93,33 %
17.04.2016 04:40 7,2 C 94 % 1001,2 hPa 0,0 l/m 3,2 km/h (1 Bft) NO 55 0 min 0,000 mm 0,0 UV-I 0 W/m 6,3 C 7,2 C 4,8 km/h (1 Bft) 100,00 %
17.04.2016 04:41 7,2 C 94 % 1001,2 hPa 0,0 l/m 3,0 km/h (1 Bft) NO 55 0 min 0,000 mm 0,0 UV-I 0 W/m 6,3 C 7,2 C 4,8 km/h (1 Bft) 95,65 %
17.04.2016 04:42 7,2 C 94 % 1001,2 hPa 0,0 l/m 2,1 km/h (1 Bft) NO 55 0 min 0,000 mm 0,0 UV-I 0 W/m 6,3 C 7,2 C 3,2 km/h (1 Bft) 100,00 %
17.04.2016 04:43 7,2 C 94 % 1001,2 hPa 0,0 l/m 1,7 km/h (1 Bft) NO 55 0 min 0,000 mm 0,0 UV-I 0 W/m 6,3 C 7,2 C 3,2 km/h (1 Bft) 95,65 %
17.04.2016 04:44 7,2 C 94 % 1001,2 hPa 0,0 l/m 2,2 km/h (1 Bft) NO 55 0 min 0,000 mm 0,0 UV-I 0 W/m 6,3 C 7,2 C 3,2 km/h (1 Bft) 96,30 %
17.04.2016 04:45 7,2 C 94 % 1001,2 hPa 0,0 l/m 2,9 km/h (1 Bft) NO 55 0 min 0,000 mm 0,0 UV-I 0 W/m 6,3 C 7,2 C 3,2 km/h (1 Bft) 100,00 %
17.04.2016 04:46 7,2 C 94 % 1001,2 hPa 0,0 l/m 2,9 km/h (1 Bft) NO 55 0 min 0,000 mm 0,0 UV-I 0 W/m 6,3 C 7,2 C 3,2 km/h (1 Bft) 95,83 %
17.04.2016 04:47 7,2 C 94 % 1001,2 hPa 0,0 l/m 2,3 km/h (1 Bft) NO 55 0 min 0,000 mm 0,0 UV-I 0 W/m 6,3 C 7,2 C 3,2 km/h (1 Bft) 100,00 %
17.04.2016 04:48 7,1 C 94 % 1001,1 hPa 0,0 l/m 2,7 km/h (1 Bft) NO 55 0 min 0,000 mm 0,0 UV-I 0 W/m 6,2 C 7,1 C 3,2 km/h (1 Bft) 100,00 %
17.04.2016 04:49 7,1 C 94 % 1001,1 hPa 0,0 l/m 4,2 km/h (1 Bft) NO 55 0 min 0,000 mm 0,0 UV-I 0 W/m 6,2 C 7,1 C 4,8 km/h (1 Bft) 100,00 %
17.04.2016 04:50 7,1 C 94 % 1001,2 hPa 0,0 l/m 3,7 km/h (1 Bft) NO 55 0 min 0,000 mm 0,0 UV-I 0 W/m 6,2 C 7,1 C 6,4 km/h (2 Bft) 100,00 %
17.04.2016 04:51 7,1 C 94 % 1001,2 hPa 0,0 l/m 2,7 km/h (1 Bft) NO 55 0 min 0,000 mm 0,0 UV-I 0 W/m 6,2 C 7,1 C 3,2 km/h (1 Bft) 100,00 %
17.04.2016 04:52 7,1 C 94 % 1001,2 hPa 0,0 l/m 2,3 km/h (1 Bft) NO 55 0 min 0,000 mm 0,0 UV-I 0 W/m 6,2 C 7,1 C 3,2 km/h (1 Bft) 96,55 %
17.04.2016 04:53 7,1 C 94 % 1001,2 hPa 0,0 l/m 1,2 km/h (1 Bft) NO 55 0 min 0,000 mm 0,0 UV-I 0 W/m 6,2 C 7,1 C 1,6 km/h (1 Bft) 100,00 %
17.04.2016 04:54 7,1 C 95 % 1001,2 hPa 0,0 l/m 1,3 km/h (1 Bft) NO 55 0 min 0,000 mm 0,0 UV-I 0 W/m 6,4 C 7,1 C 1,6 km/h (1 Bft) 95,65 %
17.04.2016 04:55 7,2 C 95 % 1001,2 hPa 0,0 l/m 1,4 km/h (1 Bft) NO 55 0 min 0,000 mm 0,0 UV-I 0 W/m 6,5 C 7,2 C 3,2 km/h (1 Bft) 100,00 %
17.04.2016 04:56 7,1 C 95 % 1001,2 hPa 0,0 l/m 0,0 km/h (0 Bft) NO 55 0 min 0,000 mm 0,0 UV-I 0 W/m 6,4 C 7,1 C 0,0 km/h (0 Bft) 95,65 %
17.04.2016 04:57 7,1 C 94 % 1001,2 hPa 0,0 l/m 1,7 km/h (1 Bft) NO 55 0 min 0,000 mm 0,0 UV-I 0 W/m 6,2 C 7,1 C 3,2 km/h (1 Bft) 100,00 %
17.04.2016 04:58 7,1 C 94 % 1001,2 hPa 0,0 l/m 1,9 km/h (1 Bft) NO 55 0 min 0,000 mm 0,0 UV-I 0 W/m 6,2 C 7,1 C 3,2 km/h (1 Bft) 100,00 %
17.04.2016 04:59 7,1 C 94 % 1001,2 hPa 0,0 l/m 3,0 km/h (1 Bft) NO 55 0 min 0,000 mm 0,0 UV-I 0 W/m 6,2 C 7,1 C 4,8 km/h (1 Bft) 100,00 %
17.04.2016 05:00 7,1 C 95 % 1001,1 hPa 0,0 l/m 3,2 km/h (1 Bft) NO 55 0 min 0,000 mm 0,0 UV-I 0 W/m 6,4 C 7,1 C 4,8 km/h (1 Bft) 100,00 %
17.04.2016 05:01 7,1 C 94 % 1001,2 hPa 0,0 l/m 2,0 km/h (1 Bft) NO 55 0 min 0,000 mm 0,0 UV-I 0 W/m 6,2 C 7,1 C 3,2 km/h (1 Bft) 91,67 %
17.04.2016 05:02 7,1 C 95 % 1001,2 hPa 0,0 l/m 2,7 km/h (1 Bft) NO 55 0 min 0,000 mm 0,0 UV-I 0 W/m 6,4 C 7,1 C 3,2 km/h (1 Bft) 100,00 %
17.04.2016 05:03 7,1 C 95 % 1001,1 hPa 0,0 l/m 1,4 km/h (1 Bft) NO 55 0 min 0,000 mm 0,0 UV-I 0 W/m 6,4 C 7,1 C 1,6 km/h (1 Bft) 100,00 %
17.04.2016 05:04 7,1 C 95 % 1001,1 hPa 0,0 l/m 1,7 km/h (1 Bft) NO 55 0 min 0,000 mm 0,0 UV-I 0 W/m 6,4 C 7,1 C 3,2 km/h (1 Bft) 100,00 %
17.04.2016 05:05 7,1 C 95 % 1001,1 hPa 0,0 l/m 1,5 km/h (1 Bft) NO 55 0 min 0,000 mm 0,0 UV-I 0 W/m 6,4 C 7,1 C 3,2 km/h (1 Bft) 100,00 %
17.04.2016 05:06 7,1 C 95 % 1001,1 hPa 0,0 l/m 0,3 km/h (0 Bft) NO 55 0 min 0,000 mm 0,0 UV-I 0 W/m 6,4 C 7,1 C 1,6 km/h (1 Bft) 100,00 %
17.04.2016 05:07 7,1 C 95 % 1001,1 hPa 0,0 l/m 0,0 km/h (0 Bft) NO 55 0 min 0,000 mm 0,0 UV-I 0 W/m 6,4 C 7,1 C 0,0 km/h (0 Bft) 100,00 %
17.04.2016 05:08 7,1 C 95 % 1001,1 hPa 0,0 l/m 0,0 km/h (0 Bft) NO 55 0 min 0,000 mm 0,0 UV-I 0 W/m 6,4 C 7,1 C 0,0 km/h (0 Bft) 100,00 %
17.04.2016 05:09 7,1 C 95 % 1001,0 hPa 0,0 l/m 0,2 km/h (0 Bft) NO 55 0 min 0,000 mm 0,0 UV-I 0 W/m 6,4 C 7,1 C 1,6 km/h (1 Bft) 95,65 %
17.04.2016 05:10 7,1 C 95 % 1001,0 hPa 0,0 l/m 2,2 km/h (1 Bft) NO 55 0 min 0,000 mm 0,0 UV-I 0 W/m 6,4 C 7,1 C 3,2 km/h (1 Bft) 100,00 %
17.04.2016 05:11 7,0 C 95 % 1001,0 hPa 0,0 l/m 1,6 km/h (1 Bft) NO 55 0 min 0,000 mm 0,0 UV-I 0 W/m 6,3 C 7,0 C 1,6 km/h (1 Bft) 100,00 %
17.04.2016 05:12 7,0 C 95 % 1001,1 hPa 0,0 l/m 1,7 km/h (1 Bft) NO 55 0 min 0,000 mm 0,0 UV-I 0 W/m 6,3 C 7,0 C 3,2 km/h (1 Bft) 100,00 %
17.04.2016 05:13 6,9 C 95 % 1001,0 hPa 0,0 l/m 1,0 km/h (0 Bft) NO 55 0 min 0,000 mm 0,0 UV-I 0 W/m 6,2 C 6,9 C 1,6 km/h (1 Bft) 100,00 %
17.04.2016 05:14 6,9 C 95 % 1001,0 hPa 0,0 l/m 0,4 km/h (0 Bft) NO 55 0 min 0,000 mm 0,0 UV-I 0 W/m 6,2 C 6,9 C 1,6 km/h (1 Bft) 100,00 %
17.04.2016 05:15 6,9 C 94 % 1001,1 hPa 0,0 l/m 0,0 km/h (0 Bft) NO 55 0 min 0,000 mm 0,0 UV-I 0 W/m 6,0 C 6,9 C 0,0 km/h (0 Bft) 100,00 %
17.04.2016 05:16 6,8 C 94 % 1001,0 hPa 0,0 l/m 0,0 km/h (0 Bft) NO 55 0 min 0,000 mm 0,0 UV-I 0 W/m 5,9 C 6,8 C 0,0 km/h (0 Bft) 100,00 %
17.04.2016 05:17 6,7 C 94 % 1001,1 hPa 0,0 l/m 0,0 km/h (0 Bft) NO 55 0 min 0,000 mm 0,0 UV-I 0 W/m 5,8 C 6,7 C 0,0 km/h (0 Bft) 100,00 %
17.04.2016 05:18 6,7 C 94 % 1001,1 hPa 0,0 l/m 0,0 km/h (0 Bft) NO 55 0 min 0,000 mm 0,0 UV-I 0 W/m 5,8 C 6,7 C 0,0 km/h (0 Bft) 100,00 %
17.04.2016 05:19 6,7 C 94 % 1001,1 hPa 0,0 l/m 0,3 km/h (0 Bft) NO 55 0 min 0,000 mm 0,0 UV-I 0 W/m 5,8 C 6,7 C 1,6 km/h (1 Bft) 96,55 %
17.04.2016 05:20 6,6 C 94 % 1001,1 hPa 0,0 l/m 0,2 km/h (0 Bft) NO 55 0 min 0,000 mm 0,0 UV-I 0 W/m 5,7 C 6,6 C 1,6 km/h (1 Bft) 100,00 %
17.04.2016 05:21 6,6 C 94 % 1001,1 hPa 0,0 l/m 0,0 km/h (0 Bft) NO 55 0 min 0,000 mm 0,0 UV-I 0 W/m 5,7 C 6,6 C 0,0 km/h (0 Bft) 100,00 %
17.04.2016 05:22 6,5 C 94 % 1001,1 hPa 0,0 l/m 0,0 km/h (0 Bft) NO 55 0 min 0,000 mm 0,0 UV-I 0 W/m 5,6 C 6,5 C 0,0 km/h (0 Bft) 100,00 %
17.04.2016 05:23 6,5 C 95 % 1001,1 hPa 0,0 l/m 0,0 km/h (0 Bft) NO 55 0 min 0,000 mm 0,0 UV-I 0 W/m 5,8 C 6,5 C 0,0 km/h (0 Bft) 100,00 %
17.04.2016 05:24 6,5 C 95 % 1001,1 hPa 0,0 l/m 0,0 km/h (0 Bft) NO 55 0 min 0,000 mm 0,0 UV-I 0 W/m 5,8 C 6,5 C 0,0 km/h (0 Bft) 100,00 %
17.04.2016 05:25 6,5 C 95 % 1001,1 hPa 0,0 l/m 0,0 km/h (0 Bft) NO 55 0 min 0,000 mm 0,0 UV-I 0 W/m 5,8 C 6,5 C 0,0 km/h (0 Bft) 100,00 %
17.04.2016 05:26 6,4 C 95 % 1001,1 hPa 0,0 l/m 0,3 km/h (0 Bft) NO 55 0 min 0,000 mm 0,0 UV-I 0 W/m 5,7 C 6,4 C 1,6 km/h (1 Bft) 100,00 %
17.04.2016 05:27 6,4 C 95 % 1001,2 hPa 0,0 l/m 1,1 km/h (1 Bft) NO 55 0 min 0,000 mm 0,0 UV-I 0 W/m 5,7 C 6,4 C 1,6 km/h (1 Bft) 100,00 %
17.04.2016 05:28 6,4 C 95 % 1001,2 hPa 0,0 l/m 1,6 km/h (1 Bft) NO 55 0 min 0,000 mm 0,0 UV-I 0 W/m 5,7 C 6,4 C 3,2 km/h (1 Bft) 100,00 %
17.04.2016 05:29 6,4 C 95 % 1001,1 hPa 0,0 l/m 1,6 km/h (1 Bft) NO 55 0 min 0,000 mm 0,0 UV-I 0 W/m 5,7 C 6,4 C 3,2 km/h (1 Bft) 92,31 %
17.04.2016 05:30 6,3 C 95 % 1001,2 hPa 0,0 l/m 2,3 km/h (1 Bft) NO 55 0 min 0,000 mm 0,0 UV-I 0 W/m 5,6 C 6,3 C 3,2 km/h (1 Bft) 100,00 %
17.04.2016 05:31 6,3 C 95 % 1001,2 hPa 0,0 l/m 3,1 km/h (1 Bft) NO 55 0 min 0,000 mm 0,0 UV-I 0 W/m 5,6 C 6,3 C 3,2 km/h (1 Bft) 100,00 %
17.04.2016 05:32 6,3 C 95 % 1001,2 hPa 0,0 l/m 3,8 km/h (1 Bft) S-SW 192 0 min 0,000 mm 0,0 UV-I 0 W/m 5,6 C 6,3 C 4,8 km/h (1 Bft) 100,00 %
17.04.2016 05:33 6,3 C 95 % 1001,2 hPa 0,0 l/m 3,0 km/h (1 Bft) S-SW 192 0 min 0,000 mm 0,0 UV-I 0 W/m 5,6 C 6,3 C 4,8 km/h (1 Bft) 100,00 %
17.04.2016 05:34 6,3 C 95 % 1001,2 hPa 0,0 l/m 3,0 km/h (1 Bft) S-SW 192 0 min 0,000 mm 0,0 UV-I 0 W/m 5,6 C 6,3 C 3,2 km/h (1 Bft) 100,00 %
17.04.2016 05:35 6,3 C 95 % 1001,2 hPa 0,0 l/m 2,7 km/h (1 Bft) S-SW 192 0 min 0,000 mm 0,0 UV-I 0 W/m 5,6 C 6,3 C 3,2 km/h (1 Bft) 100,00 %
17.04.2016 05:36 6,3 C 95 % 1001,2 hPa 0,0 l/m 2,1 km/h (1 Bft) S-SW 192 0 min 0,000 mm 0,0 UV-I 0 W/m 5,6 C 6,3 C 3,2 km/h (1 Bft) 100,00 %
17.04.2016 05:37 6,3 C 95 % 1001,2 hPa 0,0 l/m 2,0 km/h (1 Bft) S-SW 192 0 min 0,000 mm 0,0 UV-I 0 W/m 5,6 C 6,3 C 3,2 km/h (1 Bft) 95,83 %
17.04.2016 05:38 6,3 C 95 % 1001,2 hPa 0,0 l/m 2,7 km/h (1 Bft) S-SW 192 0 min 0,000 mm 0,0 UV-I 0 W/m 5,6 C 6,3 C 3,2 km/h (1 Bft) 100,00 %
17.04.2016 05:39 6,3 C 95 % 1001,2 hPa 0,0 l/m 3,3 km/h (1 Bft) S-SW 192 0 min 0,000 mm 0,0 UV-I 0 W/m 5,6 C 6,3 C 4,8 km/h (1 Bft) 100,00 %
17.04.2016 05:40 6,3 C 95 % 1001,2 hPa 0,0 l/m 4,0 km/h (1 Bft) S-SW 192 0 min 0,000 mm 0,0 UV-I 0 W/m 5,6 C 6,3 C 4,8 km/h (1 Bft) 100,00 %
17.04.2016 05:41 6,3 C 95 % 1001,2 hPa 0,0 l/m 3,6 km/h (1 Bft) S-SO 167 0 min 0,000 mm 0,0 UV-I 0 W/m 5,6 C 6,3 C 6,4 km/h (2 Bft) 100,00 %
17.04.2016 05:42 6,3 C 95 % 1001,2 hPa 0,0 l/m 3,1 km/h (1 Bft) S-SO 167 0 min 0,000 mm 0,0 UV-I 0 W/m 5,6 C 6,3 C 4,8 km/h (1 Bft) 95,65 %
17.04.2016 05:43 6,3 C 95 % 1001,2 hPa 0,0 l/m 2,4 km/h (1 Bft) S-SO 167 0 min 0,000 mm 0,0 UV-I 0 W/m 5,6 C 6,3 C 4,8 km/h (1 Bft) 100,00 %
17.04.2016 05:44 6,2 C 95 % 1001,2 hPa 0,0 l/m 3,9 km/h (1 Bft) S-SO 167 0 min 0,000 mm 0,0 UV-I 0 W/m 5,5 C 6,2 C 6,4 km/h (2 Bft) 96,15 %
17.04.2016 05:45 6,2 C 95 % 1001,2 hPa 0,0 l/m 4,2 km/h (1 Bft) S-SO 167 0 min 0,000 mm 0,0 UV-I 0 W/m 5,5 C 6,2 C 4,8 km/h (1 Bft) 100,00 %
17.04.2016 05:46 6,2 C 95 % 1001,2 hPa 0,0 l/m 5,3 km/h (1 Bft) S-SO 167 0 min 0,000 mm 0,0 UV-I 0 W/m 5,5 C 6,2 C 6,4 km/h (2 Bft) 100,00 %
17.04.2016 05:47 6,2 C 95 % 1001,2 hPa 0,0 l/m 5,3 km/h (1 Bft) S-SO 167 0 min 0,000 mm 0,0 UV-I 0 W/m 5,5 C 6,2 C 6,4 km/h (2 Bft) 95,83 %
17.04.2016 05:48 6,2 C 95 % 1001,3 hPa 0,0 l/m 4,5 km/h (1 Bft) S 173 0 min 0,000 mm 0,0 UV-I 0 W/m 5,5 C 6,2 C 8,0 km/h (2 Bft) 98,42 %
17.04.2016 05:49 6,2 C 96 % 1001,3 hPa 0,0 l/m 4,4 km/h (1 Bft) S 173 0 min 0,000 mm 0,0 UV-I 0 W/m 5,6 C 6,2 C 4,8 km/h (1 Bft) 97,56 %
17.04.2016 05:50 6,2 C 96 % 1001,3 hPa 0,0 l/m 3,7 km/h (1 Bft) S 173 0 min 0,000 mm 0,0 UV-I 0 W/m 5,6 C 6,2 C 4,8 km/h (1 Bft) 100,00 %
17.04.2016 05:51 6,2 C 96 % 1001,3 hPa 0,0 l/m 2,7 km/h (1 Bft) S 173 0 min 0,000 mm 0,0 UV-I 0 W/m 5,6 C 6,2 C 4,8 km/h (1 Bft) 100,00 %
17.04.2016 05:52 6,2 C 96 % 1001,3 hPa 0,0 l/m 2,5 km/h (1 Bft) S 173 0 min 0,000 mm 0,0 UV-I 0 W/m 5,6 C 6,2 C 3,2 km/h (1 Bft) 100,00 %
17.04.2016 05:53 6,2 C 96 % 1001,3 hPa 0,0 l/m 3,7 km/h (1 Bft) S 188 0 min 0,000 mm 0,0 UV-I 0 W/m 5,6 C 6,2 C 4,8 km/h (1 Bft) 100,00 %
17.04.2016 05:54 6,2 C 96 % 1001,4 hPa 0,0 l/m 4,5 km/h (1 Bft) S-SW 206 0 min 0,000 mm 0,0 UV-I 0 W/m 5,6 C 6,2 C 6,4 km/h (2 Bft) 100,00 %
17.04.2016 05:55 6,2 C 96 % 1001,4 hPa 0,0 l/m 3,3 km/h (1 Bft) S-SW 206 0 min 0,000 mm 0,0 UV-I 0 W/m 5,6 C 6,2 C 4,8 km/h (1 Bft) 100,00 %
17.04.2016 05:56 6,2 C 96 % 1001,4 hPa 0,0 l/m 2,4 km/h (1 Bft) S-SW 206 0 min 0,000 mm 0,0 UV-I 0 W/m 5,6 C 6,2 C 3,2 km/h (1 Bft) 100,00 %
17.04.2016 05:57 6,3 C 96 % 1001,5 hPa 0,0 l/m 2,9 km/h (1 Bft) S-SW 206 0 min 0,000 mm 0,0 UV-I 0 W/m 5,7 C 6,3 C 3,2 km/h (1 Bft) 96,15 %
17.04.2016 05:58 6,3 C 96 % 1001,5 hPa 0,0 l/m 2,5 km/h (1 Bft) S-SW 206 0 min 0,000 mm 0,0 UV-I 0 W/m 5,7 C 6,3 C 3,2 km/h (1 Bft) 100,00 %
17.04.2016 05:59 6,3 C 96 % 1001,5 hPa 0,0 l/m 2,9 km/h (1 Bft) S-SW 206 0 min 0,000 mm 0,0 UV-I 0 W/m 5,7 C 6,3 C 4,8 km/h (1 Bft) 96,15 %
17.04.2016 06:00 6,3 C 96 % 1001,5 hPa 0,0 l/m 2,9 km/h (1 Bft) S-SW 206 0 min 0,000 mm 0,0 UV-I 0 W/m 5,7 C 6,3 C 4,8 km/h (1 Bft) 95,83 %
17.04.2016 06:01 6,3 C 96 % 1001,5 hPa 0,0 l/m 3,0 km/h (1 Bft) S-SW 206 0 min 0,000 mm 0,0 UV-I 0 W/m 5,7 C 6,3 C 4,8 km/h (1 Bft) 90,91 %
17.04.2016 06:02 6,3 C 96 % 1001,5 hPa 0,0 l/m 4,5 km/h (1 Bft) S-SW 206 0 min 0,000 mm 0,0 UV-I 0 W/m 5,7 C 6,3 C 4,8 km/h (1 Bft) 100,00 %
17.04.2016 06:03 6,3 C 96 % 1001,5 hPa 0,0 l/m 4,2 km/h (1 Bft) S-SW 206 0 min 0,000 mm 0,0 UV-I 0 W/m 5,7 C 6,3 C 4,8 km/h (1 Bft) 100,00 %
17.04.2016 06:04 6,2 C 96 % 1001,5 hPa 0,0 l/m 2,1 km/h (1 Bft) S-SW 206 0 min 0,000 mm 0,0 UV-I 0 W/m 5,6 C 6,2 C 3,2 km/h (1 Bft) 100,00 %
17.04.2016 06:05 6,2 C 96 % 1001,5 hPa 0,0 l/m 2,1 km/h (1 Bft) S-SW 206 0 min 0,000 mm 0,0 UV-I 0 W/m 5,6 C 6,2 C 3,2 km/h (1 Bft) 100,00 %
17.04.2016 06:06 6,2 C 96 % 1001,5 hPa 0,0 l/m 4,0 km/h (1 Bft) S-SW 198 0 min 0,000 mm 0,0 UV-I 0 W/m 5,6 C 6,2 C 4,8 km/h (1 Bft) 100,00 %
17.04.2016 06:07 6,2 C 96 % 1001,5 hPa 0,0 l/m 3,7 km/h (1 Bft) S-SW 197 0 min 0,000 mm 0,0 UV-I 5 W/m 5,6 C 6,2 C 4,8 km/h (1 Bft) 100,00 %
17.04.2016 06:08 6,2 C 96 % 1001,5 hPa 0,0 l/m 4,0 km/h (1 Bft) S-SW 211 0 min 0,000 mm 0,0 UV-I 5 W/m 5,6 C 6,2 C 4,8 km/h (1 Bft) 100,00 %
17.04.2016 06:09 6,2 C 96 % 1001,5 hPa 0,0 l/m 3,9 km/h (1 Bft) S-SW 210 0 min 0,000 mm 0,0 UV-I 5 W/m 5,6 C 6,2 C 4,8 km/h (1 Bft) 100,00 %
17.04.2016 06:10 6,1 C 96 % 1001,6 hPa 0,0 l/m 2,1 km/h (1 Bft) S-SW 210 0 min 0,000 mm 0,0 UV-I 5 W/m 5,5 C 6,1 C 3,2 km/h (1 Bft) 100,00 %
17.04.2016 06:11 6,1 C 96 % 1001,6 hPa 0,0 l/m 2,3 km/h (1 Bft) S-SW 210 0 min 0,000 mm 0,0 UV-I 5 W/m 5,5 C 6,1 C 3,2 km/h (1 Bft) 100,00 %
17.04.2016 06:12 6,1 C 96 % 1001,6 hPa 0,0 l/m 2,5 km/h (1 Bft) S-SW 210 0 min 0,000 mm 0,0 UV-I 5 W/m 5,5 C 6,1 C 3,2 km/h (1 Bft) 100,00 %
17.04.2016 06:13 6,1 C 96 % 1001,6 hPa 0,0 l/m 2,2 km/h (1 Bft) S-SW 210 0 min 0,000 mm 0,0 UV-I 5 W/m 5,5 C 6,1 C 3,2 km/h (1 Bft) 100,00 %
17.04.2016 06:14 6,0 C 96 % 1001,6 hPa 0,0 l/m 3,9 km/h (1 Bft) S-SW 210 0 min 0,000 mm 0,0 UV-I 7 W/m 5,4 C 6,0 C 4,8 km/h (1 Bft) 100,00 %
17.04.2016 06:15 6,1 C 96 % 1001,6 hPa 0,0 l/m 3,4 km/h (1 Bft) S-SW 210 0 min 0,000 mm 0,0 UV-I 7 W/m 5,5 C 6,1 C 4,8 km/h (1 Bft) 100,00 %
17.04.2016 06:16 6,0 C 96 % 1001,7 hPa 0,0 l/m 2,9 km/h (1 Bft) S-SW 209 0 min 0,000 mm 0,0 UV-I 7 W/m 5,4 C 6,0 C 4,8 km/h (1 Bft) 100,00 %
17.04.2016 06:17 6,0 C 96 % 1001,7 hPa 0,0 l/m 3,3 km/h (1 Bft) S-SW 209 0 min 0,000 mm 0,0 UV-I 7 W/m 5,4 C 6,0 C 4,8 km/h (1 Bft) 100,00 %
17.04.2016 06:18 6,0 C 96 % 1001,7 hPa 0,0 l/m 2,5 km/h (1 Bft) S-SW 209 0 min 0,000 mm 0,0 UV-I 9 W/m 5,4 C 6,0 C 3,2 km/h (1 Bft) 100,00 %
17.04.2016 06:19 5,9 C 96 % 1001,7 hPa 0,0 l/m 4,0 km/h (1 Bft) S-SW 209 0 min 0,000 mm 0,0 UV-I 9 W/m 5,3 C 5,9 C 4,8 km/h (1 Bft) 100,00 %
17.04.2016 06:20 5,9 C 96 % 1001,7 hPa 0,0 l/m 4,0 km/h (1 Bft) S-SW 209 0 min 0,000 mm 0,0 UV-I 10 W/m 5,3 C 5,9 C 4,8 km/h (1 Bft) 95,65 %
17.04.2016 06:21 5,9 C 96 % 1001,7 hPa 0,0 l/m 2,3 km/h (1 Bft) S-SW 209 1 min 0,000 mm 0,0 UV-I 11 W/m 5,3 C 5,9 C 3,2 km/h (1 Bft) 95,83 %
17.04.2016 06:22 5,9 C 96 % 1001,7 hPa 0,0 l/m 2,4 km/h (1 Bft) S-SW 209 1 min 0,000 mm 0,0 UV-I 11 W/m 5,3 C 5,9 C 4,8 km/h (1 Bft) 100,00 %
17.04.2016 06:23 5,9 C 96 % 1001,7 hPa 0,0 l/m 4,8 km/h (1 Bft) S 175 0 min 0,000 mm 0,0 UV-I 12 W/m 5,3 C 5,9 C 4,8 km/h (1 Bft) 91,67 %
17.04.2016 06:24 6,0 C 96 % 1001,8 hPa 0,0 l/m 2,8 km/h (1 Bft) S 171 0 min 0,000 mm 0,0 UV-I 12 W/m 5,4 C 6,0 C 4,8 km/h (1 Bft) 100,00 %
17.04.2016 06:25 6,0 C 96 % 1001,8 hPa 0,0 l/m 4,7 km/h (1 Bft) S-SW 198 0 min 0,000 mm 0,0 UV-I 14 W/m 5,4 C 6,0 C 6,4 km/h (2 Bft) 95,83 %
17.04.2016 06:26 5,9 C 96 % 1001,8 hPa 0,0 l/m 4,5 km/h (1 Bft) S 186 0 min 0,000 mm 0,0 UV-I 14 W/m 5,3 C 5,9 C 4,8 km/h (1 Bft) 100,00 %
17.04.2016 06:27 5,9 C 96 % 1001,8 hPa 0,0 l/m 5,5 km/h (1 Bft) S 186 0 min 0,000 mm 0,0 UV-I 14 W/m 5,3 C 5,9 C 6,4 km/h (2 Bft) 90,00 %
17.04.2016 06:28 5,9 C 96 % 1001,8 hPa 0,0 l/m 4,0 km/h (1 Bft) S 186 0 min 0,000 mm 0,0 UV-I 15 W/m 5,3 C 5,9 C 4,8 km/h (1 Bft) 91,30 %
17.04.2016 06:29 5,9 C 96 % 1001,9 hPa 0,0 l/m 4,7 km/h (1 Bft) S-SW 195 0 min 0,000 mm 0,0 UV-I 16 W/m 5,3 C 5,9 C 6,4 km/h (2 Bft) 100,00 %
17.04.2016 06:30 5,9 C 96 % 1001,9 hPa 0,0 l/m 6,4 km/h (2 Bft) S-SW 195 0 min 0,000 mm 0,0 UV-I 16 W/m 5,3 C 5,9 C 8,0 km/h (2 Bft) 100,00 %
17.04.2016 06:31 5,9 C 96 % 1001,9 hPa 0,0 l/m 5,3 km/h (1 Bft) SW 234 0 min 0,000 mm 0,0 UV-I 18 W/m 5,3 C 5,9 C 8,0 km/h (2 Bft) 96,55 %
17.04.2016 06:32 5,9 C 96 % 1002,0 hPa 0,0 l/m 5,1 km/h (1 Bft) SW 222 0 min 0,000 mm 0,0 UV-I 18 W/m 5,3 C 5,9 C 8,0 km/h (2 Bft) 96,15 %
17.04.2016 06:33 5,9 C 96 % 1002,0 hPa 0,0 l/m 5,4 km/h (1 Bft) S-SW 213 0 min 0,000 mm 0,0 UV-I 18 W/m 5,3 C 5,9 C 6,4 km/h (2 Bft) 100,00 %
17.04.2016 06:34 6,0 C 96 % 1002,0 hPa 0,0 l/m 6,6 km/h (2 Bft) S-SW 202 0 min 0,000 mm 0,0 UV-I 19 W/m 5,4 C 5,9 C 9,7 km/h (2 Bft) 95,65 %
17.04.2016 06:35 6,0 C 96 % 1002,0 hPa 0,0 l/m 6,0 km/h (2 Bft) S-SW 202 0 min 0,000 mm 0,0 UV-I 19 W/m 5,4 C 6,0 C 8,0 km/h (2 Bft) 100,00 %
17.04.2016 06:36 6,1 C 96 % 1002,0 hPa 0,0 l/m 6,0 km/h (2 Bft) S-SW 213 0 min 0,000 mm 0,0 UV-I 19 W/m 5,5 C 6,1 C 8,0 km/h (2 Bft) 95,83 %
17.04.2016 06:37 6,1 C 96 % 1002,0 hPa 0,0 l/m 6,0 km/h (2 Bft) S-SW 196 0 min 0,000 mm 0,0 UV-I 19 W/m 5,5 C 6,1 C 8,0 km/h (2 Bft) 100,00 %
17.04.2016 06:38 6,1 C 96 % 1002,1 hPa 0,0 l/m 4,2 km/h (1 Bft) S-SW 208 0 min 0,000 mm 0,0 UV-I 21 W/m 5,5 C 6,1 C 6,4 km/h (2 Bft) 95,83 %
17.04.2016 06:39 6,1 C 96 % 1002,1 hPa 0,0 l/m 4,1 km/h (1 Bft) S-SW 200 0 min 0,000 mm 0,0 UV-I 21 W/m 5,5 C 6,1 C 6,4 km/h (2 Bft) 95,65 %
17.04.2016 06:40 6,1 C 96 % 1002,2 hPa 0,0 l/m 3,7 km/h (1 Bft) SW 217 0 min 0,000 mm 0,0 UV-I 24 W/m 5,5 C 6,1 C 4,8 km/h (1 Bft) 100,00 %
17.04.2016 06:41 6,1 C 96 % 1002,2 hPa 0,0 l/m 4,6 km/h (1 Bft) SW 225 0 min 0,000 mm 0,0 UV-I 25 W/m 5,5 C 6,1 C 6,4 km/h (2 Bft) 95,65 %
17.04.2016 06:42 6,1 C 96 % 1002,3 hPa 0,0 l/m 5,1 km/h (1 Bft) SW 233 0 min 0,000 mm 0,0 UV-I 25 W/m 5,5 C 6,1 C 6,4 km/h (2 Bft) 100,00 %
17.04.2016 06:43 6,1 C 96 % 1002,3 hPa 0,0 l/m 4,6 km/h (1 Bft) SW 234 0 min 0,000 mm 0,0 UV-I 26 W/m 5,5 C 6,1 C 6,4 km/h (2 Bft) 96,15 %
17.04.2016 06:44 6,1 C 96 % 1002,3 hPa 0,0 l/m 6,3 km/h (2 Bft) S-SW 211 0 min 0,000 mm 0,0 UV-I 28 W/m 5,5 C 6,1 C 8,0 km/h (2 Bft) 100,00 %
17.04.2016 06:45 6,1 C 96 % 1002,4 hPa 0,0 l/m 7,8 km/h (2 Bft) S 174 0 min 0,000 mm 0,0 UV-I 28 W/m 5,5 C 4,9 C 11,3 km/h (2 Bft) 96,15 %
17.04.2016 06:46 6,0 C 96 % 1002,5 hPa 0,0 l/m 9,0 km/h (2 Bft) W-SW 255 0 min 0,000 mm 0,0 UV-I 28 W/m 5,4 C 3,9 C 12,9 km/h (3 Bft) 92,59 %
17.04.2016 06:47 6,0 C 96 % 1002,5 hPa 0,0 l/m 5,8 km/h (2 Bft) S-SW 209 0 min 0,000 mm 0,0 UV-I 30 W/m 5,4 C 6,0 C 9,7 km/h (2 Bft) 100,00 %
17.04.2016 06:48 6,0 C 96 % 1002,5 hPa 0,0 l/m 6,3 km/h (2 Bft) S-SW 203 0 min 0,000 mm 0,0 UV-I 30 W/m 5,4 C 6,0 C 9,7 km/h (2 Bft) 93,33 %
17.04.2016 06:49 6,0 C 96 % 1002,5 hPa 0,0 l/m 5,7 km/h (1 Bft) W-SW 239 0 min 0,000 mm 0,0 UV-I 30 W/m 5,4 C 6,0 C 9,7 km/h (2 Bft) 100,00 %
17.04.2016 06:50 5,9 C 96 % 1002,5 hPa 0,0 l/m 7,8 km/h (2 Bft) SW 221 0 min 0,000 mm 0,0 UV-I 30 W/m 5,3 C 4,7 C 11,3 km/h (2 Bft) 95,83 %
17.04.2016 06:51 5,9 C 96 % 1002,5 hPa 0,0 l/m 7,0 km/h (2 Bft) S-SW 200 0 min 0,000 mm 0,0 UV-I 30 W/m 5,3 C 5,4 C 9,7 km/h (2 Bft) 100,00 %
17.04.2016 06:52 5,9 C 96 % 1002,6 hPa 0,0 l/m 5,9 km/h (2 Bft) S-SW 200 0 min 0,000 mm 0,0 UV-I 30 W/m 5,3 C 5,9 C 8,0 km/h (2 Bft) 91,67 %
17.04.2016 06:53 5,9 C 96 % 1002,6 hPa 0,0 l/m 8,9 km/h (2 Bft) W-SW 248 0 min 0,000 mm 0,0 UV-I 30 W/m 5,3 C 3,9 C 14,5 km/h (3 Bft) 95,83 %
17.04.2016 06:54 6,0 C 96 % 1002,7 hPa 0,0 l/m 10,5 km/h (2 Bft) W-SW 244 0 min 0,000 mm 0,0 UV-I 30 W/m 5,4 C 2,8 C 14,5 km/h (3 Bft) 100,00 %
17.04.2016 06:55 6,0 C 96 % 1002,8 hPa 0,0 l/m 13,9 km/h (3 Bft) SW 225 0 min 0,000 mm 0,0 UV-I 30 W/m 5,4 C 0,8 C 17,7 km/h (3 Bft) 100,00 %
17.04.2016 06:56 6,0 C 96 % 1003,3 hPa 0,0 l/m 23,5 km/h (4 Bft) SW 229 0 min 0,000 mm 0,0 UV-I 36 W/m 5,4 C -3,1 C 29,0 km/h (5 Bft) 94,12 %
17.04.2016 06:57 6,0 C 96 % 1003,5 hPa 0,0 l/m 23,1 km/h (4 Bft) W 263 0 min 0,000 mm 0,0 UV-I 44 W/m 5,4 C -3,0 C 30,6 km/h (5 Bft) 97,62 %
17.04.2016 06:58 6,1 C 96 % 1003,4 hPa 0,0 l/m 17,5 km/h (3 Bft) W-SW 252 0 min 0,000 mm 0,0 UV-I 34 W/m 5,5 C -0,7 C 25,7 km/h (4 Bft) 100,00 %
17.04.2016 06:59 6,1 C 96 % 1003,5 hPa 0,0 l/m 19,1 km/h (3 Bft) W-SW 249 0 min 0,000 mm 0,0 UV-I 30 W/m 5,5 C -1,4 C 27,4 km/h (4 Bft) 100,00 %
17.04.2016 07:00 6,2 C 96 % 1003,3 hPa 0,0 l/m 12,5 km/h (3 Bft) SW 215 0 min 0,000 mm 0,0 UV-I 32 W/m 5,6 C 1,8 C 20,9 km/h (4 Bft) 100,00 %
17.04.2016 07:02 6,3 C 96 % 1003,5 hPa 0,0 l/m 13,9 km/h (3 Bft) W-SW 255 0 min 0,000 mm 0,0 UV-I 30 W/m 5,7 C 1,2 C 20,9 km/h (4 Bft) 100,00 %
17.04.2016 07:03 6,4 C 97 % 1003,5 hPa 0,0 l/m 13,4 km/h (3 Bft) W-SW 253 0 min 0,000 mm 0,0 UV-I 31 W/m 6,0 C 1,6 C 17,7 km/h (3 Bft) 100,00 %
17.04.2016 07:04 6,4 C 97 % 1003,5 hPa 0,0 l/m 13,7 km/h (3 Bft) W-SW 238 0 min 0,000 mm 0,0 UV-I 32 W/m 6,0 C 1,4 C 20,9 km/h (4 Bft) 100,00 %
17.04.2016 07:05 6,5 C 97 % 1003,6 hPa 0,0 l/m 15,6 km/h (3 Bft) W-SW 243 0 min 0,000 mm 0,0 UV-I 30 W/m 6,1 C 0,6 C 19,3 km/h (3 Bft) 100,00 %
17.04.2016 07:06 6,6 C 97 % 1003,8 hPa 0,0 l/m 18,0 km/h (3 Bft) W-SW 254 0 min 0,000 mm 0,0 UV-I 32 W/m 6,2 C -0,3 C 20,9 km/h (4 Bft) 93,10 %
17.04.2016 07:07 6,6 C 97 % 1003,9 hPa 0,0 l/m 15,2 km/h (3 Bft) W 259 0 min 0,000 mm 0,0 UV-I 31 W/m 6,2 C 0,9 C 19,3 km/h (3 Bft) 100,00 %
17.04.2016 07:08 6,6 C 96 % 1003,9 hPa 0,0 l/m 17,7 km/h (3 Bft) W 270 0 min 0,000 mm 0,0 UV-I 40 W/m 6,0 C -0,2 C 20,9 km/h (4 Bft) 100,00 %
17.04.2016 07:09 6,7 C 97 % 1003,9 hPa 0,0 l/m 14,8 km/h (3 Bft) SW 232 0 min 0,000 mm 0,0 UV-I 50 W/m 6,3 C 1,2 C 24,1 km/h (4 Bft) 100,00 %
17.04.2016 07:10 6,7 C 97 % 1004,1 hPa 0,0 l/m 17,1 km/h (3 Bft) W 271 0 min 0,000 mm 0,0 UV-I 36 W/m 6,3 C 0,2 C 22,5 km/h (4 Bft) 100,00 %
17.04.2016 07:11 6,8 C 97 % 1004,1 hPa 0,0 l/m 14,9 km/h (3 Bft) W-SW 248 0 min 0,000 mm 0,0 UV-I 54 W/m 6,4 C 1,3 C 20,9 km/h (4 Bft) 100,00 %
17.04.2016 07:12 6,8 C 97 % 1004,1 hPa 0,0 l/m 17,5 km/h (3 Bft) SW 225 0 min 0,000 mm 0,0 UV-I 82 W/m 6,4 C 0,1 C 24,1 km/h (4 Bft) 93,33 %
17.04.2016 07:13 6,8 C 96 % 1004,1 hPa 0,0 l/m 22,9 km/h (4 Bft) W-SW 237 0 min 0,000 mm 0,0 UV-I 90 W/m 6,2 C -1,9 C 29,0 km/h (5 Bft) 100,00 %
17.04.2016 07:14 6,9 C 96 % 1004,2 hPa 0,0 l/m 17,9 km/h (3 Bft) SW 234 1 min 0,000 mm 0,0 UV-I 93 W/m 6,3 C 0,1 C 24,1 km/h (4 Bft) 100,00 %
17.04.2016 07:15 6,9 C 96 % 1004,4 hPa 0,0 l/m 19,5 km/h (3 Bft) SW 228 1 min 0,000 mm 0,0 UV-I 96 W/m 6,3 C -0,5 C 25,7 km/h (4 Bft) 92,86 %
17.04.2016 07:16 7,0 C 96 % 1004,4 hPa 0,0 l/m 20,9 km/h (4 Bft) SW 236 1 min 0,000 mm 0,0 UV-I 98 W/m 6,4 C -0,9 C 27,4 km/h (4 Bft) 100,00 %
17.04.2016 07:17 7,1 C 96 % 1004,6 hPa 0,0 l/m 20,0 km/h (4 Bft) S-SW 202 1 min 0,000 mm 0,0 UV-I 100 W/m 6,5 C -0,5 C 24,1 km/h (4 Bft) 100,00 %
17.04.2016 07:18 7,1 C 96 % 1004,6 hPa 0,0 l/m 18,3 km/h (3 Bft) S-SW 205 1 min 0,000 mm 0,0 UV-I 103 W/m 6,5 C 0,2 C 25,7 km/h (4 Bft) 100,00 %
17.04.2016 07:19 7,2 C 96 % 1004,6 hPa 0,0 l/m 18,6 km/h (3 Bft) W-SW 252 1 min 0,000 mm 0,0 UV-I 106 W/m 6,6 C 0,2 C 24,1 km/h (4 Bft) 100,00 %
17.04.2016 07:20 7,2 C 96 % 1004,6 hPa 0,0 l/m 14,3 km/h (3 Bft) W-SW 238 1 min 0,000 mm 0,0 UV-I 110 W/m 6,6 C 2,1 C 16,1 km/h (3 Bft) 100,00 %
17.04.2016 07:21 7,3 C 96 % 1004,6 hPa 0,0 l/m 15,4 km/h (3 Bft) W-SW 257 1 min 0,000 mm 0,0 UV-I 113 W/m 6,7 C 1,7 C 22,5 km/h (4 Bft) 100,00 %
17.04.2016 07:22 7,3 C 96 % 1004,6 hPa 0,0 l/m 15,7 km/h (3 Bft) W-SW 252 1 min 0,000 mm 0,0 UV-I 116 W/m 6,7 C 1,5 C 22,5 km/h (4 Bft) 100,00 %
17.04.2016 07:23 7,4 C 96 % 1004,5 hPa 0,0 l/m 15,8 km/h (3 Bft) W-SW 249 1 min 0,000 mm 0,0 UV-I 118 W/m 6,8 C 1,6 C 20,9 km/h (4 Bft) 100,00 %
17.04.2016 07:24 7,6 C 96 % 1004,8 hPa 0,0 l/m 19,2 km/h (3 Bft) W-SW 246 1 min 0,000 mm 0,0 UV-I 121 W/m 7,0 C 0,5 C 22,5 km/h (4 Bft) 100,00 %
17.04.2016 07:25 7,7 C 96 % 1004,8 hPa 0,0 l/m 17,1 km/h (3 Bft) W-SW 254 1 min 0,000 mm 0,0 UV-I 123 W/m 7,1 C 1,4 C 22,5 km/h (4 Bft) 100,00 %
17.04.2016 07:26 7,8 C 96 % 1004,8 hPa 0,0 l/m 18,8 km/h (3 Bft) SW 227 1 min 0,000 mm 0,0 UV-I 126 W/m 7,2 C 0,9 C 25,7 km/h (4 Bft) 94,44 %
17.04.2016 07:27 7,9 C 95 % 1004,8 hPa 0,0 l/m 15,6 km/h (3 Bft) W-SW 251 1 min 0,000 mm 0,0 UV-I 129 W/m 7,1 C 2,3 C 20,9 km/h (4 Bft) 100,00 %
17.04.2016 07:28 8,1 C 95 % 1004,9 hPa 0,0 l/m 18,6 km/h (3 Bft) W-SW 244 1 min 0,000 mm 0,0 UV-I 132 W/m 7,3 C 1,3 C 24,1 km/h (4 Bft) 100,00 %
17.04.2016 07:29 8,2 C 94 % 1004,9 hPa 0,0 l/m 18,6 km/h (3 Bft) S-SW 209 1 min 0,000 mm 0,0 UV-I 135 W/m 7,3 C 1,5 C 25,7 km/h (4 Bft) 100,00 %
17.04.2016 07:30 8,3 C 93 % 1004,9 hPa 0,0 l/m 15,0 km/h (3 Bft) SW 227 1 min 0,000 mm 0,0 UV-I 138 W/m 7,2 C 3,1 C 19,3 km/h (3 Bft) 100,00 %
17.04.2016 07:31 8,4 C 93 % 1005,0 hPa 0,0 l/m 19,2 km/h (3 Bft) W 259 1 min 0,000 mm 0,0 UV-I 140 W/m 7,3 C 1,5 C 24,1 km/h (4 Bft) 100,00 %
17.04.2016 07:32 8,6 C 92 % 1005,0 hPa 0,0 l/m 18,6 km/h (3 Bft) W-SW 252 1 min 0,000 mm 0,0 UV-I 141 W/m 7,4 C 2,0 C 24,1 km/h (4 Bft) 96,15 %
17.04.2016 07:33 8,6 C 91 % 1005,0 hPa 0,0 l/m 17,0 km/h (3 Bft) SW 225 1 min 0,000 mm 0,0 UV-I 141 W/m 7,2 C 2,6 C 24,1 km/h (4 Bft) 100,00 %
17.04.2016 07:34 8,7 C 91 % 1005,0 hPa 0,0 l/m 17,7 km/h (3 Bft) SW 229 1 min 0,000 mm 0,0 UV-I 141 W/m 7,3 C 2,4 C 20,9 km/h (4 Bft) 100,00 %
17.04.2016 07:35 8,7 C 91 % 1005,0 hPa 0,0 l/m 21,5 km/h (4 Bft) W 259 1 min 0,000 mm 0,0 UV-I 142 W/m 7,3 C 1,1 C 32,2 km/h (5 Bft) 100,00 %
17.04.2016 07:36 8,8 C 90 % 1005,1 hPa 0,0 l/m 20,2 km/h (4 Bft) W-SW 254 1 min 0,000 mm 0,0 UV-I 142 W/m 7,3 C 1,7 C 24,1 km/h (4 Bft) 100,00 %
17.04.2016 07:37 8,9 C 90 % 1005,1 hPa 0,0 l/m 17,9 km/h (3 Bft) W-SW 242 1 min 0,000 mm 0,0 UV-I 142 W/m 7,4 C 2,6 C 27,4 km/h (4 Bft) 100,00 %
17.04.2016 07:38 8,9 C 90 % 1005,1 hPa 0,0 l/m 22,3 km/h (4 Bft) W 277 1 min 0,000 mm 0,0 UV-I 142 W/m 7,4 C 1,1 C 29,0 km/h (5 Bft) 100,00 %
17.04.2016 07:39 8,9 C 90 % 1005,1 hPa 0,0 l/m 19,6 km/h (3 Bft) W 259 1 min 0,000 mm 0,0 UV-I 142 W/m 7,4 C 2,0 C 24,1 km/h (4 Bft) 100,00 %
17.04.2016 07:40 9,0 C 90 % 1005,1 hPa 0,0 l/m 21,4 km/h (4 Bft) W-SW 253 1 min 0,000 mm 0,0 UV-I 142 W/m 7,4 C 1,5 C 29,0 km/h (5 Bft) 100,00 %
17.04.2016 07:41 9,1 C 90 % 1005,2 hPa 0,0 l/m 18,8 km/h (3 Bft) W-SW 249 1 min 0,000 mm 0,0 UV-I 144 W/m 7,5 C 2,5 C 24,1 km/h (4 Bft) 100,00 %
17.04.2016 07:42 9,1 C 89 % 1005,2 hPa 0,0 l/m 16,8 km/h (3 Bft) W-SW 241 1 min 0,000 mm 0,0 UV-I 144 W/m 7,4 C 3,3 C 24,1 km/h (4 Bft) 100,00 %
17.04.2016 07:43 9,1 C 89 % 1005,2 hPa 0,0 l/m 19,7 km/h (3 Bft) W-SW 253 1 min 0,000 mm 0,0 UV-I 144 W/m 7,4 C 2,2 C 24,1 km/h (4 Bft) 100,00 %
17.04.2016 07:44 9,2 C 89 % 1005,2 hPa 0,0 l/m 12,9 km/h (3 Bft) W-SW 256 1 min 0,000 mm 0,0 UV-I 144 W/m 7,5 C 5,1 C 17,7 km/h (3 Bft) 100,00 %
17.04.2016 07:45 9,2 C 89 % 1005,2 hPa 0,0 l/m 15,8 km/h (3 Bft) W-SW 247 1 min 0,000 mm 0,0 UV-I 146 W/m 7,5 C 3,8 C 24,1 km/h (4 Bft) 100,00 %
17.04.2016 07:46 9,3 C 89 % 1005,2 hPa 0,0 l/m 18,3 km/h (3 Bft) S-SW 207 1 min 0,000 mm 0,0 UV-I 149 W/m 7,6 C 3,0 C 24,1 km/h (4 Bft) 100,00 %
17.04.2016 07:47 9,3 C 90 % 1005,3 hPa 0,0 l/m 17,9 km/h (3 Bft) W 261 1 min 0,000 mm 0,0 UV-I 152 W/m 7,7 C 3,1 C 22,5 km/h (4 Bft) 100,00 %
17.04.2016 07:48 9,4 C 90 % 1005,4 hPa 0,0 l/m 17,5 km/h (3 Bft) W-SW 240 1 min 0,000 mm 0,0 UV-I 155 W/m 7,8 C 3,4 C 24,1 km/h (4 Bft) 96,15 %
17.04.2016 07:49 9,5 C 90 % 1005,4 hPa 0,0 l/m 19,8 km/h (3 Bft) SW 223 1 min 0,000 mm 0,0 UV-I 159 W/m 7,9 C 2,7 C 22,5 km/h (4 Bft) 100,00 %
17.04.2016 07:50 9,6 C 89 % 1005,5 hPa 0,0 l/m 17,9 km/h (3 Bft) W-SW 255 1 min 0,000 mm 0,0 UV-I 164 W/m 7,9 C 3,5 C 25,7 km/h (4 Bft) 100,00 %
17.04.2016 07:51 9,7 C 89 % 1005,5 hPa 0,0 l/m 20,0 km/h (4 Bft) W-SW 239 1 min 0,000 mm 0,0 UV-I 170 W/m 8,0 C 2,9 C 27,4 km/h (4 Bft) 100,00 %
17.04.2016 07:52 9,7 C 89 % 1005,4 hPa 0,0 l/m 23,7 km/h (4 Bft) W-SW 244 1 min 0,000 mm 0,0 UV-I 174 W/m 8,0 C 1,8 C 30,6 km/h (5 Bft) 100,00 %
17.04.2016 07:53 9,8 C 89 % 1005,4 hPa 0,0 l/m 20,9 km/h (4 Bft) SW 232 1 min 0,000 mm 0,0 UV-I 179 W/m 8,1 C 2,7 C 27,4 km/h (4 Bft) 100,00 %
17.04.2016 07:54 9,9 C 89 % 1005,4 hPa 0,0 l/m 20,8 km/h (4 Bft) W-SW 248 1 min 0,000 mm 0,0 UV-I 184 W/m 8,2 C 2,9 C 25,7 km/h (4 Bft) 100,00 %
17.04.2016 07:55 9,9 C 89 % 1005,4 hPa 0,0 l/m 18,8 km/h (3 Bft) W-NW 288 1 min 0,000 mm 0,0 UV-I 188 W/m 8,2 C 3,6 C 22,5 km/h (4 Bft) 100,00 %
17.04.2016 07:56 10,1 C 89 % 1005,4 hPa 0,0 l/m 22,3 km/h (4 Bft) W 267 1 min 0,000 mm 0,0 UV-I 195 W/m 8,4 C 2,7 C 27,4 km/h (4 Bft) 100,00 %
17.04.2016 07:57 10,2 C 88 % 1005,4 hPa 0,0 l/m 15,0 km/h (3 Bft) W 270 1 min 0,000 mm 0,0 UV-I 201 W/m 8,3 C 5,4 C 19,3 km/h (3 Bft) 92,86 %
17.04.2016 07:58 10,3 C 88 % 1005,6 hPa 0,0 l/m 14,7 km/h (3 Bft) W 265 1 min 0,000 mm 0,0 UV-I 206 W/m 8,4 C 5,6 C 20,9 km/h (4 Bft) 100,00 %
17.04.2016 07:59 10,3 C 88 % 1005,6 hPa 0,0 l/m 17,0 km/h (3 Bft) W 267 1 min 0,000 mm 0,0 UV-I 209 W/m 8,4 C 4,7 C 24,1 km/h (4 Bft) 96,15 %
17.04.2016 08:00 10,4 C 88 % 1005,6 hPa 0,0 l/m 20,8 km/h (4 Bft) W 259 1 min 0,076 mm 0,0 UV-I 208 W/m 8,5 C 3,6 C 27,4 km/h (4 Bft) 100,00 %
17.04.2016 08:02 10,6 C 87 % 1005,7 hPa 0,0 l/m 18,2 km/h (3 Bft) W 259 2 min 0,000 mm 0,0 UV-I 203 W/m 8,5 C 4,7 C 29,0 km/h (5 Bft) 100,00 %
17.04.2016 08:03 10,7 C 87 % 1005,8 hPa 0,0 l/m 22,6 km/h (4 Bft) W 268 1 min 0,000 mm 0,0 UV-I 216 W/m 8,6 C 3,4 C 29,0 km/h (5 Bft) 100,00 %
17.04.2016 08:04 10,7 C 87 % 1005,8 hPa 0,0 l/m 17,4 km/h (3 Bft) W-SW 248 1 min 0,000 mm 0,0 UV-I 213 W/m 8,6 C 5,1 C 29,0 km/h (5 Bft) 100,00 %
17.04.2016 08:05 10,8 C 87 % 1005,8 hPa 0,0 l/m 18,3 km/h (3 Bft) W 261 1 min 0,000 mm 0,0 UV-I 213 W/m 8,7 C 4,9 C 25,7 km/h (4 Bft) 100,00 %
17.04.2016 08:06 10,8 C 87 % 1006,0 hPa 0,0 l/m 19,4 km/h (3 Bft) W-SW 245 1 min 0,000 mm 0,0 UV-I 173 W/m 8,7 C 4,5 C 25,7 km/h (4 Bft) 100,00 %
17.04.2016 08:07 10,9 C 87 % 1005,9 hPa 0,0 l/m 19,2 km/h (3 Bft) W-SW 258 0 min 0,000 mm 0,0 UV-I 94 W/m 8,8 C 4,7 C 27,4 km/h (4 Bft) 100,00 %
17.04.2016 08:08 10,9 C 86 % 1006,0 hPa 0,0 l/m 21,2 km/h (4 Bft) W-SW 247 0 min 0,000 mm 0,0 UV-I 84 W/m 8,7 C 4,1 C 29,0 km/h (5 Bft) 100,00 %
17.04.2016 08:09 10,9 C 86 % 1006,0 hPa 0,0 l/m 18,5 km/h (3 Bft) W 266 0 min 0,000 mm 0,0 UV-I 87 W/m 8,7 C 4,9 C 24,1 km/h (4 Bft) 93,33 %
17.04.2016 08:10 11,0 C 86 % 1006,0 hPa 0,0 l/m 14,8 km/h (3 Bft) SW 234 0 min 0,000 mm 0,0 UV-I 80 W/m 8,7 C 6,4 C 20,9 km/h (4 Bft) 96,15 %
17.04.2016 08:11 11,0 C 86 % 1006,1 hPa 0,0 l/m 17,9 km/h (3 Bft) SW 232 0 min 0,000 mm 0,0 UV-I 126 W/m 8,7 C 5,3 C 22,5 km/h (4 Bft) 100,00 %
17.04.2016 08:12 11,1 C 86 % 1006,1 hPa 0,0 l/m 22,1 km/h (4 Bft) SW 225 0 min 0,000 mm 0,5 UV-I 166 W/m 8,8 C 4,1 C 37,0 km/h (5 Bft) 100,00 %
17.04.2016 08:13 11,1 C 86 % 1006,1 hPa 0,0 l/m 22,6 km/h (4 Bft) W-SW 251 1 min 0,000 mm 0,5 UV-I 202 W/m 8,8 C 3,9 C 30,6 km/h (5 Bft) 100,00 %
17.04.2016 08:14 11,1 C 85 % 1006,1 hPa 0,0 l/m 23,0 km/h (4 Bft) SW 219 1 min 0,000 mm 0,5 UV-I 221 W/m 8,7 C 3,8 C 37,0 km/h (5 Bft) 100,00 %
17.04.2016 08:15 11,2 C 85 % 1006,1 hPa 0,0 l/m 21,9 km/h (4 Bft) W-SW 238 1 min 0,000 mm 0,5 UV-I 224 W/m 8,8 C 4,3 C 32,2 km/h (5 Bft) 100,00 %
17.04.2016 08:16 11,3 C 85 % 1006,1 hPa 0,0 l/m 21,3 km/h (4 Bft) SW 226 1 min 0,000 mm 0,5 UV-I 224 W/m 8,9 C 4,6 C 33,8 km/h (5 Bft) 88,46 %
17.04.2016 08:17 11,3 C 85 % 1006,2 hPa 0,0 l/m 20,3 km/h (4 Bft) SW 232 1 min 0,000 mm 0,5 UV-I 222 W/m 8,9 C 4,9 C 29,0 km/h (5 Bft) 100,00 %
17.04.2016 08:18 11,4 C 85 % 1006,3 hPa 0,0 l/m 24,6 km/h (4 Bft) SW 230 1 min 0,000 mm 0,5 UV-I 217 W/m 9,0 C 3,8 C 32,2 km/h (5 Bft) 100,00 %
17.04.2016 08:19 11,4 C 84 % 1006,2 hPa 0,0 l/m 23,1 km/h (4 Bft) SW 222 1 min 0,000 mm 0,6 UV-I 212 W/m 8,8 C 4,2 C 30,6 km/h (5 Bft) 100,00 %
17.04.2016 08:20 11,5 C 84 % 1006,3 hPa 0,0 l/m 23,1 km/h (4 Bft) W-SW 250 1 min 0,000 mm 0,6 UV-I 211 W/m 8,9 C 4,3 C 29,0 km/h (5 Bft) 100,00 %
17.04.2016 08:21 11,6 C 84 % 1006,3 hPa 0,0 l/m 15,0 km/h (3 Bft) S-SW 207 1 min 0,000 mm 0,6 UV-I 213 W/m 9,0 C 7,1 C 20,9 km/h (4 Bft) 96,30 %
17.04.2016 08:22 11,6 C 84 % 1006,3 hPa 0,0 l/m 18,0 km/h (3 Bft) W-SW 239 1 min 0,000 mm 0,6 UV-I 206 W/m 9,0 C 6,0 C 22,5 km/h (4 Bft) 92,86 %
17.04.2016 08:23 11,7 C 84 % 1006,3 hPa 0,0 l/m 16,8 km/h (3 Bft) SW 233 1 min 0,000 mm 0,6 UV-I 201 W/m 9,1 C 6,5 C 22,5 km/h (4 Bft) 96,67 %
17.04.2016 08:24 11,7 C 84 % 1006,3 hPa 0,0 l/m 17,6 km/h (3 Bft) W-SW 240 0 min 0,000 mm 0,6 UV-I 197 W/m 9,1 C 6,2 C 24,1 km/h (4 Bft) 100,00 %
17.04.2016 08:25 11,7 C 83 % 1006,3 hPa 0,0 l/m 19,1 km/h (3 Bft) W-SW 249 0 min 0,000 mm 0,6 UV-I 193 W/m 8,9 C 5,8 C 25,7 km/h (4 Bft) 96,30 %
17.04.2016 08:26 11,8 C 82 % 1006,3 hPa 0,0 l/m 13,6 km/h (3 Bft) W-SW 252 0 min 0,000 mm 0,6 UV-I 189 W/m 8,8 C 7,9 C 19,3 km/h (3 Bft) 100,00 %
17.04.2016 08:27 11,8 C 82 % 1006,3 hPa 0,0 l/m 18,5 km/h (3 Bft) S-SW 211 0 min 0,000 mm 0,7 UV-I 190 W/m 8,8 C 6,1 C 22,5 km/h (4 Bft) 96,15 %
17.04.2016 08:28 11,9 C 83 % 1006,4 hPa 0,0 l/m 14,9 km/h (3 Bft) SW 218 0 min 0,000 mm 0,7 UV-I 188 W/m 9,1 C 7,5 C 22,5 km/h (4 Bft) 93,33 %
17.04.2016 08:29 11,9 C 83 % 1006,4 hPa 0,0 l/m 11,4 km/h (2 Bft) W-SW 239 0 min 0,000 mm 0,7 UV-I 191 W/m 9,1 C 9,0 C 17,7 km/h (3 Bft) 100,00 %
17.04.2016 08:30 12,0 C 83 % 1006,5 hPa 0,0 l/m 11,2 km/h (2 Bft) W-SW 246 0 min 0,000 mm 0,7 UV-I 198 W/m 9,2 C 9,2 C 20,9 km/h (4 Bft) 96,30 %
17.04.2016 08:31 12,0 C 82 % 1006,5 hPa 0,0 l/m 12,6 km/h (3 Bft) SW 227 0 min 0,000 mm 0,7 UV-I 201 W/m 9,0 C 8,5 C 17,7 km/h (3 Bft) 93,10 %
17.04.2016 08:32 12,1 C 82 % 1006,5 hPa 0,0 l/m 12,2 km/h (2 Bft) SW 229 0 min 0,000 mm 0,7 UV-I 206 W/m 9,1 C 8,8 C 19,3 km/h (3 Bft) 95,83 %
17.04.2016 08:33 12,1 C 82 % 1006,5 hPa 0,0 l/m 15,3 km/h (3 Bft) W-SW 252 1 min 0,000 mm 0,7 UV-I 213 W/m 9,1 C 7,6 C 19,3 km/h (3 Bft) 100,00 %
17.04.2016 08:34 12,2 C 81 % 1006,6 hPa 0,0 l/m 15,1 km/h (3 Bft) SW 227 1 min 0,000 mm 0,7 UV-I 219 W/m 9,0 C 7,8 C 20,9 km/h (4 Bft) 83,33 %
17.04.2016 08:35 12,2 C 81 % 1006,7 hPa 0,0 l/m 19,0 km/h (3 Bft) SW 235 1 min 0,000 mm 0,8 UV-I 231 W/m 9,0 C 6,4 C 27,4 km/h (4 Bft) 100,00 %
17.04.2016 08:36 12,3 C 80 % 1006,7 hPa 0,0 l/m 13,1 km/h (3 Bft) W 268 1 min 0,000 mm 0,8 UV-I 244 W/m 8,9 C 8,7 C 17,7 km/h (3 Bft) 92,59 %
17.04.2016 08:37 12,3 C 80 % 1006,7 hPa 0,0 l/m 10,8 km/h (2 Bft) W-SW 252 1 min 0,000 mm 0,8 UV-I 273 W/m 8,9 C 9,7 C 16,1 km/h (3 Bft) 96,15 %
17.04.2016 08:38 12,3 C 80 % 1006,8 hPa 0,0 l/m 15,0 km/h (3 Bft) W-SW 243 1 min 0,000 mm 0,8 UV-I 314 W/m 8,9 C 7,9 C 19,3 km/h (3 Bft) 100,00 %
17.04.2016 08:39 12,4 C 80 % 1006,8 hPa 0,0 l/m 16,5 km/h (3 Bft) W-SW 246 1 min 0,000 mm 0,8 UV-I 353 W/m 9,0 C 7,5 C 20,9 km/h (4 Bft) 92,86 %
17.04.2016 08:40 12,5 C 79 % 1006,8 hPa 0,0 l/m 14,8 km/h (3 Bft) W-SW 237 1 min 0,000 mm 0,8 UV-I 383 W/m 9,0 C 8,2 C 20,9 km/h (4 Bft) 96,30 %
17.04.2016 08:41 12,6 C 80 % 1006,9 hPa 0,0 l/m 10,8 km/h (2 Bft) W-SW 250 1 min 0,000 mm 0,8 UV-I 411 W/m 9,2 C 10,1 C 16,1 km/h (3 Bft) 96,15 %
17.04.2016 08:42 12,7 C 80 % 1006,9 hPa 0,0 l/m 10,6 km/h (2 Bft) W-SW 242 1 min 0,000 mm 0,8 UV-I 435 W/m 9,3 C 10,3 C 16,1 km/h (3 Bft) 100,00 %
17.04.2016 08:43 12,8 C 80 % 1006,9 hPa 0,0 l/m 16,4 km/h (3 Bft) W-SW 242 1 min 0,000 mm 0,8 UV-I 380 W/m 9,4 C 8,0 C 20,9 km/h (4 Bft) 96,67 %
17.04.2016 08:44 12,9 C 79 % 1007,0 hPa 0,0 l/m 13,1 km/h (3 Bft) SW 231 1 min 0,000 mm 0,7 UV-I 374 W/m 9,3 C 9,4 C 17,7 km/h (3 Bft) 96,30 %
17.04.2016 08:45 12,9 C 80 % 1007,0 hPa 0,0 l/m 10,8 km/h (2 Bft) W-SW 240 1 min 0,000 mm 0,8 UV-I 446 W/m 9,5 C 10,4 C 14,5 km/h (3 Bft) 85,71 %
17.04.2016 08:46 13,0 C 79 % 1007,0 hPa 0,0 l/m 13,3 km/h (3 Bft) W 263 1 min 0,000 mm 0,8 UV-I 398 W/m 9,4 C 9,4 C 20,9 km/h (4 Bft) 100,00 %
17.04.2016 08:47 13,1 C 79 % 1007,0 hPa 0,0 l/m 13,4 km/h (3 Bft) W-SW 241 1 min 0,000 mm 0,8 UV-I 243 W/m 9,5 C 9,5 C 17,7 km/h (3 Bft) 95,83 %
17.04.2016 08:48 13,1 C 78 % 1007,0 hPa 0,0 l/m 14,5 km/h (3 Bft) W-SW 256 1 min 0,000 mm 0,9 UV-I 298 W/m 9,4 C 9,1 C 20,9 km/h (4 Bft) 96,15 %
17.04.2016 08:49 13,1 C 78 % 1007,1 hPa 0,0 l/m 11,0 km/h (2 Bft) SW 232 1 min 0,000 mm 0,9 UV-I 345 W/m 9,4 C 10,5 C 16,1 km/h (3 Bft) 91,67 %
17.04.2016 08:50 13,1 C 78 % 1007,1 hPa 0,0 l/m 14,1 km/h (3 Bft) W-SW 252 1 min 0,000 mm 1,0 UV-I 336 W/m 9,4 C 9,2 C 20,9 km/h (4 Bft) 97,56 %
17.04.2016 08:51 13,1 C 77 % 1007,1 hPa 0,0 l/m 11,2 km/h (2 Bft) W-SW 244 1 min 0,000 mm 1,0 UV-I 339 W/m 9,2 C 10,4 C 16,1 km/h (3 Bft) 100,00 %
17.04.2016 08:52 13,1 C 77 % 1007,1 hPa 0,0 l/m 13,0 km/h (3 Bft) W-SW 238 1 min 0,000 mm 1,0 UV-I 344 W/m 9,2 C 9,7 C 17,7 km/h (3 Bft) 84,62 %
17.04.2016 08:53 13,1 C 77 % 1007,0 hPa 0,0 l/m 10,5 km/h (2 Bft) SW 224 1 min 0,000 mm 1,0 UV-I 350 W/m 9,2 C 10,8 C 14,5 km/h (3 Bft) 100,00 %
17.04.2016 08:54 13,1 C 79 % 1007,0 hPa 0,0 l/m 7,2 km/h (2 Bft) W 259 1 min 0,000 mm 1,0 UV-I 356 W/m 9,5 C 12,6 C 9,7 km/h (2 Bft) 95,65 %
17.04.2016 08:55 13,1 C 78 % 1007,1 hPa 0,0 l/m 10,4 km/h (2 Bft) SW 226 1 min 0,000 mm 1,0 UV-I 360 W/m 9,4 C 10,8 C 16,1 km/h (3 Bft) 100,00 %
17.04.2016 08:56 13,1 C 79 % 1007,1 hPa 0,0 l/m 9,1 km/h (2 Bft) SW 230 1 min 0,000 mm 1,0 UV-I 362 W/m 9,5 C 11,5 C 14,5 km/h (3 Bft) 96,55 %
17.04.2016 08:57 13,1 C 79 % 1007,1 hPa 0,0 l/m 8,5 km/h (2 Bft) NW 304 1 min 0,000 mm 1,1 UV-I 367 W/m 9,5 C 11,8 C 14,5 km/h (3 Bft) 100,00 %
17.04.2016 08:58 13,1 C 79 % 1007,1 hPa 0,0 l/m 8,0 km/h (2 Bft) W-SW 243 1 min 0,000 mm 1,1 UV-I 376 W/m 9,5 C 12,1 C 14,5 km/h (3 Bft) 96,15 %
17.04.2016 08:59 13,1 C 79 % 1007,1 hPa 0,0 l/m 12,8 km/h (3 Bft) W-SW 252 1 min 0,000 mm 1,1 UV-I 380 W/m 9,5 C 9,7 C 17,7 km/h (3 Bft) 100,00 %
17.04.2016 09:00 13,2 C 76 % 1007,1 hPa 0,0 l/m 15,3 km/h (3 Bft) W-SW 238 1 min 0,152 mm 1,1 UV-I 387 W/m 9,1 C 8,9 C 22,5 km/h (4 Bft) 96,15 %
17.04.2016 09:02 13,2 C 76 % 1007,1 hPa 0,0 l/m 16,5 km/h (3 Bft) S-SW 193 2 min 0,000 mm 1,1 UV-I 395 W/m 9,1 C 8,5 C 25,7 km/h (4 Bft) 100,00 %
17.04.2016 09:03 13,3 C 76 % 1007,1 hPa 0,0 l/m 12,8 km/h (3 Bft) W 262 1 min 0,000 mm 1,2 UV-I 399 W/m 9,2 C 10,0 C 19,3 km/h (3 Bft) 86,67 %
17.04.2016 09:04 13,3 C 75 % 1007,2 hPa 0,0 l/m 9,9 km/h (2 Bft) W-SW 238 1 min 0,000 mm 1,2 UV-I 400 W/m 9,0 C 11,3 C 17,7 km/h (3 Bft) 96,15 %
17.04.2016 09:05 13,3 C 75 % 1007,1 hPa 0,0 l/m 17,1 km/h (3 Bft) W-SW 258 1 min 0,000 mm 1,2 UV-I 404 W/m 9,0 C 8,4 C 22,5 km/h (4 Bft) 95,83 %
17.04.2016 09:06 13,4 C 75 % 1007,1 hPa 0,0 l/m 9,4 km/h (2 Bft) SW 220 1 min 0,000 mm 1,2 UV-I 408 W/m 9,1 C 11,7 C 17,7 km/h (3 Bft) 100,00 %
17.04.2016 09:07 13,4 C 75 % 1007,2 hPa 0,0 l/m 18,7 km/h (3 Bft) W 280 1 min 0,000 mm 1,2 UV-I 410 W/m 9,1 C 8,1 C 25,7 km/h (4 Bft) 100,00 %
17.04.2016 09:08 13,4 C 76 % 1007,2 hPa 0,0 l/m 15,3 km/h (3 Bft) W-SW 250 1 min 0,000 mm 1,2 UV-I 416 W/m 9,3 C 9,1 C 29,0 km/h (5 Bft) 100,00 %
17.04.2016 09:09 13,5 C 74 % 1007,2 hPa 0,0 l/m 22,1 km/h (4 Bft) W-SW 249 1 min 0,000 mm 1,3 UV-I 420 W/m 9,0 C 7,3 C 33,8 km/h (5 Bft) 100,00 %
17.04.2016 09:10 13,5 C 74 % 1007,2 hPa 0,0 l/m 15,7 km/h (3 Bft) W-SW 255 1 min 0,000 mm 1,3 UV-I 422 W/m 9,0 C 9,1 C 22,5 km/h (4 Bft) 96,15 %
17.04.2016 09:11 13,5 C 74 % 1007,1 hPa 0,0 l/m 15,6 km/h (3 Bft) W-SW 245 1 min 0,000 mm 1,3 UV-I 427 W/m 9,0 C 9,2 C 20,9 km/h (4 Bft) 100,00 %
17.04.2016 09:12 13,6 C 75 % 1007,2 hPa 0,0 l/m 16,7 km/h (3 Bft) W-SW 256 1 min 0,000 mm 1,3 UV-I 430 W/m 9,3 C 8,9 C 20,9 km/h (4 Bft) 96,30 %
17.04.2016 09:13 13,6 C 77 % 1007,1 hPa 0,0 l/m 13,2 km/h (3 Bft) SW 222 1 min 0,000 mm 1,3 UV-I 435 W/m 9,6 C 10,2 C 19,3 km/h (3 Bft) 96,15 %
17.04.2016 09:14 13,6 C 75 % 1007,2 hPa 0,0 l/m 7,2 km/h (2 Bft) W 259 1 min 0,000 mm 1,3 UV-I 442 W/m 9,3 C 13,1 C 17,7 km/h (3 Bft) 100,00 %
17.04.2016 09:15 13,7 C 75 % 1007,2 hPa 0,0 l/m 8,4 km/h (2 Bft) W 277 1 min 0,000 mm 1,3 UV-I 457 W/m 9,3 C 12,5 C 12,9 km/h (3 Bft) 100,00 %
17.04.2016 09:16 13,7 C 75 % 1007,2 hPa 0,0 l/m 14,8 km/h (3 Bft) W 263 1 min 0,000 mm 1,3 UV-I 456 W/m 9,3 C 9,7 C 20,9 km/h (4 Bft) 94,44 %
17.04.2016 09:17 13,8 C 74 % 1007,2 hPa 0,0 l/m 12,9 km/h (3 Bft) SW 219 1 min 0,000 mm 1,4 UV-I 450 W/m 9,2 C 10,5 C 16,1 km/h (3 Bft) 95,65 %
17.04.2016 09:18 13,8 C 74 % 1007,2 hPa 0,0 l/m 9,7 km/h (2 Bft) W-NW 288 1 min 0,000 mm 1,4 UV-I 447 W/m 9,2 C 11,9 C 14,5 km/h (3 Bft) 100,00 %
17.04.2016 09:19 13,8 C 74 % 1007,2 hPa 0,0 l/m 14,2 km/h (3 Bft) W 259 1 min 0,000 mm 1,4 UV-I 451 W/m 9,2 C 10,0 C 19,3 km/h (3 Bft) 100,00 %
17.04.2016 09:20 13,9 C 73 % 1007,2 hPa 0,0 l/m 13,1 km/h (3 Bft) W-SW 255 1 min 0,000 mm 1,4 UV-I 451 W/m 9,1 C 10,6 C 19,3 km/h (3 Bft) 100,00 %
17.04.2016 09:21 13,9 C 74 % 1007,2 hPa 0,0 l/m 12,5 km/h (3 Bft) W-SW 252 1 min 0,000 mm 1,4 UV-I 462 W/m 9,3 C 10,8 C 16,1 km/h (3 Bft) 95,65 %
17.04.2016 09:22 13,9 C 74 % 1007,3 hPa 0,0 l/m 15,7 km/h (3 Bft) W-SW 251 1 min 0,000 mm 1,4 UV-I 462 W/m 9,3 C 9,6 C 22,5 km/h (4 Bft) 100,00 %
17.04.2016 09:23 14,0 C 73 % 1007,4 hPa 0,0 l/m 13,8 km/h (3 Bft) W-NW 287 1 min 0,000 mm 1,4 UV-I 473 W/m 9,2 C 10,4 C 20,9 km/h (4 Bft) 98,27 %
17.04.2016 09:24 13,9 C 72 % 1007,4 hPa 0,0 l/m 13,9 km/h (3 Bft) W 271 1 min 0,000 mm 1,3 UV-I 493 W/m 8,9 C 10,3 C 22,5 km/h (4 Bft) 100,00 %
17.04.2016 09:25 13,9 C 73 % 1007,4 hPa 0,0 l/m 12,6 km/h (3 Bft) W-SW 238 1 min 0,000 mm 1,5 UV-I 490 W/m 9,1 C 10,8 C 17,7 km/h (3 Bft) 100,00 %
17.04.2016 09:26 13,9 C 72 % 1007,4 hPa 0,0 l/m 8,3 km/h (2 Bft) W-SW 257 1 min 0,000 mm 1,5 UV-I 489 W/m 8,9 C 12,8 C 11,3 km/h (2 Bft) 96,15 %
17.04.2016 09:27 13,9 C 73 % 1007,5 hPa 0,0 l/m 10,6 km/h (2 Bft) W-NW 282 1 min 0,000 mm 1,5 UV-I 493 W/m 9,1 C 11,6 C 19,3 km/h (3 Bft) 100,00 %
17.04.2016 09:28 14,0 C 73 % 1007,5 hPa 0,0 l/m 12,4 km/h (3 Bft) W-NW 288 1 min 0,000 mm 1,5 UV-I 501 W/m 9,2 C 11,0 C 16,1 km/h (3 Bft) 96,55 %
17.04.2016 09:29 14,1 C 74 % 1007,5 hPa 0,0 l/m 8,4 km/h (2 Bft) W 260 1 min 0,000 mm 1,5 UV-I 519 W/m 9,5 C 12,9 C 12,9 km/h (3 Bft) 100,00 %
17.04.2016 09:30 14,2 C 73 % 1007,4 hPa 0,0 l/m 7,8 km/h (2 Bft) W 274 1 min 0,000 mm 1,5 UV-I 519 W/m 9,4 C 13,4 C 14,5 km/h (3 Bft) 100,00 %
17.04.2016 09:32 14,3 C 72 % 1007,3 hPa 0,0 l/m 10,5 km/h (2 Bft) W-SW 248 2 min 0,000 mm 1,4 UV-I 519 W/m 9,3 C 12,1 C 20,9 km/h (4 Bft) 100,00 %
17.04.2016 09:33 14,3 C 72 % 1007,4 hPa 0,0 l/m 9,1 km/h (2 Bft) SW 236 1 min 0,000 mm 1,7 UV-I 402 W/m 9,3 C 12,8 C 12,9 km/h (3 Bft) 100,00 %
17.04.2016 09:34 14,3 C 73 % 1007,4 hPa 0,0 l/m 13,5 km/h (3 Bft) W 267 0 min 0,000 mm 1,6 UV-I 105 W/m 9,5 C 10,9 C 22,5 km/h (4 Bft) 100,00 %
17.04.2016 09:35 14,3 C 73 % 1007,4 hPa 0,0 l/m 16,9 km/h (3 Bft) SW 221 0 min 0,000 mm 1,5 UV-I 109 W/m 9,5 C 9,7 C 25,7 km/h (4 Bft) 100,00 %
17.04.2016 09:36 14,3 C 73 % 1007,3 hPa 0,0 l/m 14,5 km/h (3 Bft) SW 236 1 min 0,000 mm 1,7 UV-I 435 W/m 9,5 C 10,5 C 20,9 km/h (4 Bft) 100,00 %
17.04.2016 09:37 14,2 C 73 % 1007,3 hPa 0,0 l/m 12,6 km/h (3 Bft) SW 220 1 min 0,000 mm 1,7 UV-I 504 W/m 9,4 C 11,1 C 24,1 km/h (4 Bft) 96,67 %
17.04.2016 09:38 14,2 C 72 % 1007,3 hPa 0,0 l/m 20,8 km/h (4 Bft) SW 221 1 min 0,000 mm 1,8 UV-I 513 W/m 9,2 C 8,5 C 30,6 km/h (5 Bft) 100,00 %
17.04.2016 09:39 14,3 C 71 % 1007,3 hPa 0,0 l/m 14,6 km/h (3 Bft) SW 227 1 min 0,000 mm 1,8 UV-I 521 W/m 9,1 C 10,5 C 24,1 km/h (4 Bft) 100,00 %
17.04.2016 09:40 14,3 C 73 % 1007,3 hPa 0,0 l/m 12,7 km/h (3 Bft) W 265 1 min 0,000 mm 1,8 UV-I 529 W/m 9,5 C 11,2 C 20,9 km/h (4 Bft) 96,15 %
17.04.2016 09:41 14,3 C 69 % 1007,3 hPa 0,0 l/m 18,9 km/h (3 Bft) W-SW 248 1 min 0,000 mm 1,8 UV-I 530 W/m 8,7 C 9,1 C 22,5 km/h (4 Bft) 100,00 %
17.04.2016 09:42 14,3 C 69 % 1007,4 hPa 0,0 l/m 11,7 km/h (2 Bft) W-SW 257 1 min 0,000 mm 1,8 UV-I 528 W/m 8,7 C 11,6 C 17,7 km/h (3 Bft) 100,00 %
17.04.2016 09:43 14,3 C 69 % 1007,4 hPa 0,0 l/m 15,9 km/h (3 Bft) W-SW 246 1 min 0,000 mm 1,8 UV-I 526 W/m 8,7 C 10,0 C 19,3 km/h (3 Bft) 96,30 %
17.04.2016 09:44 14,3 C 69 % 1007,4 hPa 0,0 l/m 13,7 km/h (3 Bft) W 261 1 min 0,000 mm 1,8 UV-I 515 W/m 8,7 C 10,8 C 20,9 km/h (4 Bft) 100,00 %
17.04.2016 09:45 14,3 C 69 % 1007,4 hPa 0,0 l/m 15,0 km/h (3 Bft) W 266 1 min 0,000 mm 1,9 UV-I 538 W/m 8,7 C 10,3 C 20,9 km/h (4 Bft) 100,00 %
17.04.2016 09:46 14,4 C 70 % 1007,4 hPa 0,0 l/m 14,8 km/h (3 Bft) W 275 1 min 0,000 mm 1,9 UV-I 544 W/m 9,0 C 10,5 C 20,9 km/h (4 Bft) 95,65 %
17.04.2016 09:47 14,4 C 71 % 1007,3 hPa 0,0 l/m 16,9 km/h (3 Bft) W 260 1 min 0,000 mm 1,9 UV-I 562 W/m 9,2 C 9,9 C 25,7 km/h (4 Bft) 100,00 %
17.04.2016 09:48 14,5 C 70 % 1007,4 hPa 0,0 l/m 13,3 km/h (3 Bft) W-SW 254 1 min 0,000 mm 1,9 UV-I 570 W/m 9,1 C 11,2 C 20,9 km/h (4 Bft) 100,00 %
17.04.2016 09:49 14,5 C 69 % 1007,4 hPa 0,0 l/m 14,0 km/h (3 Bft) W-SW 238 1 min 0,000 mm 1,6 UV-I 570 W/m 8,9 C 10,9 C 20,9 km/h (4 Bft) 100,00 %
17.04.2016 09:50 14,5 C 70 % 1007,4 hPa 0,0 l/m 9,1 km/h (2 Bft) SW 234 1 min 0,000 mm 1,8 UV-I 559 W/m 9,1 C 13,0 C 12,9 km/h (3 Bft) 100,00 %
17.04.2016 09:51 14,6 C 70 % 1007,3 hPa 0,0 l/m 7,9 km/h (2 Bft) SW 223 1 min 0,000 mm 1,8 UV-I 517 W/m 9,2 C 13,7 C 14,5 km/h (3 Bft) 100,00 %
17.04.2016 09:52 14,6 C 71 % 1007,4 hPa 0,0 l/m 12,3 km/h (3 Bft) SW 228 1 min 0,000 mm 1,7 UV-I 517 W/m 9,4 C 11,7 C 16,1 km/h (3 Bft) 100,00 %
17.04.2016 09:53 14,6 C 72 % 1007,3 hPa 0,0 l/m 12,6 km/h (3 Bft) W-SW 248 1 min 0,000 mm 2,0 UV-I 542 W/m 9,6 C 11,6 C 17,7 km/h (3 Bft) 100,00 %
17.04.2016 09:54 14,6 C 73 % 1007,3 hPa 0,0 l/m 8,7 km/h (2 Bft) W-SW 241 1 min 0,000 mm 2,0 UV-I 558 W/m 9,8 C 13,3 C 12,9 km/h (3 Bft) 100,00 %
17.04.2016 09:55 14,7 C 74 % 1007,3 hPa 0,0 l/m 10,2 km/h (2 Bft) SW 234 1 min 0,000 mm 2,1 UV-I 554 W/m 10,1 C 12,7 C 12,9 km/h (3 Bft) 100,00 %
17.04.2016 09:56 14,8 C 72 % 1007,4 hPa 0,0 l/m 11,4 km/h (2 Bft) W 271 1 min 0,000 mm 2,1 UV-I 565 W/m 9,8 C 12,3 C 16,1 km/h (3 Bft) 100,00 %
17.04.2016 09:57 14,8 C 72 % 1007,4 hPa 0,0 l/m 8,0 km/h (2 Bft) SW 220 1 min 0,000 mm 2,1 UV-I 580 W/m 9,8 C 13,9 C 12,9 km/h (3 Bft) 96,15 %
17.04.2016 09:58 14,8 C 71 % 1007,4 hPa 0,0 l/m 18,1 km/h (3 Bft) SW 236 1 min 0,000 mm 2,0 UV-I 584 W/m 9,6 C 10,0 C 20,9 km/h (4 Bft) 100,00 %
17.04.2016 09:59 14,8 C 71 % 1007,5 hPa 0,0 l/m 17,2 km/h (3 Bft) W 268 1 min 0,000 mm 1,8 UV-I 584 W/m 9,6 C 10,3 C 22,5 km/h (4 Bft) 100,00 %
17.04.2016 10:00 14,7 C 70 % 1007,5 hPa 0,0 l/m 11,3 km/h (2 Bft) SW 234 1 min 0,280 mm 2,1 UV-I 607 W/m 9,3 C 12,2 C 14,5 km/h (3 Bft) 100,00 %
17.04.2016 10:02 14,7 C 71 % 1007,4 hPa 0,0 l/m 13,8 km/h (3 Bft) W-SW 241 2 min 0,000 mm 2,1 UV-I 615 W/m 9,5 C 11,2 C 22,5 km/h (4 Bft) 94,74 %
17.04.2016 10:03 14,7 C 71 % 1007,5 hPa 0,0 l/m 10,9 km/h (2 Bft) SW 234 1 min 0,000 mm 2,0 UV-I 619 W/m 9,5 C 12,4 C 17,7 km/h (3 Bft) 96,15 %
17.04.2016 10:04 14,7 C 71 % 1007,5 hPa 0,0 l/m 10,4 km/h (2 Bft) W-SW 238 1 min 0,000 mm 2,2 UV-I 619 W/m 9,5 C 12,6 C 14,5 km/h (3 Bft) 100,00 %
17.04.2016 10:05 14,7 C 70 % 1007,6 hPa 0,0 l/m 12,1 km/h (2 Bft) S-SW 212 1 min 0,000 mm 2,2 UV-I 630 W/m 9,3 C 11,9 C 17,7 km/h (3 Bft) 100,00 %
17.04.2016 10:06 14,7 C 70 % 1007,6 hPa 0,0 l/m 14,8 km/h (3 Bft) SW 229 1 min 0,000 mm 2,0 UV-I 635 W/m 9,3 C 10,9 C 20,9 km/h (4 Bft) 100,00 %
17.04.2016 10:07 14,7 C 70 % 1007,6 hPa 0,0 l/m 15,4 km/h (3 Bft) SW 223 1 min 0,000 mm 2,1 UV-I 343 W/m 9,3 C 10,7 C 20,9 km/h (4 Bft) 100,00 %
17.04.2016 10:08 14,7 C 71 % 1007,7 hPa 0,0 l/m 14,7 km/h (3 Bft) S-SW 209 0 min 0,000 mm 2,0 UV-I 258 W/m 9,5 C 10,9 C 20,9 km/h (4 Bft) 100,00 %
17.04.2016 10:09 14,6 C 71 % 1007,7 hPa 0,0 l/m 14,3 km/h (3 Bft) W-SW 248 0 min 0,000 mm 2,0 UV-I 258 W/m 9,4 C 10,9 C 19,3 km/h (3 Bft) 100,00 %
17.04.2016 10:10 14,6 C 70 % 1007,7 hPa 0,0 l/m 9,0 km/h (2 Bft) W-NW 289 0 min 0,000 mm 2,2 UV-I 258 W/m 9,2 C 13,2 C 12,9 km/h (3 Bft) 96,55 %
17.04.2016 10:11 14,6 C 70 % 1007,7 hPa 0,0 l/m 10,6 km/h (2 Bft) S 188 0 min 0,000 mm 2,1 UV-I 258 W/m 9,2 C 12,4 C 17,7 km/h (3 Bft) 100,00 %
17.04.2016 10:12 14,6 C 70 % 1007,8 hPa 0,0 l/m 11,2 km/h (2 Bft) SW 220 0 min 0,000 mm 1,6 UV-I 287 W/m 9,2 C 12,1 C 14,5 km/h (3 Bft) 100,00 %
17.04.2016 10:13 14,6 C 70 % 1007,8 hPa 0,0 l/m 10,7 km/h (2 Bft) S 191 0 min 0,000 mm 1,6 UV-I 307 W/m 9,2 C 12,4 C 16,1 km/h (3 Bft) 100,00 %
17.04.2016 10:14 14,6 C 71 % 1007,8 hPa 0,0 l/m 9,9 km/h (2 Bft) SW 236 0 min 0,000 mm 1,5 UV-I 309 W/m 9,4 C 12,7 C 14,5 km/h (3 Bft) 100,00 %
17.04.2016 10:15 14,5 C 70 % 1007,9 hPa 0,0 l/m 8,9 km/h (2 Bft) S-SW 209 0 min 0,000 mm 1,5 UV-I 299 W/m 9,1 C 13,1 C 12,9 km/h (3 Bft) 100,00 %
17.04.2016 10:16 14,5 C 72 % 1007,9 hPa 0,0 l/m 13,1 km/h (3 Bft) W 265 0 min 0,000 mm 1,5 UV-I 319 W/m 9,5 C 11,3 C 16,1 km/h (3 Bft) 100,00 %
17.04.2016 10:17 14,5 C 71 % 1007,9 hPa 0,0 l/m 12,5 km/h (3 Bft) SW 236 1 min 0,000 mm 1,7 UV-I 354 W/m 9,3 C 11,5 C 16,1 km/h (3 Bft) 100,00 %
17.04.2016 10:18 14,5 C 69 % 1007,9 hPa 0,0 l/m 9,5 km/h (2 Bft) W 260 1 min 0,000 mm 1,7 UV-I 376 W/m 8,9 C 12,8 C 14,5 km/h (3 Bft) 100,00 %
17.04.2016 10:19 14,5 C 71 % 1007,9 hPa 0,0 l/m 9,6 km/h (2 Bft) W-SW 252 1 min 0,000 mm 1,9 UV-I 424 W/m 9,3 C 12,8 C 14,5 km/h (3 Bft) 100,00 %
17.04.2016 10:20 14,5 C 70 % 1007,9 hPa 0,0 l/m 9,8 km/h (2 Bft) SW 215 1 min 0,000 mm 1,9 UV-I 424 W/m 9,1 C 12,7 C 14,5 km/h (3 Bft) 95,65 %
17.04.2016 10:21 14,6 C 71 % 1007,9 hPa 0,0 l/m 4,6 km/h (1 Bft) W 261 1 min 0,000 mm 1,9 UV-I 427 W/m 9,4 C 14,6 C 6,4 km/h (2 Bft) 100,00 %
17.04.2016 10:22 14,7 C 70 % 1007,9 hPa 0,0 l/m 7,5 km/h (2 Bft) W-SW 258 1 min 0,000 mm 1,9 UV-I 447 W/m 9,3 C 14,1 C 12,9 km/h (3 Bft) 96,15 %
17.04.2016 10:23 14,7 C 71 % 1007,9 hPa 0,0 l/m 9,1 km/h (2 Bft) SW 227 1 min 0,000 mm 2,2 UV-I 546 W/m 9,5 C 13,2 C 12,9 km/h (3 Bft) 100,00 %
17.04.2016 10:24 14,8 C 72 % 1007,9 hPa 0,0 l/m 8,1 km/h (2 Bft) S-SO 158 1 min 0,000 mm 2,3 UV-I 561 W/m 9,8 C 13,8 C 12,9 km/h (3 Bft) 96,15 %
17.04.2016 10:25 14,9 C 71 % 1007,8 hPa 0,0 l/m 7,0 km/h (2 Bft) SW 236 1 min 0,000 mm 2,2 UV-I 564 W/m 9,7 C 14,6 C 9,7 km/h (2 Bft) 96,30 %
17.04.2016 10:26 15,0 C 72 % 1007,8 hPa 0,0 l/m 9,0 km/h (2 Bft) SW 233 1 min 0,000 mm 2,3 UV-I 575 W/m 10,0 C 13,6 C 12,9 km/h (3 Bft) 100,00 %
17.04.2016 10:27 15,1 C 71 % 1007,8 hPa 0,0 l/m 10,1 km/h (2 Bft) SW 233 1 min 0,000 mm 2,2 UV-I 680 W/m 9,9 C 13,2 C 12,9 km/h (3 Bft) 93,33 %
17.04.2016 10:28 15,2 C 69 % 1007,8 hPa 0,0 l/m 9,1 km/h (2 Bft) SW 215 1 min 0,000 mm 2,2 UV-I 824 W/m 9,6 C 13,8 C 12,9 km/h (3 Bft) 100,00 %
17.04.2016 10:29 15,2 C 68 % 1007,8 hPa 0,0 l/m 10,5 km/h (2 Bft) SW 221 1 min 0,000 mm 2,1 UV-I 565 W/m 9,3 C 13,1 C 14,5 km/h (3 Bft) 96,15 %
17.04.2016 10:30 15,1 C 69 % 1007,9 hPa 0,0 l/m 5,2 km/h (1 Bft) SW 217 1 min 0,000 mm 2,5 UV-I 469 W/m 9,5 C 15,1 C 6,4 km/h (2 Bft) 100,00 %
17.04.2016 10:31 15,2 C 69 % 1007,8 hPa 0,0 l/m 1,4 km/h (1 Bft) W-SW 240 1 min 0,000 mm 2,4 UV-I 469 W/m 9,6 C 15,2 C 3,2 km/h (1 Bft) 96,15 %
17.04.2016 10:32 15,2 C 70 % 1007,8 hPa 0,0 l/m 6,8 km/h (2 Bft) W-SW 246 1 min 0,000 mm 2,7 UV-I 469 W/m 9,8 C 15,0 C 11,3 km/h (2 Bft) 95,83 %
17.04.2016 10:33 15,3 C 71 % 1007,8 hPa 0,0 l/m 10,3 km/h (2 Bft) W-SW 257 1 min 0,000 mm 2,3 UV-I 469 W/m 10,1 C 13,3 C 14,5 km/h (3 Bft) 100,00 %
17.04.2016 10:34 15,4 C 68 % 1007,9 hPa 0,0 l/m 8,9 km/h (2 Bft) W-SW 248 1 min 0,000 mm 2,6 UV-I 469 W/m 9,5 C 14,1 C 11,3 km/h (2 Bft) 95,83 %
17.04.2016 10:35 15,4 C 70 % 1007,9 hPa 0,0 l/m 11,0 km/h (2 Bft) S-SW 202 1 min 0,000 mm 2,5 UV-I 500 W/m 10,0 C 13,1 C 17,7 km/h (3 Bft) 100,00 %
17.04.2016 10:36 15,6 C 69 % 1007,9 hPa 0,0 l/m 14,0 km/h (3 Bft) S-SW 213 1 min 0,000 mm 2,3 UV-I 491 W/m 9,9 C 12,2 C 17,7 km/h (3 Bft) 91,67 %
17.04.2016 10:37 15,5 C 67 % 1007,9 hPa 0,0 l/m 10,9 km/h (2 Bft) SW 236 1 min 0,000 mm 2,4 UV-I 479 W/m 9,4 C 13,3 C 14,5 km/h (3 Bft) 100,00 %
17.04.2016 10:38 15,4 C 68 % 1007,9 hPa 0,0 l/m 10,9 km/h (2 Bft) W-SW 257 1 min 0,000 mm 2,4 UV-I 450 W/m 9,5 C 13,2 C 16,1 km/h (3 Bft) 93,33 %
17.04.2016 10:39 15,4 C 66 % 1007,9 hPa 0,0 l/m 12,5 km/h (3 Bft) W-SW 257 1 min 0,000 mm 2,4 UV-I 464 W/m 9,1 C 12,5 C 20,9 km/h (4 Bft) 96,15 %
17.04.2016 10:40 15,4 C 67 % 1008,0 hPa 0,0 l/m 14,2 km/h (3 Bft) W 281 1 min 0,000 mm 2,7 UV-I 497 W/m 9,3 C 11,9 C 20,9 km/h (4 Bft) 100,00 %
17.04.2016 10:41 15,4 C 67 % 1008,0 hPa 0,0 l/m 14,3 km/h (3 Bft) SW 220 1 min 0,000 mm 2,2 UV-I 485 W/m 9,3 C 11,9 C 19,3 km/h (3 Bft) 96,55 %
17.04.2016 10:42 15,4 C 67 % 1008,0 hPa 0,0 l/m 10,0 km/h (2 Bft) W-SW 238 1 min 0,000 mm 2,3 UV-I 485 W/m 9,3 C 13,6 C 12,9 km/h (3 Bft) 100,00 %
17.04.2016 10:43 15,5 C 68 % 1008,0 hPa 0,0 l/m 12,8 km/h (3 Bft) W-SW 243 1 min 0,000 mm 2,5 UV-I 549 W/m 9,6 C 12,5 C 19,3 km/h (3 Bft) 96,15 %
17.04.2016 10:44 15,6 C 67 % 1008,0 hPa 0,0 l/m 17,5 km/h (3 Bft) W 275 1 min 0,000 mm 2,8 UV-I 740 W/m 9,5 C 11,2 C 19,3 km/h (3 Bft) 100,00 %
17.04.2016 10:45 15,6 C 66 % 1008,0 hPa 0,0 l/m 13,5 km/h (3 Bft) S-SW 211 1 min 0,000 mm 2,6 UV-I 740 W/m 9,3 C 12,4 C 17,7 km/h (3 Bft) 91,67 %
17.04.2016 10:46 15,6 C 65 % 1008,0 hPa 0,0 l/m 15,3 km/h (3 Bft) SW 215 1 min 0,000 mm 2,3 UV-I 571 W/m 9,0 C 11,8 C 19,3 km/h (3 Bft) 100,00 %
17.04.2016 10:47 15,6 C 66 % 1008,0 hPa 0,0 l/m 13,6 km/h (3 Bft) W-SW 249 1 min 0,000 mm 2,3 UV-I 448 W/m 9,3 C 12,4 C 17,7 km/h (3 Bft) 95,83 %
17.04.2016 10:48 15,6 C 67 % 1008,0 hPa 0,0 l/m 15,0 km/h (3 Bft) W-SW 257 1 min 0,000 mm 2,3 UV-I 446 W/m 9,5 C 11,9 C 24,1 km/h (4 Bft) 96,15 %
17.04.2016 10:49 15,6 C 65 % 1008,1 hPa 0,0 l/m 16,2 km/h (3 Bft) W-SW 255 1 min 0,000 mm 2,3 UV-I 450 W/m 9,0 C 11,5 C 20,9 km/h (4 Bft) 92,59 %
17.04.2016 10:50 15,5 C 65 % 1008,0 hPa 0,0 l/m 12,2 km/h (2 Bft) SW 228 1 min 0,000 mm 2,4 UV-I 427 W/m 8,9 C 12,8 C 19,3 km/h (3 Bft) 96,15 %
17.04.2016 10:51 15,4 C 66 % 1008,0 hPa 0,0 l/m 14,0 km/h (3 Bft) SW 236 1 min 0,000 mm 2,3 UV-I 421 W/m 9,1 C 12,0 C 17,7 km/h (3 Bft) 100,00 %
17.04.2016 10:52 15,3 C 66 % 1008,0 hPa 0,0 l/m 15,2 km/h (3 Bft) S-SW 209 1 min 0,000 mm 2,5 UV-I 429 W/m 9,0 C 11,5 C 19,3 km/h (3 Bft) 91,30 %
17.04.2016 10:53 15,3 C 66 % 1008,0 hPa 0,0 l/m 10,8 km/h (2 Bft) SW 220 1 min 0,000 mm 2,7 UV-I 504 W/m 9,0 C 13,1 C 19,3 km/h (3 Bft) 100,00 %
17.04.2016 10:54 15,3 C 67 % 1008,0 hPa 0,0 l/m 12,5 km/h (3 Bft) W 261 1 min 0,000 mm 2,5 UV-I 452 W/m 9,2 C 12,4 C 16,1 km/h (3 Bft) 100,00 %
17.04.2016 10:55 15,4 C 67 % 1008,0 hPa 0,0 l/m 13,3 km/h (3 Bft) W-SW 257 1 min 0,000 mm 2,5 UV-I 420 W/m 9,3 C 12,3 C 17,7 km/h (3 Bft) 100,00 %
17.04.2016 10:56 15,4 C 67 % 1008,0 hPa 0,0 l/m 9,8 km/h (2 Bft) W-SW 257 1 min 0,000 mm 2,4 UV-I 402 W/m 9,3 C 13,6 C 14,5 km/h (3 Bft) 100,00 %
17.04.2016 10:57 15,4 C 66 % 1008,1 hPa 0,0 l/m 6,0 km/h (2 Bft) SW 233 1 min 0,000 mm 2,3 UV-I 382 W/m 9,1 C 15,4 C 9,7 km/h (2 Bft) 96,30 %
17.04.2016 10:58 15,4 C 66 % 1008,1 hPa 0,0 l/m 5,5 km/h (1 Bft) S-SW 209 0 min 0,000 mm 2,1 UV-I 369 W/m 9,1 C 15,4 C 8,0 km/h (2 Bft) 100,00 %
17.04.2016 10:59 15,3 C 66 % 1008,1 hPa 0,0 l/m 17,9 km/h (3 Bft) SW 214 0 min 0,000 mm 2,1 UV-I 366 W/m 9,0 C 10,7 C 25,7 km/h (4 Bft) 95,83 %
17.04.2016 11:00 15,3 C 65 % 1008,1 hPa 0,0 l/m 15,0 km/h (3 Bft) S-SW 207 0 min 0,305 mm 2,1 UV-I 363 W/m 8,8 C 11,6 C 19,3 km/h (3 Bft) 96,15 %
17.04.2016 11:01 15,3 C 64 % 1008,1 hPa 0,0 l/m 15,8 km/h (3 Bft) W-SW 237 0 min 0,000 mm 2,1 UV-I 372 W/m 8,5 C 11,3 C 22,5 km/h (4 Bft) 95,83 %
17.04.2016 11:02 15,2 C 63 % 1008,1 hPa 0,0 l/m 11,5 km/h (2 Bft) W 265 1 min 0,000 mm 2,2 UV-I 396 W/m 8,2 C 12,7 C 14,5 km/h (3 Bft) 100,00 %
17.04.2016 11:03 15,3 C 66 % 1008,1 hPa 0,0 l/m 13,1 km/h (3 Bft) W-SW 244 1 min 0,000 mm 2,3 UV-I 422 W/m 9,0 C 12,2 C 17,7 km/h (3 Bft) 100,00 %
17.04.2016 11:04 15,3 C 64 % 1008,1 hPa 0,0 l/m 10,0 km/h (2 Bft) W-NW 302 1 min 0,000 mm 2,3 UV-I 421 W/m 8,5 C 13,4 C 12,9 km/h (3 Bft) 100,00 %
17.04.2016 11:05 15,3 C 65 % 1008,2 hPa 0,0 l/m 8,6 km/h (2 Bft) W 263 1 min 0,000 mm 2,2 UV-I 412 W/m 8,8 C 14,1 C 12,9 km/h (3 Bft) 96,30 %
17.04.2016 11:06 15,3 C 64 % 1008,2 hPa 0,0 l/m 10,9 km/h (2 Bft) W 267 1 min 0,000 mm 2,4 UV-I 428 W/m 8,5 C 13,1 C 17,7 km/h (3 Bft) 100,00 %
17.04.2016 11:07 15,3 C 63 % 1008,2 hPa 0,0 l/m 13,0 km/h (3 Bft) W-SW 243 1 min 0,000 mm 2,4 UV-I 447 W/m 8,3 C 12,2 C 19,3 km/h (3 Bft) 100,00 %
17.04.2016 11:08 15,3 C 62 % 1008,2 hPa 0,0 l/m 10,9 km/h (2 Bft) SW 224 1 min 0,000 mm 2,2 UV-I 410 W/m 8,1 C 13,1 C 16,1 km/h (3 Bft) 96,30 %
17.04.2016 11:09 15,3 C 62 % 1008,2 hPa 0,0 l/m 10,3 km/h (2 Bft) SW 235 0 min 0,000 mm 2,2 UV-I 386 W/m 8,1 C 13,3 C 17,7 km/h (3 Bft) 100,00 %
17.04.2016 11:10 15,3 C 62 % 1008,2 hPa 0,0 l/m 12,3 km/h (3 Bft) SW 228 0 min 0,000 mm 2,2 UV-I 384 W/m 8,1 C 12,5 C 19,3 km/h (3 Bft) 100,00 %
17.04.2016 11:11 15,3 C 63 % 1008,2 hPa 0,0 l/m 14,1 km/h (3 Bft) W-SW 257 1 min 0,000 mm 2,2 UV-I 395 W/m 8,3 C 11,9 C 19,3 km/h (3 Bft) 100,00 %
17.04.2016 11:12 15,3 C 63 % 1008,2 hPa 0,0 l/m 10,7 km/h (2 Bft) W-NW 295 0 min 0,000 mm 2,2 UV-I 390 W/m 8,3 C 13,1 C 16,1 km/h (3 Bft) 100,00 %
17.04.2016 11:13 15,3 C 62 % 1008,3 hPa 0,0 l/m 4,9 km/h (1 Bft) W-SW 237 0 min 0,000 mm 2,1 UV-I 365 W/m 8,1 C 15,3 C 9,7 km/h (2 Bft) 100,00 %
17.04.2016 11:14 15,4 C 65 % 1008,3 hPa 0,0 l/m 8,2 km/h (2 Bft) W-SW 237 0 min 0,000 mm 2,1 UV-I 346 W/m 8,9 C 14,4 C 14,5 km/h (3 Bft) 95,83 %
17.04.2016 11:15 15,4 C 62 % 1008,3 hPa 0,0 l/m 7,1 km/h (2 Bft) W-SW 252 0 min 0,000 mm 2,1 UV-I 349 W/m 8,2 C 15,0 C 16,1 km/h (3 Bft) 100,00 %
17.04.2016 11:16 15,3 C 62 % 1008,3 hPa 0,0 l/m 7,9 km/h (2 Bft) W-SW 252 0 min 0,000 mm 2,1 UV-I 353 W/m 8,1 C 14,5 C 11,3 km/h (2 Bft) 100,00 %
17.04.2016 11:17 15,3 C 62 % 1008,3 hPa 0,0 l/m 6,9 km/h (2 Bft) SW 229 0 min 0,000 mm 2,2 UV-I 365 W/m 8,1 C 15,0 C 11,3 km/h (2 Bft) 100,00 %
17.04.2016 11:18 15,3 C 63 % 1008,2 hPa 0,0 l/m 6,2 km/h (2 Bft) W 267 0 min 0,000 mm 2,2 UV-I 371 W/m 8,3 C 15,3 C 9,7 km/h (2 Bft) 100,00 %
17.04.2016 11:19 15,4 C 64 % 1008,3 hPa 0,0 l/m 10,9 km/h (2 Bft) W 259 0 min 0,000 mm 2,3 UV-I 395 W/m 8,6 C 13,2 C 16,1 km/h (3 Bft) 100,00 %
17.04.2016 11:20 15,4 C 63 % 1008,2 hPa 0,0 l/m 14,2 km/h (3 Bft) W 264 1 min 0,000 mm 2,4 UV-I 424 W/m 8,4 C 11,9 C 17,7 km/h (3 Bft) 100,00 %
17.04.2016 11:21 15,5 C 63 % 1008,2 hPa 0,0 l/m 8,6 km/h (2 Bft) SW 227 0 min 0,000 mm 2,3 UV-I 385 W/m 8,5 C 14,3 C 14,5 km/h (3 Bft) 96,15 %
17.04.2016 11:22 15,5 C 64 % 1008,2 hPa 0,0 l/m 10,7 km/h (2 Bft) SW 234 0 min 0,000 mm 2,4 UV-I 382 W/m 8,7 C 13,4 C 16,1 km/h (3 Bft) 100,00 %
17.04.2016 11:23 15,5 C 64 % 1008,2 hPa 0,0 l/m 8,2 km/h (2 Bft) SW 228 1 min 0,000 mm 2,5 UV-I 415 W/m 8,7 C 14,5 C 11,3 km/h (2 Bft) 100,00 %
17.04.2016 11:24 15,6 C 64 % 1008,2 hPa 0,0 l/m 7,0 km/h (2 Bft) S 182 1 min 0,000 mm 2,7 UV-I 440 W/m 8,8 C 15,3 C 14,5 km/h (3 Bft) 96,15 %
17.04.2016 11:25 15,6 C 64 % 1008,2 hPa 0,0 l/m 5,7 km/h (1 Bft) SW 232 1 min 0,000 mm 2,6 UV-I 432 W/m 8,8 C 15,6 C 9,7 km/h (2 Bft) 96,55 %
17.04.2016 11:26 15,7 C 64 % 1008,2 hPa 0,0 l/m 7,6 km/h (2 Bft) W-SW 253 1 min 0,000 mm 2,9 UV-I 443 W/m 8,9 C 15,0 C 11,3 km/h (2 Bft) 100,00 %
17.04.2016 11:27 15,7 C 65 % 1008,2 hPa 0,0 l/m 6,8 km/h (2 Bft) W-SW 238 1 min 0,000 mm 3,5 UV-I 540 W/m 9,1 C 15,5 C 11,3 km/h (2 Bft) 98,33 %
17.04.2016 11:28 15,8 C 64 % 1008,1 hPa 0,0 l/m 7,2 km/h (2 Bft) W-SW 250 1 min 0,000 mm 3,5 UV-I 578 W/m 9,0 C 15,4 C 12,9 km/h (3 Bft) 98,21 %
17.04.2016 11:29 15,9 C 63 % 1008,1 hPa 0,0 l/m 4,1 km/h (1 Bft) W-NW 297 1 min 0,000 mm 3,6 UV-I 592 W/m 8,9 C 15,9 C 8,0 km/h (2 Bft) 100,00 %
17.04.2016 11:30 15,9 C 61 % 1008,1 hPa 0,0 l/m 3,7 km/h (1 Bft) W 273 1 min 0,000 mm 3,2 UV-I 692 W/m 8,4 C 15,9 C 6,4 km/h (2 Bft) 100,00 %
17.04.2016 11:31 15,9 C 61 % 1008,1 hPa 0,0 l/m 11,3 km/h (2 Bft) W 269 1 min 0,000 mm 3,2 UV-I 687 W/m 8,4 C 13,6 C 14,5 km/h (3 Bft) 96,67 %
17.04.2016 11:32 15,8 C 61 % 1008,0 hPa 0,0 l/m 12,3 km/h (3 Bft) W-SW 250 1 min 0,000 mm 3,5 UV-I 687 W/m 8,3 C 13,1 C 17,7 km/h (3 Bft) 100,00 %
17.04.2016 11:33 15,8 C 62 % 1008,1 hPa 0,0 l/m 10,9 km/h (2 Bft) W-SW 250 1 min 0,000 mm 3,5 UV-I 687 W/m 8,5 C 13,6 C 16,1 km/h (3 Bft) 100,00 %
17.04.2016 11:34 15,8 C 62 % 1008,1 hPa 0,0 l/m 11,2 km/h (2 Bft) W-NW 285 1 min 0,000 mm 4,0 UV-I 687 W/m 8,5 C 13,5 C 16,1 km/h (3 Bft) 100,00 %
17.04.2016 11:35 15,9 C 62 % 1008,1 hPa 0,0 l/m 10,2 km/h (2 Bft) W-NW 292 1 min 0,000 mm 3,0 UV-I 687 W/m 8,6 C 14,0 C 16,1 km/h (3 Bft) 100,00 %
17.04.2016 11:36 15,9 C 60 % 1008,1 hPa 0,0 l/m 6,9 km/h (2 Bft) N-NW 328 1 min 0,000 mm 3,6 UV-I 687 W/m 8,1 C 15,6 C 9,7 km/h (2 Bft) 100,00 %
17.04.2016 11:37 16,0 C 61 % 1008,1 hPa 0,0 l/m 5,4 km/h (1 Bft) W-SW 253 1 min 0,000 mm 4,3 UV-I 756 W/m 8,5 C 16,0 C 11,3 km/h (2 Bft) 96,67 %
17.04.2016 11:38 16,2 C 62 % 1008,1 hPa 0,0 l/m 9,2 km/h (2 Bft) W 273 1 min 0,000 mm 4,5 UV-I 924 W/m 8,9 C 14,8 C 14,5 km/h (3 Bft) 100,00 %
17.04.2016 11:39 16,3 C 60 % 1008,2 hPa 0,0 l/m 11,9 km/h (2 Bft) W-NW 284 1 min 0,000 mm 4,0 UV-I 932 W/m 8,5 C 13,8 C 16,1 km/h (3 Bft) 100,00 %
17.04.2016 11:40 16,3 C 59 % 1008,2 hPa 0,0 l/m 9,9 km/h (2 Bft) W 269 0 min 0,000 mm 2,9 UV-I 376 W/m 8,3 C 14,6 C 14,5 km/h (3 Bft) 100,00 %
17.04.2016 11:41 16,2 C 60 % 1008,3 hPa 0,0 l/m 8,0 km/h (2 Bft) W 259 0 min 0,000 mm 3,1 UV-I 410 W/m 8,4 C 15,4 C 11,3 km/h (2 Bft) 98,35 %
17.04.2016 11:42 16,2 C 60 % 1008,3 hPa 0,0 l/m 13,3 km/h (3 Bft) W-SW 252 1 min 0,000 mm 3,0 UV-I 427 W/m 8,4 C 13,2 C 19,3 km/h (3 Bft) 95,12 %
17.04.2016 11:43 16,1 C 60 % 1008,3 hPa 0,0 l/m 11,8 km/h (2 Bft) SW 215 1 min 0,000 mm 3,3 UV-I 427 W/m 8,3 C 13,6 C 19,3 km/h (3 Bft) 100,00 %
17.04.2016 11:44 16,1 C 60 % 1008,3 hPa 0,0 l/m 13,8 km/h (3 Bft) W-SW 251 1 min 0,000 mm 3,3 UV-I 500 W/m 8,3 C 12,9 C 20,9 km/h (4 Bft) 100,00 %
17.04.2016 11:45 16,0 C 60 % 1008,3 hPa 0,0 l/m 12,1 km/h (2 Bft) W 262 1 min 0,000 mm 3,7 UV-I 536 W/m 8,2 C 13,4 C 16,1 km/h (3 Bft) 100,00 %
17.04.2016 11:46 15,9 C 60 % 1008,3 hPa 0,0 l/m 14,8 km/h (3 Bft) SW 234 1 min 0,000 mm 3,4 UV-I 536 W/m 8,1 C 12,3 C 19,3 km/h (3 Bft) 100,00 %
17.04.2016 11:47 15,8 C 61 % 1008,4 hPa 0,0 l/m 9,8 km/h (2 Bft) N-NW 333 1 min 0,000 mm 3,1 UV-I 536 W/m 8,3 C 14,1 C 19,3 km/h (3 Bft) 95,83 %
17.04.2016 11:48 15,8 C 61 % 1008,4 hPa 0,0 l/m 10,7 km/h (2 Bft) W-SW 257 1 min 0,000 mm 3,3 UV-I 536 W/m 8,3 C 13,7 C 14,5 km/h (3 Bft) 83,33 %
17.04.2016 11:49 15,8 C 61 % 1008,4 hPa 0,0 l/m 9,6 km/h (2 Bft) W 273 1 min 0,000 mm 3,5 UV-I 536 W/m 8,3 C 14,2 C 12,9 km/h (3 Bft) 100,00 %
17.04.2016 11:50 15,9 C 61 % 1008,3 hPa 0,0 l/m 9,4 km/h (2 Bft) W-SW 244 1 min 0,000 mm 3,5 UV-I 508 W/m 8,4 C 14,4 C 17,7 km/h (3 Bft) 100,00 %
17.04.2016 11:51 15,9 C 61 % 1008,3 hPa 0,0 l/m 7,7 km/h (2 Bft) SW 228 1 min 0,000 mm 3,4 UV-I 496 W/m 8,4 C 15,2 C 14,5 km/h (3 Bft) 100,00 %
17.04.2016 11:52 15,9 C 62 % 1008,4 hPa 0,0 l/m 13,3 km/h (3 Bft) W-SW 252 1 min 0,000 mm 3,6 UV-I 496 W/m 8,6 C 12,8 C 19,3 km/h (3 Bft) 86,67 %
17.04.2016 11:53 16,0 C 62 % 1008,3 hPa 0,0 l/m 13,4 km/h (3 Bft) SW 236 1 min 0,000 mm 3,2 UV-I 496 W/m 8,7 C 12,9 C 17,7 km/h (3 Bft) 100,00 %
17.04.2016 11:54 16,1 C 62 % 1008,3 hPa 0,0 l/m 7,8 km/h (2 Bft) SW 236 1 min 0,000 mm 4,5 UV-I 496 W/m 8,8 C 15,4 C 11,3 km/h (2 Bft) 100,00 %
17.04.2016 11:55 16,1 C 61 % 1008,3 hPa 0,0 l/m 5,6 km/h (1 Bft) S-SW 200 1 min 0,000 mm 4,6 UV-I 496 W/m 8,6 C 16,1 C 9,7 km/h (2 Bft) 100,00 %
17.04.2016 11:56 16,1 C 62 % 1008,3 hPa 0,0 l/m 9,1 km/h (2 Bft) SW 234 1 min 0,000 mm 4,6 UV-I 496 W/m 8,8 C 14,7 C 16,1 km/h (3 Bft) 100,00 %
17.04.2016 11:57 16,2 C 63 % 1008,3 hPa 0,0 l/m 10,9 km/h (2 Bft) SW 233 1 min 0,000 mm 4,6 UV-I 841 W/m 9,1 C 14,1 C 17,7 km/h (3 Bft) 100,00 %
17.04.2016 11:58 16,2 C 63 % 1008,3 hPa 0,0 l/m 6,9 km/h (2 Bft) W 269 1 min 0,000 mm 4,5 UV-I 894 W/m 9,1 C 15,9 C 11,3 km/h (2 Bft) 100,00 %
17.04.2016 11:59 16,3 C 63 % 1008,3 hPa 0,0 l/m 8,7 km/h (2 Bft) W-NW 288 1 min 0,000 mm 3,7 UV-I 805 W/m 9,2 C 15,1 C 12,9 km/h (3 Bft) 100,00 %
17.04.2016 12:00 16,4 C 62 % 1008,3 hPa 0,0 l/m 5,4 km/h (1 Bft) W-SW 248 0 min 0,000 mm 4,6 UV-I 417 W/m 9,1 C 16,4 C 11,3 km/h (2 Bft) 95,83 %
17.04.2016 12:01 16,6 C 64 % 1008,3 hPa 0,0 l/m 9,4 km/h (2 Bft) W-SW 238 0 min 0,330 mm 4,5 UV-I 417 W/m 9,8 C 15,1 C 12,9 km/h (3 Bft) 100,00 %
17.04.2016 12:02 16,6 C 61 % 1008,3 hPa 0,0 l/m 11,6 km/h (2 Bft) S-SW 209 0 min 0,000 mm 4,7 UV-I 417 W/m 9,0 C 14,3 C 19,3 km/h (3 Bft) 100,00 %
17.04.2016 12:03 16,6 C 61 % 1008,2 hPa 0,0 l/m 9,7 km/h (2 Bft) W-SW 251 1 min 0,000 mm 4,5 UV-I 778 W/m 9,0 C 15,0 C 14,5 km/h (3 Bft) 100,00 %
17.04.2016 12:04 16,6 C 62 % 1008,3 hPa 0,0 l/m 5,7 km/h (1 Bft) S-SO 153 1 min 0,000 mm 3,6 UV-I 878 W/m 9,3 C 16,6 C 12,9 km/h (3 Bft) 96,15 %
17.04.2016 12:05 16,6 C 60 % 1008,3 hPa 0,0 l/m 12,4 km/h (3 Bft) S 185 1 min 0,000 mm 4,6 UV-I 492 W/m 8,8 C 14,0 C 17,7 km/h (3 Bft) 96,15 %
17.04.2016 12:06 16,5 C 60 % 1008,3 hPa 0,0 l/m 16,6 km/h (3 Bft) SW 216 1 min 0,000 mm 4,9 UV-I 492 W/m 8,7 C 12,5 C 20,9 km/h (4 Bft) 100,00 %
17.04.2016 12:07 16,4 C 61 % 1008,2 hPa 0,0 l/m 15,4 km/h (3 Bft) S-SW 203 1 min 0,000 mm 4,8 UV-I 492 W/m 8,9 C 12,8 C 22,5 km/h (4 Bft) 100,00 %
17.04.2016 12:08 16,3 C 61 % 1008,3 hPa 0,0 l/m 6,9 km/h (2 Bft) SW 234 1 min 0,000 mm 3,8 UV-I 489 W/m 8,8 C 16,0 C 9,7 km/h (2 Bft) 92,86 %
17.04.2016 12:09 16,2 C 64 % 1008,3 hPa 0,0 l/m 5,0 km/h (1 Bft) W-SW 245 1 min 0,000 mm 3,4 UV-I 524 W/m 9,4 C 16,2 C 9,7 km/h (2 Bft) 100,00 %
17.04.2016 12:10 16,3 C 61 % 1008,3 hPa 0,0 l/m 10,4 km/h (2 Bft) W-SW 257 1 min 0,000 mm 4,0 UV-I 526 W/m 8,8 C 14,4 C 16,1 km/h (3 Bft) 100,00 %
17.04.2016 12:11 16,4 C 62 % 1008,4 hPa 0,0 l/m 4,9 km/h (1 Bft) W-SW 242 1 min 0,000 mm 3,4 UV-I 496 W/m 9,1 C 16,4 C 8,0 km/h (2 Bft) 96,67 %
17.04.2016 12:12 16,4 C 61 % 1008,3 hPa 0,0 l/m 9,0 km/h (2 Bft) SW 218 1 min 0,000 mm 3,0 UV-I 430 W/m 8,9 C 15,1 C 16,1 km/h (3 Bft) 100,00 %
17.04.2016 12:13 16,3 C 61 % 1008,4 hPa 0,0 l/m 11,0 km/h (2 Bft) W 260 1 min 0,000 mm 3,1 UV-I 442 W/m 8,8 C 14,1 C 16,1 km/h (3 Bft) 95,83 %
17.04.2016 12:14 16,3 C 61 % 1008,4 hPa 0,0 l/m 9,3 km/h (2 Bft) W 281 1 min 0,000 mm 3,0 UV-I 449 W/m 8,8 C 14,9 C 16,1 km/h (3 Bft) 95,65 %
17.04.2016 12:15 16,3 C 60 % 1008,3 hPa 0,0 l/m 11,9 km/h (2 Bft) W-SW 251 1 min 0,000 mm 2,9 UV-I 429 W/m 8,5 C 13,8 C 16,1 km/h (3 Bft) 100,00 %
17.04.2016 12:16 16,3 C 61 % 1008,4 hPa 0,0 l/m 11,0 km/h (2 Bft) W-SW 254 0 min 0,000 mm 2,8 UV-I 402 W/m 8,8 C 14,1 C 16,1 km/h (3 Bft) 96,15 %
17.04.2016 12:17 16,2 C 59 % 1008,3 hPa 0,0 l/m 11,6 km/h (2 Bft) W-SW 255 0 min 0,000 mm 2,8 UV-I 402 W/m 8,2 C 13,8 C 16,1 km/h (3 Bft) 100,00 %
17.04.2016 12:18 16,2 C 59 % 1008,3 hPa 0,0 l/m 14,0 km/h (3 Bft) W-SW 254 0 min 0,000 mm 3,0 UV-I 426 W/m 8,2 C 13,0 C 19,3 km/h (3 Bft) 95,65 %
17.04.2016 12:19 16,2 C 60 % 1008,3 hPa 0,0 l/m 13,0 km/h (3 Bft) W-NW 296 1 min 0,000 mm 3,1 UV-I 455 W/m 8,4 C 13,3 C 17,7 km/h (3 Bft) 100,00 %
17.04.2016 12:20 16,1 C 61 % 1008,4 hPa 0,0 l/m 10,1 km/h (2 Bft) W-SW 246 1 min 0,000 mm 3,0 UV-I 456 W/m 8,6 C 14,3 C 14,5 km/h (3 Bft) 96,15 %
17.04.2016 12:21 16,2 C 63 % 1008,4 hPa 0,0 l/m 7,2 km/h (2 Bft) SW 215 1 min 0,000 mm 3,1 UV-I 464 W/m 9,1 C 15,8 C 11,3 km/h (2 Bft) 100,00 %
17.04.2016 12:22 16,2 C 60 % 1008,4 hPa 0,0 l/m 6,7 km/h (2 Bft) SW 225 1 min 0,000 mm 3,0 UV-I 458 W/m 8,4 C 16,1 C 9,7 km/h (2 Bft) 96,55 %
17.04.2016 12:23 16,1 C 61 % 1008,3 hPa 0,0 l/m 7,3 km/h (2 Bft) S 188 1 min 0,000 mm 3,0 UV-I 452 W/m 8,6 C 15,6 C 12,9 km/h (3 Bft) 96,30 %
17.04.2016 12:24 16,1 C 62 % 1008,4 hPa 0,0 l/m 5,0 km/h (1 Bft) S 171 1 min 0,000 mm 3,0 UV-I 438 W/m 8,8 C 16,1 C 8,0 km/h (2 Bft) 100,00 %
17.04.2016 12:25 16,0 C 61 % 1008,3 hPa 0,0 l/m 6,3 km/h (2 Bft) S-SO 166 0 min 0,000 mm 3,0 UV-I 428 W/m 8,5 C 16,0 C 11,3 km/h (2 Bft) 95,65 %
17.04.2016 12:26 16,0 C 62 % 1008,4 hPa 0,0 l/m 3,6 km/h (1 Bft) W-SW 256 1 min 0,000 mm 3,2 UV-I 500 W/m 8,7 C 16,0 C 6,4 km/h (2 Bft) 100,00 %
17.04.2016 12:27 16,1 C 61 % 1008,4 hPa 0,0 l/m 2,7 km/h (1 Bft) W-SW 248 1 min 0,000 mm 3,3 UV-I 479 W/m 8,6 C 16,1 C 4,8 km/h (1 Bft) 96,15 %
17.04.2016 12:28 16,1 C 61 % 1008,4 hPa 0,0 l/m 3,1 km/h (1 Bft) W-SW 241 1 min 0,000 mm 3,2 UV-I 501 W/m 8,6 C 16,1 C 4,8 km/h (1 Bft) 100,00 %
17.04.2016 12:29 16,2 C 62 % 1008,4 hPa 0,0 l/m 8,1 km/h (2 Bft) W-SW 257 1 min 0,000 mm 3,1 UV-I 461 W/m 8,9 C 15,3 C 12,9 km/h (3 Bft) 96,15 %
17.04.2016 12:30 16,3 C 61 % 1008,4 hPa 0,0 l/m 14,0 km/h (3 Bft) W 280 1 min 0,000 mm 3,1 UV-I 457 W/m 8,8 C 13,1 C 19,3 km/h (3 Bft) 96,30 %
17.04.2016 12:31 16,3 C 60 % 1008,4 hPa 0,0 l/m 6,6 km/h (2 Bft) W 266 1 min 0,000 mm 3,2 UV-I 457 W/m 8,5 C 16,2 C 9,7 km/h (2 Bft) 96,15 %
17.04.2016 12:32 16,3 C 61 % 1008,3 hPa 0,0 l/m 6,5 km/h (2 Bft) NW 323 1 min 0,000 mm 3,2 UV-I 457 W/m 8,8 C 16,3 C 9,7 km/h (2 Bft) 100,00 %
17.04.2016 12:33 16,3 C 62 % 1008,3 hPa 0,0 l/m 3,0 km/h (1 Bft) NW 323 0 min 0,000 mm 2,9 UV-I 406 W/m 9,0 C 16,3 C 4,8 km/h (1 Bft) 96,88 %
17.04.2016 12:34 16,4 C 63 % 1008,3 hPa 0,0 l/m 2,5 km/h (1 Bft) W-NW 290 0 min 0,000 mm 2,9 UV-I 396 W/m 9,3 C 16,4 C 4,8 km/h (1 Bft) 100,00 %
17.04.2016 12:35 16,4 C 62 % 1008,3 hPa 0,0 l/m 3,8 km/h (1 Bft) W 273 0 min 0,000 mm 2,9 UV-I 404 W/m 9,1 C 16,4 C 6,4 km/h (2 Bft) 100,00 %
17.04.2016 12:36 16,5 C 64 % 1008,3 hPa 0,0 l/m 3,5 km/h (1 Bft) W-NW 288 0 min 0,000 mm 3,0 UV-I 425 W/m 9,7 C 16,5 C 4,8 km/h (1 Bft) 100,00 %
17.04.2016 12:40 16,4 C 60 % 1008,2 hPa 0,0 l/m 3,2 km/h (1 Bft) W-NW 292 4 min 0,000 mm 3,3 UV-I 455 W/m 8,6 C 16,4 C 9,7 km/h (2 Bft) 99,12 %
17.04.2016 12:41 16,4 C 61 % 1008,2 hPa 0,0 l/m 2,1 km/h (1 Bft) W 279 1 min 0,000 mm 3,2 UV-I 461 W/m 8,9 C 16,4 C 3,2 km/h (1 Bft) 96,69 %
17.04.2016 12:42 16,4 C 63 % 1008,2 hPa 0,0 l/m 1,4 km/h (1 Bft) W 279 1 min 0,000 mm 3,2 UV-I 470 W/m 9,3 C 16,4 C 1,6 km/h (1 Bft) 96,77 %
17.04.2016 12:43 16,6 C 62 % 1008,2 hPa 0,0 l/m 3,1 km/h (1 Bft) W-SW 248 1 min 0,000 mm 3,1 UV-I 456 W/m 9,3 C 16,6 C 11,3 km/h (2 Bft) 100,00 %
17.04.2016 12:44 16,6 C 60 % 1008,3 hPa 0,0 l/m 4,4 km/h (1 Bft) W 274 0 min 0,000 mm 2,9 UV-I 408 W/m 8,8 C 16,6 C 11,3 km/h (2 Bft) 100,00 %
17.04.2016 12:45 16,6 C 62 % 1008,2 hPa 0,0 l/m 6,0 km/h (2 Bft) W-SW 250 0 min 0,000 mm 2,8 UV-I 392 W/m 9,3 C 16,6 C 9,7 km/h (2 Bft) 100,00 %
17.04.2016 12:50 16,3 C 60 % 1008,2 hPa 0,0 l/m 4,8 km/h (1 Bft) S-SW 202 5 min 0,000 mm 3,1 UV-I 443 W/m 8,5 C 16,3 C 9,7 km/h (2 Bft) 98,25 %
17.04.2016 12:52 16,3 C 60 % 1008,2 hPa 0,0 l/m 7,2 km/h (2 Bft) S-SW 209 2 min 0,000 mm 3,0 UV-I 441 W/m 8,5 C 15,9 C 8,0 km/h (2 Bft) 100,00 %
17.04.2016 12:53 16,3 C 60 % 1008,2 hPa 0,0 l/m 9,8 km/h (2 Bft) SW 227 1 min 0,000 mm 3,0 UV-I 438 W/m 8,5 C 14,6 C 12,9 km/h (3 Bft) 100,00 %
17.04.2016 12:54 16,3 C 60 % 1008,2 hPa 0,0 l/m 7,8 km/h (2 Bft) SW 227 0 min 0,000 mm 2,9 UV-I 429 W/m 8,5 C 15,6 C 9,7 km/h (2 Bft) 100,00 %
17.04.2016 12:55 16,4 C 61 % 1008,3 hPa 0,0 l/m 6,1 km/h (2 Bft) W-SW 256 0 min 0,000 mm 2,8 UV-I 415 W/m 8,9 C 16,4 C 11,3 km/h (2 Bft) 100,00 %
17.04.2016 12:56 16,4 C 59 % 1008,2 hPa 0,0 l/m 2,8 km/h (1 Bft) S-SO 168 0 min 0,000 mm 2,6 UV-I 400 W/m 8,4 C 16,4 C 4,8 km/h (1 Bft) 93,33 %
17.04.2016 12:57 16,4 C 61 % 1008,2 hPa 0,0 l/m 2,2 km/h (1 Bft) S-SO 159 0 min 0,000 mm 2,4 UV-I 361 W/m 8,9 C 16,4 C 6,4 km/h (2 Bft) 100,00 %
17.04.2016 12:58 16,4 C 61 % 1008,2 hPa 0,0 l/m 8,5 km/h (2 Bft) SW 217 0 min 0,000 mm 2,2 UV-I 330 W/m 8,9 C 15,3 C 11,3 km/h (2 Bft) 100,00 %
17.04.2016 12:59 16,4 C 61 % 1008,2 hPa 0,0 l/m 3,3 km/h (1 Bft) SW 215 0 min 0,000 mm 2,1 UV-I 311 W/m 8,9 C 16,4 C 6,4 km/h (2 Bft) 100,00 %
17.04.2016 13:00 16,5 C 61 % 1008,2 hPa 0,0 l/m 7,8 km/h (2 Bft) SW 231 0 min 0,000 mm 2,0 UV-I 304 W/m 9,0 C 15,8 C 12,9 km/h (3 Bft) 100,00 %
17.04.2016 13:01 16,5 C 60 % 1008,3 hPa 0,0 l/m 11,1 km/h (2 Bft) W-SW 245 0 min 0,305 mm 2,0 UV-I 312 W/m 8,7 C 14,3 C 12,9 km/h (3 Bft) 100,00 %
17.04.2016 13:02 16,6 C 60 % 1008,3 hPa 0,0 l/m 5,1 km/h (1 Bft) W-SW 245 0 min 0,000 mm 2,1 UV-I 335 W/m 8,8 C 16,6 C 9,7 km/h (2 Bft) 100,00 %
17.04.2016 13:03 16,6 C 58 % 1008,3 hPa 0,0 l/m 5,2 km/h (1 Bft) W 261 0 min 0,000 mm 2,4 UV-I 366 W/m 8,3 C 16,6 C 8,0 km/h (2 Bft) 100,00 %
17.04.2016 13:04 16,5 C 60 % 1008,3 hPa 0,0 l/m 1,7 km/h (1 Bft) S 190 0 min 0,000 mm 2,5 UV-I 384 W/m 8,7 C 16,5 C 4,8 km/h (1 Bft) 100,00 %
17.04.2016 13:05 16,6 C 60 % 1008,3 hPa 0,0 l/m 6,4 km/h (2 Bft) SW 232 0 min 0,000 mm 2,6 UV-I 386 W/m 8,8 C 16,6 C 9,7 km/h (2 Bft) 92,86 %
17.04.2016 13:06 16,6 C 59 % 1008,2 hPa 0,0 l/m 4,7 km/h (1 Bft) W 267 0 min 0,000 mm 2,5 UV-I 376 W/m 8,6 C 16,6 C 6,4 km/h (2 Bft) 100,00 %
17.04.2016 13:07 16,6 C 60 % 1008,2 hPa 0,0 l/m 2,5 km/h (1 Bft) W 259 0 min 0,000 mm 2,5 UV-I 371 W/m 8,8 C 16,6 C 4,8 km/h (1 Bft) 96,55 %
17.04.2016 13:08 16,6 C 61 % 1008,3 hPa 0,0 l/m 4,3 km/h (1 Bft) W-NW 291 0 min 0,000 mm 2,5 UV-I 373 W/m 9,0 C 16,6 C 6,4 km/h (2 Bft) 100,00 %
17.04.2016 13:09 16,6 C 59 % 1008,2 hPa 0,0 l/m 3,5 km/h (1 Bft) NW 325 0 min 0,000 mm 2,4 UV-I 363 W/m 8,6 C 16,6 C 4,8 km/h (1 Bft) 100,00 %
17.04.2016 13:10 16,6 C 62 % 1008,3 hPa 0,0 l/m 3,2 km/h (1 Bft) W-NW 296 0 min 0,000 mm 2,4 UV-I 347 W/m 9,3 C 16,6 C 8,0 km/h (2 Bft) 100,00 %
17.04.2016 13:11 16,6 C 61 % 1008,3 hPa 0,0 l/m 2,8 km/h (1 Bft) NW 311 0 min 0,000 mm 2,4 UV-I 351 W/m 9,0 C 16,6 C 4,8 km/h (1 Bft) 96,15 %
17.04.2016 13:12 16,6 C 60 % 1008,3 hPa 0,0 l/m 5,2 km/h (1 Bft) W-SW 238 0 min 0,000 mm 2,4 UV-I 356 W/m 8,8 C 16,6 C 11,3 km/h (2 Bft) 100,00 %
17.04.2016 13:13 16,7 C 60 % 1008,3 hPa 0,0 l/m 3,8 km/h (1 Bft) W-NW 283 0 min 0,000 mm 2,2 UV-I 342 W/m 8,9 C 16,7 C 6,4 km/h (2 Bft) 96,30 %
17.04.2016 13:14 16,7 C 59 % 1008,3 hPa 0,0 l/m 5,2 km/h (1 Bft) W-NW 294 0 min 0,000 mm 2,1 UV-I 323 W/m 8,6 C 16,7 C 8,0 km/h (2 Bft) 100,00 %
17.04.2016 13:15 16,7 C 61 % 1008,3 hPa 0,0 l/m 3,3 km/h (1 Bft) W-SW 238 0 min 0,000 mm 2,0 UV-I 306 W/m 9,1 C 16,7 C 8,0 km/h (2 Bft) 100,00 %
17.04.2016 13:16 16,7 C 59 % 1008,4 hPa 0,0 l/m 5,9 km/h (2 Bft) W-SW 258 0 min 0,000 mm 2,0 UV-I 290 W/m 8,6 C 16,7 C 8,0 km/h (2 Bft) 95,65 %
17.04.2016 13:17 16,7 C 59 % 1008,4 hPa 0,0 l/m 2,6 km/h (1 Bft) W-SW 258 0 min 0,000 mm 1,9 UV-I 277 W/m 8,6 C 16,7 C 3,2 km/h (1 Bft) 100,00 %
17.04.2016 13:18 16,7 C 60 % 1008,4 hPa 0,0 l/m 1,4 km/h (1 Bft) W-SW 258 0 min 0,000 mm 1,8 UV-I 265 W/m 8,9 C 16,7 C 3,2 km/h (1 Bft) 100,00 %
17.04.2016 13:19 16,7 C 60 % 1008,4 hPa 0,0 l/m 2,6 km/h (1 Bft) W-NW 284 0 min 0,000 mm 1,7 UV-I 250 W/m 8,9 C 16,7 C 6,4 km/h (2 Bft) 100,00 %
17.04.2016 13:20 16,7 C 59 % 1008,4 hPa 0,0 l/m 3,8 km/h (1 Bft) W-SW 250 0 min 0,000 mm 1,6 UV-I 238 W/m 8,6 C 16,7 C 4,8 km/h (1 Bft) 100,00 %
17.04.2016 13:21 16,7 C 61 % 1008,4 hPa 0,0 l/m 4,2 km/h (1 Bft) SW 223 0 min 0,000 mm 1,6 UV-I 236 W/m 9,1 C 16,7 C 4,8 km/h (1 Bft) 100,00 %
17.04.2016 13:22 16,7 C 61 % 1008,4 hPa 0,0 l/m 4,6 km/h (1 Bft) S-SW 194 0 min 0,000 mm 1,6 UV-I 236 W/m 9,1 C 16,7 C 6,4 km/h (2 Bft) 100,00 %
17.04.2016 13:23 16,7 C 60 % 1008,4 hPa 0,0 l/m 9,7 km/h (2 Bft) SW 232 0 min 0,000 mm 1,6 UV-I 235 W/m 8,9 C 15,1 C 12,9 km/h (3 Bft) 100,00 %
17.04.2016 13:24 16,7 C 58 % 1008,4 hPa 0,0 l/m 11,3 km/h (2 Bft) W 261 0 min 0,000 mm 1,5 UV-I 231 W/m 8,4 C 14,5 C 14,5 km/h (3 Bft) 100,00 %
17.04.2016 13:25 16,6 C 59 % 1008,4 hPa 0,0 l/m 6,1 km/h (2 Bft) N-NO 15 0 min 0,000 mm 1,5 UV-I 223 W/m 8,6 C 16,6 C 9,7 km/h (2 Bft) 100,00 %
17.04.2016 13:26 16,6 C 61 % 1008,4 hPa 0,0 l/m 5,3 km/h (1 Bft) NW 322 0 min 0,000 mm 1,4 UV-I 218 W/m 9,0 C 16,6 C 8,0 km/h (2 Bft) 100,00 %
17.04.2016 13:27 16,6 C 61 % 1008,4 hPa 0,0 l/m 2,6 km/h (1 Bft) N-NO 26 0 min 0,000 mm 1,4 UV-I 213 W/m 9,0 C 16,6 C 4,8 km/h (1 Bft) 100,00 %
17.04.2016 13:28 16,4 C 60 % 1008,4 hPa 0,0 l/m 3,1 km/h (1 Bft) N-NO 26 0 min 0,000 mm 1,4 UV-I 210 W/m 8,6 C 16,4 C 4,8 km/h (1 Bft) 95,65 %
17.04.2016 13:29 16,4 C 61 % 1008,4 hPa 0,0 l/m 2,3 km/h (1 Bft) N-NO 26 0 min 0,000 mm 1,4 UV-I 204 W/m 8,9 C 16,4 C 4,8 km/h (1 Bft) 100,00 %
17.04.2016 13:30 16,4 C 63 % 1008,4 hPa 0,0 l/m 2,1 km/h (1 Bft) N-NW 348 0 min 0,000 mm 1,3 UV-I 195 W/m 9,3 C 16,4 C 4,8 km/h (1 Bft) 95,65 %
17.04.2016 13:31 16,3 C 64 % 1008,4 hPa 0,0 l/m 2,1 km/h (1 Bft) NW 323 0 min 0,000 mm 1,2 UV-I 182 W/m 9,5 C 16,3 C 3,2 km/h (1 Bft) 100,00 %
17.04.2016 13:32 16,2 C 63 % 1008,4 hPa 0,0 l/m 2,2 km/h (1 Bft) NW 313 0 min 0,000 mm 1,1 UV-I 169 W/m 9,1 C 16,2 C 3,2 km/h (1 Bft) 100,00 %
17.04.2016 13:33 16,2 C 65 % 1008,4 hPa 0,0 l/m 2,4 km/h (1 Bft) NW 316 0 min 0,000 mm 1,1 UV-I 162 W/m 9,6 C 16,2 C 4,8 km/h (1 Bft) 100,00 %
17.04.2016 13:34 16,2 C 62 % 1008,4 hPa 0,0 l/m 0,9 km/h (0 Bft) NW 316 0 min 0,000 mm 1,0 UV-I 160 W/m 8,9 C 16,2 C 3,2 km/h (1 Bft) 100,00 %
17.04.2016 13:35 16,2 C 67 % 1008,4 hPa 0,0 l/m 1,8 km/h (1 Bft) NW 316 0 min 0,000 mm 1,0 UV-I 160 W/m 10,1 C 16,2 C 3,2 km/h (1 Bft) 100,00 %
17.04.2016 13:36 16,1 C 63 % 1008,4 hPa 0,0 l/m 2,5 km/h (1 Bft) NW 316 0 min 0,000 mm 1,0 UV-I 158 W/m 9,1 C 16,1 C 4,8 km/h (1 Bft) 100,00 %
17.04.2016 13:37 16,1 C 64 % 1008,4 hPa 0,0 l/m 1,8 km/h (1 Bft) N-NW 341 0 min 0,000 mm 1,0 UV-I 156 W/m 9,3 C 16,1 C 4,8 km/h (1 Bft) 96,55 %
17.04.2016 13:38 16,1 C 64 % 1008,4 hPa 0,0 l/m 6,1 km/h (2 Bft) W-SW 257 0 min 0,000 mm 1,0 UV-I 155 W/m 9,3 C 16,1 C 11,3 km/h (2 Bft) 100,00 %
17.04.2016 13:39 16,1 C 64 % 1008,4 hPa 0,0 l/m 4,1 km/h (1 Bft) W-SW 257 0 min 0,000 mm 1,0 UV-I 156 W/m 9,3 C 16,1 C 9,7 km/h (2 Bft) 95,65 %
17.04.2016 13:40 16,1 C 63 % 1008,4 hPa 0,0 l/m 3,1 km/h (1 Bft) W 277 0 min 0,000 mm 1,0 UV-I 161 W/m 9,1 C 16,1 C 4,8 km/h (1 Bft) 100,00 %
17.04.2016 13:41 16,1 C 63 % 1008,4 hPa 0,0 l/m 3,5 km/h (1 Bft) N-NW 328 0 min 0,000 mm 1,1 UV-I 171 W/m 9,1 C 16,1 C 6,4 km/h (2 Bft) 100,00 %
17.04.2016 13:42 16,1 C 62 % 1008,4 hPa 0,0 l/m 5,9 km/h (2 Bft) N 351 0 min 0,000 mm 1,2 UV-I 183 W/m 8,8 C 16,1 C 9,7 km/h (2 Bft) 100,00 %
17.04.2016 13:43 16,1 C 61 % 1008,4 hPa 0,0 l/m 4,1 km/h (1 Bft) W-NW 301 0 min 0,000 mm 1,3 UV-I 199 W/m 8,6 C 16,1 C 6,4 km/h (2 Bft) 100,00 %
17.04.2016 13:44 16,1 C 63 % 1008,4 hPa 0,0 l/m 3,4 km/h (1 Bft) NW 324 0 min 0,000 mm 1,4 UV-I 213 W/m 9,1 C 16,1 C 6,4 km/h (2 Bft) 100,00 %
17.04.2016 13:45 16,1 C 63 % 1008,4 hPa 0,0 l/m 3,0 km/h (1 Bft) W-NW 303 0 min 0,000 mm 1,5 UV-I 231 W/m 9,1 C 16,1 C 4,8 km/h (1 Bft) 100,00 %
17.04.2016 13:46 16,0 C 63 % 1008,4 hPa 0,0 l/m 4,6 km/h (1 Bft) NW 313 0 min 0,000 mm 1,6 UV-I 252 W/m 9,0 C 16,0 C 8,0 km/h (2 Bft) 100,00 %
17.04.2016 13:47 16,0 C 63 % 1008,3 hPa 0,0 l/m 4,2 km/h (1 Bft) NW 304 0 min 0,000 mm 1,7 UV-I 264 W/m 9,0 C 16,0 C 8,0 km/h (2 Bft) 100,00 %
17.04.2016 13:48 16,0 C 63 % 1008,3 hPa 0,0 l/m 7,3 km/h (2 Bft) W-NW 298 0 min 0,000 mm 1,7 UV-I 258 W/m 9,0 C 15,5 C 12,9 km/h (3 Bft) 100,00 %
17.04.2016 13:49 16,1 C 64 % 1008,4 hPa 0,0 l/m 3,1 km/h (1 Bft) W-NW 300 0 min 0,000 mm 1,5 UV-I 240 W/m 9,3 C 16,1 C 4,8 km/h (1 Bft) 100,00 %
17.04.2016 13:50 16,1 C 65 % 1008,4 hPa 0,0 l/m 3,0 km/h (1 Bft) W-SW 256 0 min 0,000 mm 1,4 UV-I 211 W/m 9,5 C 16,1 C 8,0 km/h (2 Bft) 100,00 %
17.04.2016 13:51 16,1 C 67 % 1008,5 hPa 0,0 l/m 4,3 km/h (1 Bft) W 277 0 min 0,000 mm 1,3 UV-I 195 W/m 10,0 C 16,1 C 6,4 km/h (2 Bft) 100,00 %
17.04.2016 13:52 16,1 C 65 % 1008,5 hPa 0,0 l/m 2,3 km/h (1 Bft) W 273 0 min 0,000 mm 1,2 UV-I 183 W/m 9,5 C 16,1 C 3,2 km/h (1 Bft) 100,00 %
17.04.2016 13:53 16,1 C 66 % 1008,5 hPa 0,0 l/m 1,5 km/h (1 Bft) NW 306 0 min 0,000 mm 1,2 UV-I 177 W/m 9,7 C 16,1 C 3,2 km/h (1 Bft) 100,00 %
17.04.2016 13:54 16,1 C 67 % 1008,5 hPa 0,0 l/m 3,6 km/h (1 Bft) W-NW 300 0 min 0,000 mm 1,2 UV-I 177 W/m 10,0 C 16,1 C 11,3 km/h (2 Bft) 100,00 %
17.04.2016 13:55 16,1 C 65 % 1008,5 hPa 0,0 l/m 2,7 km/h (1 Bft) W-NW 288 0 min 0,000 mm 1,3 UV-I 182 W/m 9,5 C 16,1 C 4,8 km/h (1 Bft) 100,00 %
17.04.2016 13:56 16,1 C 65 % 1008,5 hPa 0,0 l/m 2,4 km/h (1 Bft) NW 306 0 min 0,000 mm 1,3 UV-I 193 W/m 9,5 C 16,1 C 4,8 km/h (1 Bft) 100,00 %
17.04.2016 13:57 16,1 C 67 % 1008,6 hPa 0,0 l/m 1,9 km/h (1 Bft) W 263 0 min 0,000 mm 1,4 UV-I 208 W/m 10,0 C 16,1 C 6,4 km/h (2 Bft) 100,00 %
17.04.2016 13:58 16,0 C 67 % 1008,5 hPa 0,0 l/m 3,3 km/h (1 Bft) W-NW 297 0 min 0,000 mm 1,4 UV-I 217 W/m 9,9 C 16,0 C 6,4 km/h (2 Bft) 100,00 %
17.04.2016 13:59 16,0 C 65 % 1008,5 hPa 0,0 l/m 4,5 km/h (1 Bft) NW 304 0 min 0,000 mm 1,5 UV-I 220 W/m 9,4 C 16,0 C 6,4 km/h (2 Bft) 100,00 %
17.04.2016 14:00 16,0 C 64 % 1008,5 hPa 0,0 l/m 5,6 km/h (1 Bft) N-NW 327 0 min 0,152 mm 1,4 UV-I 215 W/m 9,2 C 16,0 C 11,3 km/h (2 Bft) 100,00 %
17.04.2016 14:01 16,0 C 64 % 1008,5 hPa 0,0 l/m 5,8 km/h (2 Bft) W-NW 301 0 min 0,000 mm 1,3 UV-I 198 W/m 9,2 C 16,0 C 12,9 km/h (3 Bft) 100,00 %
17.04.2016 14:02 16,0 C 65 % 1008,5 hPa 0,0 l/m 3,6 km/h (1 Bft) NW 312 0 min 0,000 mm 1,3 UV-I 181 W/m 9,4 C 16,0 C 4,8 km/h (1 Bft) 100,00 %
17.04.2016 14:03 15,9 C 65 % 1008,5 hPa 0,0 l/m 2,1 km/h (1 Bft) W-NW 301 0 min 0,000 mm 1,3 UV-I 181 W/m 9,3 C 15,9 C 4,8 km/h (1 Bft) 100,00 %
17.04.2016 14:04 15,9 C 64 % 1008,5 hPa 0,0 l/m 4,0 km/h (1 Bft) W 274 0 min 0,000 mm 1,3 UV-I 187 W/m 9,1 C 15,9 C 9,7 km/h (2 Bft) 95,65 %
17.04.2016 14:05 15,9 C 62 % 1008,4 hPa 0,0 l/m 5,1 km/h (1 Bft) W-NW 286 0 min 0,000 mm 1,3 UV-I 194 W/m 8,6 C 15,9 C 9,7 km/h (2 Bft) 100,00 %
17.04.2016 14:06 15,9 C 66 % 1008,5 hPa 0,0 l/m 3,1 km/h (1 Bft) W 279 0 min 0,000 mm 1,2 UV-I 194 W/m 9,6 C 15,9 C 4,8 km/h (1 Bft) 100,00 %
17.04.2016 14:07 15,9 C 64 % 1008,4 hPa 0,0 l/m 6,7 km/h (2 Bft) W-NW 290 0 min 0,000 mm 1,2 UV-I 188 W/m 9,1 C 15,7 C 12,9 km/h (3 Bft) 100,00 %
17.04.2016 14:08 15,9 C 63 % 1008,5 hPa 0,0 l/m 2,7 km/h (1 Bft) W-NW 290 0 min 0,000 mm 1,2 UV-I 185 W/m 8,9 C 15,9 C 4,8 km/h (1 Bft) 100,00 %
17.04.2016 14:09 15,9 C 64 % 1008,4 hPa 0,0 l/m 0,3 km/h (0 Bft) W-NW 290 0 min 0,000 mm 1,2 UV-I 182 W/m 9,1 C 15,9 C 1,6 km/h (1 Bft) 95,83 %
17.04.2016 14:10 15,9 C 67 % 1008,5 hPa 0,0 l/m 3,5 km/h (1 Bft) W-NW 283 0 min 0,000 mm 1,2 UV-I 179 W/m 9,8 C 15,9 C 11,3 km/h (2 Bft) 95,65 %
17.04.2016 14:11 15,9 C 64 % 1008,5 hPa 0,0 l/m 4,7 km/h (1 Bft) W 259 0 min 0,000 mm 1,2 UV-I 179 W/m 9,1 C 15,9 C 6,4 km/h (2 Bft) 96,30 %
17.04.2016 14:12 15,9 C 64 % 1008,5 hPa 0,0 l/m 4,0 km/h (1 Bft) W 259 0 min 0,000 mm 1,1 UV-I 178 W/m 9,1 C 15,9 C 6,4 km/h (2 Bft) 100,00 %
17.04.2016 14:13 15,9 C 64 % 1008,6 hPa 0,0 l/m 3,9 km/h (1 Bft) W-NW 300 0 min 0,000 mm 1,1 UV-I 176 W/m 9,1 C 15,9 C 6,4 km/h (2 Bft) 96,55 %
17.04.2016 14:14 15,9 C 62 % 1008,6 hPa 0,0 l/m 3,8 km/h (1 Bft) W 263 0 min 0,000 mm 1,2 UV-I 181 W/m 8,6 C 15,9 C 6,4 km/h (2 Bft) 100,00 %
17.04.2016 14:15 15,9 C 62 % 1008,6 hPa 0,0 l/m 3,2 km/h (1 Bft) W-SW 257 0 min 0,000 mm 1,2 UV-I 191 W/m 8,6 C 15,9 C 9,7 km/h (2 Bft) 91,30 %
17.04.2016 14:16 16,0 C 62 % 1008,6 hPa 0,0 l/m 3,0 km/h (1 Bft) W-SW 257 0 min 0,000 mm 1,3 UV-I 208 W/m 8,7 C 16,0 C 6,4 km/h (2 Bft) 95,83 %
17.04.2016 14:17 16,0 C 64 % 1008,6 hPa 0,0 l/m 1,8 km/h (1 Bft) W-NW 296 0 min 0,000 mm 1,4 UV-I 224 W/m 9,2 C 16,0 C 4,8 km/h (1 Bft) 100,00 %
17.04.2016 14:18 16,1 C 62 % 1008,6 hPa 0,0 l/m 4,1 km/h (1 Bft) W-NW 284 0 min 0,000 mm 1,5 UV-I 235 W/m 8,8 C 16,1 C 6,4 km/h (2 Bft) 93,33 %
17.04.2016 14:19 16,1 C 63 % 1008,6 hPa 0,0 l/m 2,9 km/h (1 Bft) NW 319 0 min 0,000 mm 1,6 UV-I 239 W/m 9,1 C 16,1 C 4,8 km/h (1 Bft) 96,15 %
17.04.2016 14:20 16,1 C 65 % 1008,7 hPa 0,0 l/m 2,8 km/h (1 Bft) NW 315 0 min 0,000 mm 1,6 UV-I 239 W/m 9,5 C 16,1 C 4,8 km/h (1 Bft) 96,30 %
17.04.2016 14:21 16,1 C 64 % 1008,7 hPa 0,0 l/m 1,9 km/h (1 Bft) N-NW 330 0 min 0,000 mm 1,5 UV-I 236 W/m 9,3 C 16,1 C 3,2 km/h (1 Bft) 93,10 %
17.04.2016 14:22 16,1 C 65 % 1008,7 hPa 0,0 l/m 2,1 km/h (1 Bft) N-NW 333 0 min 0,000 mm 1,5 UV-I 232 W/m 9,5 C 16,1 C 3,2 km/h (1 Bft) 95,83 %
17.04.2016 14:23 16,1 C 64 % 1008,7 hPa 0,0 l/m 3,2 km/h (1 Bft) W-NW 286 0 min 0,000 mm 1,6 UV-I 231 W/m 9,3 C 16,1 C 6,4 km/h (2 Bft) 92,86 %
17.04.2016 14:24 16,1 C 65 % 1008,7 hPa 0,0 l/m 5,6 km/h (1 Bft) NW 325 0 min 0,000 mm 1,6 UV-I 234 W/m 9,5 C 16,1 C 9,7 km/h (2 Bft) 96,67 %
17.04.2016 14:25 16,1 C 64 % 1008,7 hPa 0,0 l/m 5,5 km/h (1 Bft) N 355 0 min 0,000 mm 1,6 UV-I 233 W/m 9,3 C 16,1 C 14,5 km/h (3 Bft) 92,31 %
17.04.2016 14:26 16,1 C 63 % 1008,7 hPa 0,0 l/m 8,6 km/h (2 Bft) NW 319 0 min 0,000 mm 1,5 UV-I 226 W/m 9,1 C 15,0 C 14,5 km/h (3 Bft) 100,00 %
17.04.2016 14:27 16,1 C 63 % 1008,7 hPa 0,0 l/m 2,1 km/h (1 Bft) N-NW 336 0 min 0,000 mm 1,5 UV-I 219 W/m 9,1 C 16,1 C 3,2 km/h (1 Bft) 85,71 %
17.04.2016 14:28 16,1 C 65 % 1008,6 hPa 0,0 l/m 3,7 km/h (1 Bft) W-NW 287 0 min 0,000 mm 1,5 UV-I 222 W/m 9,5 C 16,1 C 8,0 km/h (2 Bft) 100,00 %
17.04.2016 14:29 16,1 C 66 % 1008,7 hPa 0,0 l/m 5,5 km/h (1 Bft) W-NW 300 0 min 0,000 mm 1,5 UV-I 225 W/m 9,7 C 16,1 C 12,9 km/h (3 Bft) 95,83 %
17.04.2016 14:30 16,1 C 65 % 1008,6 hPa 0,0 l/m 3,2 km/h (1 Bft) W-NW 301 0 min 0,000 mm 1,5 UV-I 223 W/m 9,5 C 16,1 C 8,0 km/h (2 Bft) 100,00 %
17.04.2016 14:31 16,1 C 67 % 1008,7 hPa 0,0 l/m 3,9 km/h (1 Bft) W-SW 252 0 min 0,000 mm 1,5 UV-I 217 W/m 10,0 C 16,1 C 6,4 km/h (2 Bft) 95,83 %
17.04.2016 14:32 16,1 C 65 % 1008,7 hPa 0,0 l/m 3,0 km/h (1 Bft) W 272 0 min 0,000 mm 1,4 UV-I 210 W/m 9,5 C 16,1 C 4,8 km/h (1 Bft) 100,00 %
17.04.2016 14:33 16,1 C 65 % 1008,7 hPa 0,0 l/m 2,7 km/h (1 Bft) W-SW 248 0 min 0,000 mm 1,4 UV-I 206 W/m 9,5 C 16,1 C 4,8 km/h (1 Bft) 95,83 %
17.04.2016 14:34 16,1 C 63 % 1008,7 hPa 0,0 l/m 3,1 km/h (1 Bft) W-SW 255 0 min 0,000 mm 1,4 UV-I 204 W/m 9,1 C 16,1 C 4,8 km/h (1 Bft) 92,31 %
17.04.2016 14:35 16,1 C 62 % 1008,7 hPa 0,0 l/m 3,5 km/h (1 Bft) W-NW 297 0 min 0,000 mm 1,3 UV-I 191 W/m 8,8 C 16,1 C 6,4 km/h (2 Bft) 96,30 %
17.04.2016 14:36 16,1 C 63 % 1008,7 hPa 0,0 l/m 2,4 km/h (1 Bft) W 278 0 min 0,000 mm 1,3 UV-I 180 W/m 9,1 C 16,1 C 4,8 km/h (1 Bft) 95,65 %
17.04.2016 14:37 16,1 C 63 % 1008,8 hPa 0,0 l/m 2,8 km/h (1 Bft) NW 319 0 min 0,000 mm 1,2 UV-I 172 W/m 9,1 C 16,1 C 6,4 km/h (2 Bft) 100,00 %
17.04.2016 14:38 16,1 C 65 % 1008,8 hPa 0,0 l/m 1,3 km/h (1 Bft) NW 316 0 min 0,000 mm 1,2 UV-I 173 W/m 9,5 C 16,1 C 3,2 km/h (1 Bft) 95,65 %
17.04.2016 14:39 16,1 C 65 % 1008,8 hPa 0,0 l/m 1,4 km/h (1 Bft) NW 316 0 min 0,000 mm 1,2 UV-I 182 W/m 9,5 C 16,1 C 3,2 km/h (1 Bft) 100,00 %
17.04.2016 14:40 16,1 C 64 % 1008,8 hPa 0,0 l/m 5,8 km/h (2 Bft) NW 309 0 min 0,000 mm 1,3 UV-I 190 W/m 9,3 C 16,1 C 14,5 km/h (3 Bft) 96,15 %
17.04.2016 14:41 16,1 C 62 % 1008,8 hPa 0,0 l/m 5,6 km/h (1 Bft) W-NW 296 0 min 0,000 mm 1,3 UV-I 206 W/m 8,8 C 16,1 C 9,7 km/h (2 Bft) 100,00 %
17.04.2016 14:42 16,1 C 64 % 1008,8 hPa 0,0 l/m 5,1 km/h (1 Bft) NW 308 0 min 0,000 mm 1,4 UV-I 226 W/m 9,3 C 16,1 C 11,3 km/h (2 Bft) 92,31 %
17.04.2016 14:43 16,1 C 65 % 1008,7 hPa 0,0 l/m 6,0 km/h (2 Bft) W-SW 238 0 min 0,000 mm 1,5 UV-I 240 W/m 9,5 C 16,1 C 14,5 km/h (3 Bft) 95,83 %
17.04.2016 14:44 16,0 C 63 % 1008,7 hPa 0,0 l/m 3,9 km/h (1 Bft) W 267 0 min 0,000 mm 1,5 UV-I 241 W/m 9,0 C 16,0 C 9,7 km/h (2 Bft) 100,00 %
17.04.2016 14:45 16,1 C 63 % 1008,7 hPa 0,0 l/m 2,0 km/h (1 Bft) NW 313 0 min 0,000 mm 1,5 UV-I 234 W/m 9,1 C 16,1 C 3,2 km/h (1 Bft) 100,00 %
17.04.2016 14:46 16,1 C 62 % 1008,7 hPa 0,0 l/m 4,6 km/h (1 Bft) W-NW 291 0 min 0,000 mm 1,4 UV-I 223 W/m 8,8 C 16,1 C 11,3 km/h (2 Bft) 100,00 %
17.04.2016 14:47 16,1 C 61 % 1008,7 hPa 0,0 l/m 9,5 km/h (2 Bft) W-NW 302 0 min 0,000 mm 1,4 UV-I 220 W/m 8,6 C 14,6 C 17,7 km/h (3 Bft) 100,00 %
17.04.2016 14:48 16,0 C 61 % 1008,8 hPa 0,0 l/m 6,2 km/h (2 Bft) N-NW 329 0 min 0,000 mm 1,3 UV-I 218 W/m 8,5 C 16,0 C 12,9 km/h (3 Bft) 100,00 %
17.04.2016 14:49 16,0 C 62 % 1008,8 hPa 0,0 l/m 5,2 km/h (1 Bft) NW 305 0 min 0,000 mm 1,3 UV-I 210 W/m 8,7 C 16,0 C 12,9 km/h (3 Bft) 100,00 %
17.04.2016 14:50 16,0 C 62 % 1008,7 hPa 0,0 l/m 5,6 km/h (1 Bft) NW 306 0 min 0,000 mm 1,3 UV-I 206 W/m 8,7 C 16,0 C 8,0 km/h (2 Bft) 100,00 %
17.04.2016 14:51 16,0 C 63 % 1008,8 hPa 0,0 l/m 4,6 km/h (1 Bft) W-NW 288 0 min 0,000 mm 1,3 UV-I 202 W/m 9,0 C 16,0 C 8,0 km/h (2 Bft) 91,67 %
17.04.2016 14:52 15,9 C 63 % 1008,8 hPa 0,0 l/m 6,0 km/h (2 Bft) W-SW 245 0 min 0,000 mm 1,2 UV-I 192 W/m 8,9 C 15,9 C 11,3 km/h (2 Bft) 100,00 %
17.04.2016 14:53 15,9 C 63 % 1008,8 hPa 0,0 l/m 2,4 km/h (1 Bft) N-NW 331 0 min 0,000 mm 1,1 UV-I 178 W/m 8,9 C 15,9 C 6,4 km/h (2 Bft) 96,55 %
17.04.2016 14:54 15,9 C 64 % 1008,8 hPa 0,0 l/m 2,3 km/h (1 Bft) W-NW 293 0 min 0,000 mm 1,1 UV-I 174 W/m 9,1 C 15,9 C 3,2 km/h (1 Bft) 100,00 %
17.04.2016 14:55 15,9 C 63 % 1008,7 hPa 0,0 l/m 8,0 km/h (2 Bft) NW 304 0 min 0,000 mm 1,0 UV-I 169 W/m 8,9 C 15,0 C 16,1 km/h (3 Bft) 94,12 %
17.04.2016 14:56 15,9 C 63 % 1008,8 hPa 0,0 l/m 6,6 km/h (2 Bft) W 281 0 min 0,000 mm 1,0 UV-I 163 W/m 8,9 C 15,8 C 14,5 km/h (3 Bft) 100,00 %
17.04.2016 14:57 15,9 C 63 % 1008,8 hPa 0,0 l/m 4,2 km/h (1 Bft) W-SW 246 0 min 0,000 mm 1,0 UV-I 162 W/m 8,9 C 15,9 C 4,8 km/h (1 Bft) 95,65 %
17.04.2016 14:58 15,9 C 63 % 1008,8 hPa 0,0 l/m 3,2 km/h (1 Bft) W 279 0 min 0,000 mm 0,9 UV-I 156 W/m 8,9 C 15,9 C 11,3 km/h (2 Bft) 100,00 %
17.04.2016 14:59 15,9 C 62 % 1008,8 hPa 0,0 l/m 6,0 km/h (2 Bft) W 279 0 min 0,000 mm 0,9 UV-I 145 W/m 8,6 C 15,9 C 12,9 km/h (3 Bft) 98,35 %
17.04.2016 15:00 15,9 C 61 % 1008,9 hPa 0,0 l/m 5,1 km/h (1 Bft) NW 306 0 min 0,000 mm 0,8 UV-I 133 W/m 8,4 C 15,9 C 11,3 km/h (2 Bft) 100,00 %
17.04.2016 15:01 15,9 C 62 % 1008,8 hPa 0,0 l/m 2,3 km/h (1 Bft) NW 325 0 min 0,127 mm 0,8 UV-I 126 W/m 8,6 C 15,9 C 4,8 km/h (1 Bft) 100,00 %
17.04.2016 15:02 15,9 C 62 % 1008,8 hPa 0,0 l/m 1,9 km/h (1 Bft) NW 325 0 min 0,000 mm 0,7 UV-I 122 W/m 8,6 C 15,9 C 3,2 km/h (1 Bft) 95,83 %
17.04.2016 15:03 15,9 C 63 % 1008,9 hPa 0,0 l/m 0,3 km/h (0 Bft) NW 325 0 min 0,000 mm 0,8 UV-I 128 W/m 8,9 C 15,9 C 1,6 km/h (1 Bft) 100,00 %
17.04.2016 15:04 15,9 C 64 % 1008,8 hPa 0,0 l/m 2,3 km/h (1 Bft) NW 304 0 min 0,000 mm 0,8 UV-I 138 W/m 9,1 C 15,9 C 6,4 km/h (2 Bft) 100,00 %
17.04.2016 15:05 15,8 C 63 % 1008,8 hPa 0,0 l/m 0,7 km/h (0 Bft) NW 310 0 min 0,000 mm 0,9 UV-I 146 W/m 8,8 C 15,8 C 1,6 km/h (1 Bft) 100,00 %
17.04.2016 15:06 15,8 C 64 % 1008,8 hPa 0,0 l/m 1,8 km/h (1 Bft) NW 304 0 min 0,000 mm 0,9 UV-I 148 W/m 9,0 C 15,8 C 3,2 km/h (1 Bft) 100,00 %
17.04.2016 15:07 15,8 C 64 % 1008,8 hPa 0,0 l/m 2,0 km/h (1 Bft) W-NW 297 0 min 0,000 mm 0,9 UV-I 144 W/m 9,0 C 15,8 C 8,0 km/h (2 Bft) 94,44 %
17.04.2016 15:08 15,8 C 64 % 1008,8 hPa 0,0 l/m 5,6 km/h (1 Bft) W-NW 301 0 min 0,000 mm 0,9 UV-I 138 W/m 9,0 C 15,8 C 9,7 km/h (2 Bft) 100,00 %
17.04.2016 15:09 15,8 C 66 % 1008,8 hPa 0,0 l/m 1,6 km/h (1 Bft) NW 318 0 min 0,000 mm 0,8 UV-I 123 W/m 9,5 C 15,8 C 3,2 km/h (1 Bft) 100,00 %
17.04.2016 15:10 15,8 C 66 % 1008,8 hPa 0,0 l/m 2,9 km/h (1 Bft) W-SW 249 0 min 0,000 mm 0,8 UV-I 116 W/m 9,5 C 15,8 C 6,4 km/h (2 Bft) 100,00 %
17.04.2016 15:11 15,8 C 65 % 1008,8 hPa 0,0 l/m 3,1 km/h (1 Bft) NW 324 0 min 0,000 mm 0,8 UV-I 119 W/m 9,2 C 15,8 C 6,4 km/h (2 Bft) 100,00 %
17.04.2016 15:12 15,8 C 66 % 1008,8 hPa 0,0 l/m 2,5 km/h (1 Bft) NW 306 0 min 0,000 mm 0,8 UV-I 128 W/m 9,5 C 15,8 C 4,8 km/h (1 Bft) 100,00 %
17.04.2016 15:13 15,7 C 64 % 1008,8 hPa 0,0 l/m 4,4 km/h (1 Bft) NW 323 0 min 0,000 mm 0,8 UV-I 131 W/m 8,9 C 15,7 C 8,0 km/h (2 Bft) 100,00 %
17.04.2016 15:14 15,7 C 64 % 1008,8 hPa 0,0 l/m 2,1 km/h (1 Bft) NW 315 0 min 0,000 mm 0,8 UV-I 135 W/m 8,9 C 15,7 C 4,8 km/h (1 Bft) 100,00 %
17.04.2016 15:15 15,6 C 63 % 1008,8 hPa 0,0 l/m 4,3 km/h (1 Bft) NW 323 0 min 0,000 mm 0,8 UV-I 137 W/m 8,6 C 15,6 C 6,4 km/h (2 Bft) 100,00 %
17.04.2016 15:16 15,6 C 64 % 1008,8 hPa 0,0 l/m 2,5 km/h (1 Bft) NW 306 0 min 0,000 mm 0,8 UV-I 135 W/m 8,8 C 15,6 C 4,8 km/h (1 Bft) 100,00 %
17.04.2016 15:17 15,6 C 66 % 1008,8 hPa 0,0 l/m 1,3 km/h (1 Bft) NW 306 0 min 0,000 mm 0,7 UV-I 130 W/m 9,3 C 15,6 C 3,2 km/h (1 Bft) 100,00 %
17.04.2016 15:18 15,7 C 67 % 1008,9 hPa 0,0 l/m 1,4 km/h (1 Bft) NW 306 0 min 0,000 mm 0,7 UV-I 125 W/m 9,6 C 15,7 C 3,2 km/h (1 Bft) 100,00 %
17.04.2016 15:19 15,7 C 65 % 1008,9 hPa 0,0 l/m 0,9 km/h (0 Bft) NW 306 0 min 0,000 mm 0,7 UV-I 119 W/m 9,1 C 15,7 C 3,2 km/h (1 Bft) 100,00 %
17.04.2016 15:20 15,6 C 65 % 1008,9 hPa 0,0 l/m 1,8 km/h (1 Bft) W 275 0 min 0,000 mm 0,6 UV-I 114 W/m 9,0 C 15,6 C 3,2 km/h (1 Bft) 100,00 %
17.04.2016 15:21 15,7 C 64 % 1008,9 hPa 0,0 l/m 1,3 km/h (1 Bft) N-NW 331 0 min 0,000 mm 0,6 UV-I 113 W/m 8,9 C 15,7 C 6,4 km/h (2 Bft) 91,67 %
17.04.2016 15:22 15,7 C 66 % 1008,9 hPa 0,0 l/m 3,1 km/h (1 Bft) N-NW 341 0 min 0,000 mm 0,6 UV-I 113 W/m 9,4 C 15,7 C 6,4 km/h (2 Bft) 100,00 %
17.04.2016 15:23 15,6 C 65 % 1008,8 hPa 0,0 l/m 4,6 km/h (1 Bft) W 278 0 min 0,000 mm 0,6 UV-I 114 W/m 9,0 C 15,6 C 9,7 km/h (2 Bft) 100,00 %
17.04.2016 15:24 15,6 C 64 % 1008,8 hPa 0,0 l/m 3,3 km/h (1 Bft) NW 325 0 min 0,000 mm 0,7 UV-I 114 W/m 8,8 C 15,6 C 6,4 km/h (2 Bft) 100,00 %
17.04.2016 15:25 15,6 C 64 % 1008,8 hPa 0,0 l/m 2,9 km/h (1 Bft) W-SW 248 0 min 0,000 mm 0,6 UV-I 112 W/m 8,8 C 15,6 C 4,8 km/h (1 Bft) 100,00 %
17.04.2016 15:26 15,6 C 64 % 1008,9 hPa 0,0 l/m 4,4 km/h (1 Bft) W-NW 289 0 min 0,000 mm 0,6 UV-I 107 W/m 8,8 C 15,6 C 6,4 km/h (2 Bft) 100,00 %
17.04.2016 15:27 15,5 C 63 % 1008,8 hPa 0,0 l/m 1,9 km/h (1 Bft) W-NW 296 0 min 0,000 mm 0,6 UV-I 101 W/m 8,5 C 15,5 C 3,2 km/h (1 Bft) 100,00 %
17.04.2016 15:28 15,5 C 65 % 1008,9 hPa 0,0 l/m 3,3 km/h (1 Bft) NW 315 0 min 0,000 mm 0,5 UV-I 92 W/m 8,9 C 15,5 C 6,4 km/h (2 Bft) 100,00 %
17.04.2016 15:29 15,5 C 64 % 1008,9 hPa 0,0 l/m 4,2 km/h (1 Bft) W 277 0 min 0,000 mm 0,5 UV-I 84 W/m 8,7 C 15,5 C 6,4 km/h (2 Bft) 100,00 %
17.04.2016 15:30 15,5 C 63 % 1008,9 hPa 0,0 l/m 5,3 km/h (1 Bft) N-NO 12 0 min 0,000 mm 0,1 UV-I 76 W/m 8,5 C 15,5 C 9,7 km/h (2 Bft) 100,00 %
17.04.2016 15:31 15,4 C 63 % 1009,0 hPa 0,0 l/m 8,9 km/h (2 Bft) W-NW 296 0 min 0,000 mm 0,0 UV-I 71 W/m 8,4 C 14,1 C 19,3 km/h (3 Bft) 100,00 %
17.04.2016 15:32 15,4 C 63 % 1009,0 hPa 0,0 l/m 5,9 km/h (2 Bft) W 269 0 min 0,000 mm 0,0 UV-I 69 W/m 8,4 C 15,4 C 11,3 km/h (2 Bft) 91,67 %
17.04.2016 15:33 15,4 C 63 % 1009,0 hPa 0,0 l/m 6,9 km/h (2 Bft) W 277 0 min 0,000 mm 0,0 UV-I 69 W/m 8,4 C 15,1 C 12,9 km/h (3 Bft) 100,00 %
17.04.2016 15:34 15,4 C 62 % 1009,0 hPa 0,0 l/m 4,8 km/h (1 Bft) W 263 0 min 0,000 mm 0,0 UV-I 70 W/m 8,2 C 15,4 C 9,7 km/h (2 Bft) 100,00 %
17.04.2016 15:35 15,4 C 62 % 1009,0 hPa 0,0 l/m 2,7 km/h (1 Bft) W-NW 294 0 min 0,000 mm 0,0 UV-I 70 W/m 8,2 C 15,4 C 6,4 km/h (2 Bft) 100,00 %
17.04.2016 15:36 15,4 C 62 % 1008,9 hPa 0,0 l/m 1,8 km/h (1 Bft) W-NW 294 0 min 0,000 mm 0,0 UV-I 68 W/m 8,2 C 15,4 C 3,2 km/h (1 Bft) 95,83 %
17.04.2016 15:37 15,4 C 63 % 1008,9 hPa 0,0 l/m 4,9 km/h (1 Bft) W-NW 290 0 min 0,000 mm 0,0 UV-I 66 W/m 8,4 C 15,4 C 11,3 km/h (2 Bft) 95,65 %
17.04.2016 15:38 15,4 C 63 % 1008,9 hPa 0,0 l/m 3,7 km/h (1 Bft) W-SW 248 0 min 0,000 mm 0,0 UV-I 62 W/m 8,4 C 15,4 C 4,8 km/h (1 Bft) 96,30 %
17.04.2016 15:39 15,3 C 63 % 1008,9 hPa 0,0 l/m 5,8 km/h (2 Bft) W-NW 283 0 min 0,000 mm 0,0 UV-I 61 W/m 8,3 C 15,3 C 12,9 km/h (3 Bft) 95,65 %
17.04.2016 15:40 15,3 C 63 % 1008,9 hPa 0,0 l/m 3,4 km/h (1 Bft) W 277 0 min 0,000 mm 0,0 UV-I 58 W/m 8,3 C 15,3 C 6,4 km/h (2 Bft) 100,00 %
17.04.2016 15:41 15,3 C 64 % 1009,0 hPa 0,0 l/m 2,5 km/h (1 Bft) W 271 0 min 0,000 mm 0,0 UV-I 56 W/m 8,5 C 15,3 C 4,8 km/h (1 Bft) 100,00 %
17.04.2016 15:42 15,3 C 65 % 1009,0 hPa 0,0 l/m 1,6 km/h (1 Bft) W 271 0 min 0,000 mm 0,0 UV-I 52 W/m 8,8 C 15,3 C 3,2 km/h (1 Bft) 100,00 %
17.04.2016 15:43 15,3 C 65 % 1009,0 hPa 0,0 l/m 5,3 km/h (1 Bft) W-NW 286 0 min 0,000 mm 0,0 UV-I 50 W/m 8,8 C 15,3 C 11,3 km/h (2 Bft) 100,00 %
17.04.2016 15:44 15,2 C 64 % 1009,1 hPa 0,0 l/m 7,4 km/h (2 Bft) W-SW 250 0 min 0,000 mm 0,0 UV-I 49 W/m 8,4 C 14,6 C 11,3 km/h (2 Bft) 100,00 %
17.04.2016 15:45 15,2 C 63 % 1009,0 hPa 0,0 l/m 8,1 km/h (2 Bft) W 273 0 min 0,000 mm 0,0 UV-I 46 W/m 8,2 C 14,3 C 14,5 km/h (3 Bft) 92,86 %
17.04.2016 15:46 15,2 C 62 % 1009,0 hPa 0,0 l/m 10,3 km/h (2 Bft) W-SW 252 0 min 0,000 mm 0,0 UV-I 44 W/m 8,0 C 13,2 C 14,5 km/h (3 Bft) 100,00 %
17.04.2016 15:47 15,2 C 62 % 1009,0 hPa 0,0 l/m 4,0 km/h (1 Bft) NW 317 0 min 0,000 mm 0,0 UV-I 40 W/m 8,0 C 15,2 C 6,4 km/h (2 Bft) 100,00 %
17.04.2016 15:48 15,2 C 61 % 1009,1 hPa 0,0 l/m 4,7 km/h (1 Bft) W 278 0 min 0,000 mm 0,0 UV-I 40 W/m 7,7 C 15,2 C 6,4 km/h (2 Bft) 100,00 %
17.04.2016 15:49 15,2 C 62 % 1009,1 hPa 0,0 l/m 6,7 km/h (2 Bft) W 264 0 min 0,000 mm 0,0 UV-I 40 W/m 8,0 C 15,0 C 12,9 km/h (3 Bft) 100,00 %
17.04.2016 15:50 15,2 C 64 % 1009,1 hPa 0,0 l/m 2,0 km/h (1 Bft) W 266 0 min 0,000 mm 0,0 UV-I 39 W/m 8,4 C 15,2 C 4,8 km/h (1 Bft) 100,00 %
17.04.2016 15:51 15,2 C 64 % 1009,1 hPa 0,0 l/m 1,1 km/h (1 Bft) W 266 0 min 0,000 mm 0,0 UV-I 39 W/m 8,4 C 15,2 C 3,2 km/h (1 Bft) 100,00 %
17.04.2016 15:52 15,2 C 64 % 1009,1 hPa 0,0 l/m 2,5 km/h (1 Bft) N-NW 331 0 min 0,000 mm 0,0 UV-I 40 W/m 8,4 C 15,2 C 4,8 km/h (1 Bft) 100,00 %
17.04.2016 15:53 15,1 C 64 % 1009,2 hPa 0,0 l/m 4,3 km/h (1 Bft) NW 305 0 min 0,000 mm 0,0 UV-I 42 W/m 8,3 C 15,1 C 6,4 km/h (2 Bft) 100,00 %
17.04.2016 15:54 15,1 C 65 % 1009,1 hPa 0,0 l/m 3,9 km/h (1 Bft) W-NW 282 0 min 0,000 mm 0,0 UV-I 45 W/m 8,6 C 15,1 C 9,7 km/h (2 Bft) 100,00 %
17.04.2016 15:55 15,0 C 64 % 1009,0 hPa 0,0 l/m 4,0 km/h (1 Bft) W 273 0 min 0,000 mm 0,0 UV-I 50 W/m 8,2 C 15,0 C 9,7 km/h (2 Bft) 100,00 %
17.04.2016 15:56 15,0 C 64 % 1009,0 hPa 0,0 l/m 4,6 km/h (1 Bft) W 274 0 min 0,000 mm 0,0 UV-I 58 W/m 8,2 C 15,0 C 9,7 km/h (2 Bft) 100,00 %
17.04.2016 15:57 15,0 C 64 % 1009,0 hPa 0,0 l/m 4,1 km/h (1 Bft) W 271 0 min 0,000 mm 0,0 UV-I 62 W/m 8,2 C 15,0 C 9,7 km/h (2 Bft) 100,00 %
17.04.2016 15:58 14,9 C 65 % 1009,0 hPa 0,0 l/m 1,4 km/h (1 Bft) W-NW 293 0 min 0,000 mm 0,0 UV-I 58 W/m 8,4 C 14,9 C 4,8 km/h (1 Bft) 100,00 %
17.04.2016 15:59 14,9 C 66 % 1009,0 hPa 0,0 l/m 3,1 km/h (1 Bft) W-NW 290 0 min 0,000 mm 0,0 UV-I 58 W/m 8,6 C 14,9 C 4,8 km/h (1 Bft) 92,59 %
17.04.2016 16:00 14,9 C 66 % 1009,0 hPa 0,0 l/m 0,7 km/h (0 Bft) W-NW 290 0 min 0,000 mm 0,0 UV-I 59 W/m 8,6 C 14,9 C 1,6 km/h (1 Bft) 98,42 %
17.04.2016 16:01 14,8 C 67 % 1009,0 hPa 0,0 l/m 0,9 km/h (0 Bft) W-NW 292 0 min 0,076 mm 0,0 UV-I 59 W/m 8,7 C 14,8 C 3,2 km/h (1 Bft) 100,00 %
17.04.2016 16:02 14,8 C 67 % 1009,0 hPa 0,0 l/m 1,8 km/h (1 Bft) NW 304 0 min 0,000 mm 0,0 UV-I 55 W/m 8,7 C 14,8 C 3,2 km/h (1 Bft) 95,65 %
17.04.2016 16:03 14,8 C 67 % 1009,0 hPa 0,0 l/m 3,8 km/h (1 Bft) NW 313 0 min 0,000 mm 0,0 UV-I 49 W/m 8,7 C 14,8 C 6,4 km/h (2 Bft) 100,00 %
17.04.2016 16:04 14,8 C 67 % 1009,0 hPa 0,0 l/m 4,8 km/h (1 Bft) NW 308 0 min 0,000 mm 0,0 UV-I 49 W/m 8,7 C 14,8 C 9,7 km/h (2 Bft) 100,00 %
17.04.2016 16:05 14,8 C 67 % 1009,0 hPa 0,0 l/m 5,2 km/h (1 Bft) N-NW 340 0 min 0,000 mm 0,0 UV-I 51 W/m 8,7 C 14,8 C 9,7 km/h (2 Bft) 100,00 %
17.04.2016 16:06 14,8 C 66 % 1009,0 hPa 0,0 l/m 4,5 km/h (1 Bft) W 277 0 min 0,000 mm 0,0 UV-I 51 W/m 8,5 C 14,8 C 6,4 km/h (2 Bft) 95,65 %
17.04.2016 16:07 14,8 C 66 % 1009,0 hPa 0,0 l/m 4,6 km/h (1 Bft) NW 315 0 min 0,000 mm 0,0 UV-I 52 W/m 8,5 C 14,8 C 11,3 km/h (2 Bft) 100,00 %
17.04.2016 16:08 14,8 C 66 % 1009,0 hPa 0,0 l/m 5,1 km/h (1 Bft) W-NW 301 0 min 0,000 mm 0,0 UV-I 54 W/m 8,5 C 14,8 C 9,7 km/h (2 Bft) 100,00 %
17.04.2016 16:09 14,8 C 67 % 1008,9 hPa 0,0 l/m 2,3 km/h (1 Bft) NW 304 0 min 0,000 mm 0,0 UV-I 55 W/m 8,7 C 14,8 C 3,2 km/h (1 Bft) 100,00 %
17.04.2016 16:10 14,8 C 66 % 1009,0 hPa 0,0 l/m 3,4 km/h (1 Bft) NW 317 0 min 0,000 mm 0,0 UV-I 58 W/m 8,5 C 14,8 C 4,8 km/h (1 Bft) 100,00 %
17.04.2016 16:11 14,8 C 66 % 1009,0 hPa 0,0 l/m 3,4 km/h (1 Bft) N-NW 331 0 min 0,000 mm 0,0 UV-I 60 W/m 8,5 C 14,8 C 4,8 km/h (1 Bft) 96,88 %
17.04.2016 16:12 14,7 C 66 % 1008,9 hPa 0,0 l/m 5,1 km/h (1 Bft) W 271 0 min 0,000 mm 0,0 UV-I 59 W/m 8,4 C 14,7 C 11,3 km/h (2 Bft) 100,00 %
17.04.2016 16:13 14,7 C 67 % 1009,0 hPa 0,0 l/m 2,7 km/h (1 Bft) W-NW 298 0 min 0,000 mm 0,0 UV-I 57 W/m 8,6 C 14,7 C 4,8 km/h (1 Bft) 96,15 %
17.04.2016 16:14 14,7 C 66 % 1009,1 hPa 0,0 l/m 2,7 km/h (1 Bft) W 274 0 min 0,000 mm 0,0 UV-I 54 W/m 8,4 C 14,7 C 4,8 km/h (1 Bft) 100,00 %
17.04.2016 16:15 14,7 C 68 % 1009,1 hPa 0,0 l/m 0,7 km/h (0 Bft) W 274 0 min 0,000 mm 0,0 UV-I 48 W/m 8,9 C 14,7 C 1,6 km/h (1 Bft) 95,65 %
17.04.2016 16:16 14,6 C 69 % 1009,1 hPa 0,0 l/m 1,5 km/h (1 Bft) W-NW 296 0 min 0,000 mm 0,0 UV-I 44 W/m 9,0 C 14,6 C 3,2 km/h (1 Bft) 100,00 %
17.04.2016 16:17 14,6 C 69 % 1009,1 hPa 0,0 l/m 1,6 km/h (1 Bft) N-NW 333 0 min 0,000 mm 0,0 UV-I 42 W/m 9,0 C 14,6 C 3,2 km/h (1 Bft) 92,31 %
17.04.2016 16:18 14,6 C 68 % 1009,1 hPa 0,0 l/m 0,8 km/h (0 Bft) N-NW 333 0 min 0,000 mm 0,0 UV-I 40 W/m 8,8 C 14,6 C 3,2 km/h (1 Bft) 100,00 %
17.04.2016 16:19 14,6 C 69 % 1009,1 hPa 0,0 l/m 3,8 km/h (1 Bft) NW 321 0 min 0,000 mm 0,0 UV-I 38 W/m 9,0 C 14,6 C 8,0 km/h (2 Bft) 96,15 %
17.04.2016 16:20 14,5 C 69 % 1009,1 hPa 0,0 l/m 8,3 km/h (2 Bft) NW 321 0 min 0,000 mm 0,0 UV-I 37 W/m 8,9 C 13,4 C 14,5 km/h (3 Bft) 92,59 %
17.04.2016 16:21 14,5 C 68 % 1009,1 hPa 0,0 l/m 5,4 km/h (1 Bft) N-NW 344 0 min 0,000 mm 0,0 UV-I 39 W/m 8,7 C 14,5 C 8,0 km/h (2 Bft) 100,00 %
17.04.2016 16:22 14,5 C 68 % 1009,1 hPa 0,0 l/m 7,2 km/h (2 Bft) W-NW 294 0 min 0,000 mm 0,0 UV-I 40 W/m 8,7 C 14,0 C 12,9 km/h (3 Bft) 83,33 %
17.04.2016 16:23 14,6 C 67 % 1009,1 hPa 0,0 l/m 3,2 km/h (1 Bft) N-NW 330 0 min 0,000 mm 0,0 UV-I 45 W/m 8,5 C 14,6 C 4,8 km/h (1 Bft) 100,00 %
17.04.2016 16:24 14,6 C 68 % 1009,1 hPa 0,0 l/m 6,1 km/h (2 Bft) NW 323 0 min 0,000 mm 0,0 UV-I 47 W/m 8,8 C 14,6 C 12,9 km/h (3 Bft) 95,83 %
17.04.2016 16:25 14,5 C 68 % 1009,1 hPa 0,0 l/m 4,3 km/h (1 Bft) NW 306 0 min 0,000 mm 0,0 UV-I 51 W/m 8,7 C 14,5 C 6,4 km/h (2 Bft) 96,15 %
17.04.2016 16:26 14,6 C 68 % 1009,1 hPa 0,0 l/m 7,3 km/h (2 Bft) NW 325 0 min 0,000 mm 0,0 UV-I 54 W/m 8,8 C 14,1 C 11,3 km/h (2 Bft) 100,00 %
17.04.2016 16:27 14,5 C 68 % 1009,1 hPa 0,0 l/m 5,2 km/h (1 Bft) W-NW 299 0 min 0,000 mm 0,0 UV-I 54 W/m 8,7 C 14,5 C 6,4 km/h (2 Bft) 100,00 %
17.04.2016 16:28 14,5 C 68 % 1009,1 hPa 0,0 l/m 6,1 km/h (2 Bft) W-NW 297 0 min 0,000 mm 0,0 UV-I 51 W/m 8,7 C 14,5 C 11,3 km/h (2 Bft) 95,65 %
17.04.2016 16:29 14,5 C 68 % 1009,1 hPa 0,0 l/m 5,7 km/h (1 Bft) N-NW 348 0 min 0,000 mm 0,0 UV-I 49 W/m 8,7 C 14,5 C 14,5 km/h (3 Bft) 95,83 %
17.04.2016 16:30 14,4 C 68 % 1009,1 hPa 0,0 l/m 7,2 km/h (2 Bft) NW 315 0 min 0,000 mm 0,0 UV-I 44 W/m 8,6 C 13,9 C 12,9 km/h (3 Bft) 100,00 %
17.04.2016 16:31 14,4 C 69 % 1009,1 hPa 0,0 l/m 3,1 km/h (1 Bft) NW 305 0 min 0,000 mm 0,0 UV-I 40 W/m 8,8 C 14,4 C 4,8 km/h (1 Bft) 96,30 %
17.04.2016 16:32 14,4 C 69 % 1009,2 hPa 0,0 l/m 6,6 km/h (2 Bft) NW 304 0 min 0,000 mm 0,0 UV-I 38 W/m 8,8 C 14,3 C 11,3 km/h (2 Bft) 100,00 %
17.04.2016 16:33 14,4 C 69 % 1009,2 hPa 0,0 l/m 2,5 km/h (1 Bft) NW 321 0 min 0,000 mm 0,0 UV-I 37 W/m 8,8 C 14,4 C 3,2 km/h (1 Bft) 91,67 %
17.04.2016 16:34 14,3 C 70 % 1009,2 hPa 0,0 l/m 3,2 km/h (1 Bft) NW 304 0 min 0,000 mm 0,0 UV-I 35 W/m 8,9 C 14,3 C 6,4 km/h (2 Bft) 100,00 %
17.04.2016 16:35 14,3 C 70 % 1009,2 hPa 0,0 l/m 3,2 km/h (1 Bft) N-NW 331 0 min 0,000 mm 0,0 UV-I 34 W/m 8,9 C 14,3 C 4,8 km/h (1 Bft) 96,30 %
17.04.2016 16:36 14,3 C 71 % 1009,2 hPa 0,0 l/m 3,6 km/h (1 Bft) NW 307 0 min 0,000 mm 0,0 UV-I 33 W/m 9,1 C 14,3 C 4,8 km/h (1 Bft) 89,47 %
17.04.2016 16:37 14,2 C 71 % 1009,2 hPa 0,0 l/m 5,1 km/h (1 Bft) W 275 0 min 0,000 mm 0,0 UV-I 32 W/m 9,0 C 14,2 C 8,0 km/h (2 Bft) 100,00 %
17.04.2016 16:38 14,2 C 71 % 1009,2 hPa 0,0 l/m 3,6 km/h (1 Bft) N-NW 332 0 min 0,000 mm 0,0 UV-I 30 W/m 9,0 C 14,2 C 8,0 km/h (2 Bft) 92,31 %
17.04.2016 16:39 14,1 C 72 % 1009,2 hPa 0,0 l/m 2,6 km/h (1 Bft) NW 306 0 min 0,000 mm 0,0 UV-I 28 W/m 9,1 C 14,1 C 4,8 km/h (1 Bft) 100,00 %
17.04.2016 16:40 14,1 C 72 % 1009,2 hPa 0,0 l/m 4,4 km/h (1 Bft) N-NW 346 0 min 0,000 mm 0,0 UV-I 26 W/m 9,1 C 14,1 C 8,0 km/h (2 Bft) 90,91 %
17.04.2016 16:41 14,0 C 72 % 1009,2 hPa 0,0 l/m 4,6 km/h (1 Bft) W-NW 290 0 min 0,000 mm 0,0 UV-I 28 W/m 9,0 C 14,0 C 6,4 km/h (2 Bft) 100,00 %
17.04.2016 16:42 13,9 C 72 % 1009,3 hPa 0,0 l/m 3,1 km/h (1 Bft) W-NW 286 0 min 0,000 mm 0,0 UV-I 28 W/m 8,9 C 13,9 C 6,4 km/h (2 Bft) 96,15 %
17.04.2016 16:43 13,9 C 73 % 1009,2 hPa 0,0 l/m 1,3 km/h (1 Bft) NW 308 0 min 0,000 mm 0,0 UV-I 27 W/m 9,1 C 13,9 C 3,2 km/h (1 Bft) 96,30 %
17.04.2016 16:44 13,9 C 73 % 1009,3 hPa 0,0 l/m 1,4 km/h (1 Bft) NW 309 0 min 0,000 mm 0,0 UV-I 25 W/m 9,1 C 13,9 C 1,6 km/h (1 Bft) 100,00 %
17.04.2016 16:45 13,8 C 74 % 1009,3 hPa 0,0 l/m 2,5 km/h (1 Bft) NW 306 0 min 0,000 mm 0,0 UV-I 23 W/m 9,2 C 13,8 C 4,8 km/h (1 Bft) 95,83 %
17.04.2016 16:46 13,8 C 73 % 1009,3 hPa 0,0 l/m 2,4 km/h (1 Bft) NW 307 0 min 0,000 mm 0,0 UV-I 21 W/m 9,0 C 13,8 C 4,8 km/h (1 Bft) 95,83 %
17.04.2016 16:47 13,8 C 74 % 1009,3 hPa 0,0 l/m 3,8 km/h (1 Bft) NW 319 0 min 0,000 mm 0,0 UV-I 21 W/m 9,2 C 13,8 C 6,4 km/h (2 Bft) 100,00 %
17.04.2016 16:48 13,8 C 73 % 1009,3 hPa 0,0 l/m 2,6 km/h (1 Bft) W-NW 298 0 min 0,000 mm 0,0 UV-I 22 W/m 9,0 C 13,8 C 4,8 km/h (1 Bft) 100,00 %
17.04.2016 16:49 13,8 C 74 % 1009,4 hPa 0,0 l/m 3,5 km/h (1 Bft) N-NW 330 0 min 0,000 mm 0,0 UV-I 24 W/m 9,2 C 13,8 C 8,0 km/h (2 Bft) 95,65 %
17.04.2016 16:50 13,7 C 73 % 1009,3 hPa 0,0 l/m 2,6 km/h (1 Bft) NW 313 0 min 0,000 mm 0,0 UV-I 26 W/m 8,9 C 13,7 C 4,8 km/h (1 Bft) 100,00 %
17.04.2016 16:51 13,7 C 73 % 1009,3 hPa 0,0 l/m 6,0 km/h (2 Bft) W-NW 296 0 min 0,000 mm 0,0 UV-I 26 W/m 8,9 C 13,7 C 12,9 km/h (3 Bft) 95,65 %
17.04.2016 16:52 13,7 C 73 % 1009,4 hPa 0,0 l/m 5,2 km/h (1 Bft) NW 314 0 min 0,000 mm 0,0 UV-I 25 W/m 8,9 C 13,7 C 6,4 km/h (2 Bft) 100,00 %
17.04.2016 16:53 13,7 C 72 % 1009,4 hPa 0,0 l/m 4,2 km/h (1 Bft) N 355 0 min 0,000 mm 0,0 UV-I 24 W/m 8,7 C 13,7 C 8,0 km/h (2 Bft) 100,00 %
17.04.2016 16:54 13,7 C 73 % 1009,4 hPa 0,0 l/m 5,4 km/h (1 Bft) W-NW 284 0 min 0,000 mm 0,0 UV-I 23 W/m 8,9 C 13,7 C 8,0 km/h (2 Bft) 100,00 %
17.04.2016 16:55 13,7 C 73 % 1009,4 hPa 0,0 l/m 5,4 km/h (1 Bft) NW 304 0 min 0,000 mm 0,0 UV-I 23 W/m 8,9 C 13,7 C 11,3 km/h (2 Bft) 95,65 %
17.04.2016 16:56 13,7 C 73 % 1009,4 hPa 0,0 l/m 3,0 km/h (1 Bft) NW 312 0 min 0,000 mm 0,0 UV-I 23 W/m 8,9 C 13,7 C 4,8 km/h (1 Bft) 100,00 %
17.04.2016 16:57 13,7 C 74 % 1009,4 hPa 0,0 l/m 2,3 km/h (1 Bft) NW 321 0 min 0,000 mm 0,0 UV-I 23 W/m 9,2 C 13,7 C 4,8 km/h (1 Bft) 100,00 %
17.04.2016 16:58 13,7 C 73 % 1009,5 hPa 0,0 l/m 4,3 km/h (1 Bft) NW 321 0 min 0,000 mm 0,0 UV-I 21 W/m 8,9 C 13,7 C 6,4 km/h (2 Bft) 95,83 %
17.04.2016 16:59 13,7 C 73 % 1009,5 hPa 0,0 l/m 3,4 km/h (1 Bft) N-NW 329 0 min 0,000 mm 0,0 UV-I 21 W/m 8,9 C 13,7 C 6,4 km/h (2 Bft) 100,00 %
17.04.2016 17:00 13,6 C 74 % 1009,4 hPa 0,0 l/m 3,1 km/h (1 Bft) W-NW 302 0 min 0,051 mm 0,0 UV-I 21 W/m 9,1 C 13,6 C 4,8 km/h (1 Bft) 96,30 %
17.04.2016 17:01 13,6 C 74 % 1009,5 hPa 0,0 l/m 3,1 km/h (1 Bft) NW 321 0 min 0,000 mm 0,0 UV-I 22 W/m 9,1 C 13,6 C 4,8 km/h (1 Bft) 100,00 %
17.04.2016 17:02 13,5 C 74 % 1009,5 hPa 0,0 l/m 4,0 km/h (1 Bft) NW 304 0 min 0,000 mm 0,0 UV-I 25 W/m 9,0 C 13,5 C 6,4 km/h (2 Bft) 100,00 %
17.04.2016 17:03 13,5 C 74 % 1009,5 hPa 0,0 l/m 4,6 km/h (1 Bft) W-NW 287 0 min 0,000 mm 0,0 UV-I 25 W/m 9,0 C 13,5 C 6,4 km/h (2 Bft) 100,00 %
17.04.2016 17:04 13,5 C 74 % 1009,5 hPa 0,0 l/m 3,2 km/h (1 Bft) W-NW 302 0 min 0,000 mm 0,0 UV-I 25 W/m 9,0 C 13,5 C 4,8 km/h (1 Bft) 100,00 %
17.04.2016 17:05 13,4 C 74 % 1009,4 hPa 0,0 l/m 3,2 km/h (1 Bft) NW 317 0 min 0,000 mm 0,0 UV-I 25 W/m 8,9 C 13,4 C 4,8 km/h (1 Bft) 100,00 %
17.04.2016 17:06 13,4 C 74 % 1009,5 hPa 0,0 l/m 4,0 km/h (1 Bft) W-NW 302 0 min 0,000 mm 0,0 UV-I 25 W/m 8,9 C 13,4 C 9,7 km/h (2 Bft) 100,00 %
17.04.2016 17:07 13,4 C 75 % 1009,5 hPa 0,0 l/m 4,0 km/h (1 Bft) NW 325 0 min 0,000 mm 0,0 UV-I 25 W/m 9,1 C 13,4 C 4,8 km/h (1 Bft) 100,00 %
17.04.2016 17:08 13,4 C 74 % 1009,4 hPa 0,0 l/m 3,2 km/h (1 Bft) NW 317 0 min 0,000 mm 0,0 UV-I 25 W/m 8,9 C 13,4 C 8,0 km/h (2 Bft) 100,00 %
17.04.2016 17:09 13,4 C 75 % 1009,5 hPa 0,0 l/m 3,0 km/h (1 Bft) W-NW 298 0 min 0,000 mm 0,0 UV-I 25 W/m 9,1 C 13,4 C 4,8 km/h (1 Bft) 100,00 %
17.04.2016 17:10 13,4 C 75 % 1009,4 hPa 0,0 l/m 1,5 km/h (1 Bft) NW 306 0 min 0,000 mm 0,0 UV-I 26 W/m 9,1 C 13,4 C 3,2 km/h (1 Bft) 100,00 %
17.04.2016 17:11 13,3 C 75 % 1009,4 hPa 0,0 l/m 1,9 km/h (1 Bft) N-NW 339 0 min 0,000 mm 0,0 UV-I 29 W/m 9,0 C 13,3 C 6,4 km/h (2 Bft) 100,00 %
17.04.2016 17:12 13,3 C 75 % 1009,4 hPa 0,0 l/m 1,8 km/h (1 Bft) NW 310 0 min 0,000 mm 0,0 UV-I 34 W/m 9,0 C 13,3 C 3,2 km/h (1 Bft) 100,00 %
17.04.2016 17:13 13,3 C 76 % 1009,4 hPa 0,0 l/m 2,2 km/h (1 Bft) NW 326 0 min 0,000 mm 0,0 UV-I 36 W/m 9,2 C 13,3 C 4,8 km/h (1 Bft) 100,00 %
17.04.2016 17:14 13,3 C 76 % 1009,3 hPa 0,0 l/m 2,3 km/h (1 Bft) NW 323 0 min 0,000 mm 0,0 UV-I 40 W/m 9,2 C 13,3 C 4,8 km/h (1 Bft) 96,15 %
17.04.2016 17:15 13,3 C 76 % 1009,4 hPa 0,0 l/m 0,8 km/h (0 Bft) NW 323 0 min 0,000 mm 0,0 UV-I 46 W/m 9,2 C 13,3 C 3,2 km/h (1 Bft) 100,00 %
17.04.2016 17:16 13,2 C 77 % 1009,3 hPa 0,0 l/m 2,5 km/h (1 Bft) NW 319 0 min 0,000 mm 0,0 UV-I 50 W/m 9,3 C 13,2 C 4,8 km/h (1 Bft) 100,00 %
17.04.2016 17:17 13,2 C 76 % 1009,4 hPa 0,0 l/m 1,5 km/h (1 Bft) NW 319 0 min 0,000 mm 0,0 UV-I 53 W/m 9,1 C 13,2 C 3,2 km/h (1 Bft) 100,00 %
17.04.2016 17:18 13,2 C 77 % 1009,4 hPa 0,0 l/m 0,5 km/h (0 Bft) NW 319 0 min 0,000 mm 0,0 UV-I 49 W/m 9,3 C 13,2 C 1,6 km/h (1 Bft) 100,00 %
17.04.2016 17:19 13,2 C 77 % 1009,4 hPa 0,0 l/m 1,2 km/h (1 Bft) NW 319 0 min 0,000 mm 0,0 UV-I 43 W/m 9,3 C 13,2 C 3,2 km/h (1 Bft) 95,83 %
17.04.2016 17:20 13,2 C 77 % 1009,4 hPa 0,0 l/m 0,9 km/h (0 Bft) NW 319 0 min 0,000 mm 0,0 UV-I 39 W/m 9,3 C 13,2 C 1,6 km/h (1 Bft) 100,00 %
17.04.2016 17:21 13,2 C 78 % 1009,4 hPa 0,0 l/m 0,9 km/h (0 Bft) NW 319 0 min 0,000 mm 0,0 UV-I 39 W/m 9,4 C 13,2 C 1,6 km/h (1 Bft) 100,00 %
17.04.2016 17:22 13,2 C 79 % 1009,4 hPa 0,0 l/m 1,7 km/h (1 Bft) NW 313 0 min 0,000 mm 0,0 UV-I 36 W/m 9,6 C 13,2 C 3,2 km/h (1 Bft) 100,00 %
17.04.2016 17:23 13,2 C 78 % 1009,4 hPa 0,0 l/m 0,9 km/h (0 Bft) N-NW 330 0 min 0,000 mm 0,0 UV-I 35 W/m 9,4 C 13,2 C 3,2 km/h (1 Bft) 100,00 %
17.04.2016 17:24 13,2 C 78 % 1009,4 hPa 0,0 l/m 2,9 km/h (1 Bft) S-SW 213 0 min 0,000 mm 0,0 UV-I 34 W/m 9,4 C 13,2 C 4,8 km/h (1 Bft) 100,00 %
17.04.2016 17:25 13,2 C 78 % 1009,4 hPa 0,0 l/m 2,2 km/h (1 Bft) S-SW 213 0 min 0,000 mm 0,0 UV-I 33 W/m 9,4 C 13,2 C 3,2 km/h (1 Bft) 100,00 %
17.04.2016 17:26 13,2 C 78 % 1009,4 hPa 0,0 l/m 2,3 km/h (1 Bft) S-SW 213 0 min 0,000 mm 0,0 UV-I 32 W/m 9,4 C 13,2 C 3,2 km/h (1 Bft) 100,00 %
17.04.2016 17:27 13,2 C 79 % 1009,4 hPa 0,0 l/m 3,0 km/h (1 Bft) S-SW 213 0 min 0,000 mm 0,0 UV-I 32 W/m 9,6 C 13,2 C 3,2 km/h (1 Bft) 95,65 %
17.04.2016 17:28 13,2 C 79 % 1009,5 hPa 0,0 l/m 2,7 km/h (1 Bft) S-SW 213 0 min 0,000 mm 0,0 UV-I 30 W/m 9,6 C 13,2 C 3,2 km/h (1 Bft) 95,83 %
17.04.2016 17:29 13,2 C 79 % 1009,4 hPa 0,0 l/m 2,4 km/h (1 Bft) SW 235 0 min 0,000 mm 0,0 UV-I 28 W/m 9,6 C 13,2 C 4,8 km/h (1 Bft) 100,00 %
17.04.2016 17:30 13,2 C 79 % 1009,5 hPa 0,0 l/m 1,9 km/h (1 Bft) SW 235 0 min 0,000 mm 0,0 UV-I 28 W/m 9,6 C 13,2 C 3,2 km/h (1 Bft) 100,00 %
17.04.2016 17:31 13,2 C 79 % 1009,5 hPa 0,0 l/m 1,5 km/h (1 Bft) SW 235 0 min 0,000 mm 0,0 UV-I 28 W/m 9,6 C 13,2 C 3,2 km/h (1 Bft) 100,00 %
17.04.2016 17:32 13,2 C 79 % 1009,4 hPa 0,0 l/m 1,4 km/h (1 Bft) SW 235 0 min 0,000 mm 0,0 UV-I 30 W/m 9,6 C 13,2 C 1,6 km/h (1 Bft) 100,00 %
17.04.2016 17:33 13,2 C 79 % 1009,5 hPa 0,0 l/m 1,7 km/h (1 Bft) SW 235 0 min 0,000 mm 0,0 UV-I 32 W/m 9,6 C 13,2 C 3,2 km/h (1 Bft) 100,00 %
17.04.2016 17:34 13,2 C 79 % 1009,5 hPa 0,0 l/m 0,7 km/h (0 Bft) SW 235 0 min 0,000 mm 0,0 UV-I 32 W/m 9,6 C 13,2 C 1,6 km/h (1 Bft) 95,83 %
17.04.2016 17:35 13,1 C 79 % 1009,5 hPa 0,0 l/m 1,3 km/h (1 Bft) SW 235 0 min 0,000 mm 0,0 UV-I 32 W/m 9,5 C 13,1 C 3,2 km/h (1 Bft) 100,00 %
17.04.2016 17:36 13,1 C 80 % 1009,5 hPa 0,0 l/m 0,2 km/h (0 Bft) SW 235 0 min 0,000 mm 0,0 UV-I 32 W/m 9,7 C 13,1 C 1,6 km/h (1 Bft) 100,00 %
17.04.2016 17:37 13,1 C 80 % 1009,5 hPa 0,0 l/m 1,7 km/h (1 Bft) SW 235 0 min 0,000 mm 0,0 UV-I 30 W/m 9,7 C 13,1 C 3,2 km/h (1 Bft) 100,00 %
17.04.2016 17:38 13,1 C 79 % 1009,5 hPa 0,0 l/m 2,8 km/h (1 Bft) SW 235 0 min 0,000 mm 0,0 UV-I 30 W/m 9,5 C 13,1 C 4,8 km/h (1 Bft) 100,00 %
17.04.2016 17:39 13,1 C 80 % 1009,5 hPa 0,0 l/m 3,1 km/h (1 Bft) SW 235 0 min 0,000 mm 0,0 UV-I 30 W/m 9,7 C 13,1 C 4,8 km/h (1 Bft) 100,00 %
17.04.2016 17:40 13,0 C 80 % 1009,5 hPa 0,0 l/m 2,2 km/h (1 Bft) SW 235 0 min 0,000 mm 0,0 UV-I 31 W/m 9,6 C 13,0 C 3,2 km/h (1 Bft) 95,83 %
17.04.2016 17:41 13,0 C 81 % 1009,5 hPa 0,0 l/m 1,9 km/h (1 Bft) SW 235 0 min 0,000 mm 0,0 UV-I 32 W/m 9,8 C 13,0 C 3,2 km/h (1 Bft) 100,00 %
17.04.2016 17:42 12,9 C 81 % 1009,5 hPa 0,0 l/m 0,9 km/h (0 Bft) SW 235 0 min 0,000 mm 0,0 UV-I 32 W/m 9,7 C 12,9 C 1,6 km/h (1 Bft) 100,00 %
17.04.2016 17:43 12,9 C 81 % 1009,5 hPa 0,0 l/m 0,8 km/h (0 Bft) SW 235 0 min 0,000 mm 0,0 UV-I 32 W/m 9,7 C 12,9 C 1,6 km/h (1 Bft) 100,00 %
17.04.2016 17:44 12,9 C 81 % 1009,5 hPa 0,0 l/m 2,4 km/h (1 Bft) SW 235 0 min 0,000 mm 0,0 UV-I 32 W/m 9,7 C 12,9 C 3,2 km/h (1 Bft) 100,00 %
17.04.2016 17:45 12,9 C 81 % 1009,5 hPa 0,0 l/m 2,1 km/h (1 Bft) SW 235 0 min 0,000 mm 0,0 UV-I 32 W/m 9,7 C 12,9 C 3,2 km/h (1 Bft) 100,00 %
17.04.2016 17:46 12,9 C 81 % 1009,5 hPa 0,0 l/m 2,9 km/h (1 Bft) SW 235 0 min 0,000 mm 0,0 UV-I 32 W/m 9,7 C 12,9 C 4,8 km/h (1 Bft) 100,00 %
17.04.2016 17:47 12,9 C 82 % 1009,5 hPa 0,0 l/m 2,5 km/h (1 Bft) SW 235 0 min 0,000 mm 0,0 UV-I 32 W/m 9,9 C 12,9 C 4,8 km/h (1 Bft) 100,00 %
17.04.2016 17:48 12,9 C 82 % 1009,5 hPa 0,0 l/m 3,3 km/h (1 Bft) SW 236 0 min 0,000 mm 0,0 UV-I 32 W/m 9,9 C 12,9 C 4,8 km/h (1 Bft) 100,00 %
17.04.2016 17:49 12,9 C 82 % 1009,5 hPa 0,0 l/m 3,8 km/h (1 Bft) W-SW 237 0 min 0,000 mm 0,0 UV-I 30 W/m 9,9 C 12,9 C 4,8 km/h (1 Bft) 100,00 %
17.04.2016 17:50 12,9 C 81 % 1009,5 hPa 0,0 l/m 2,9 km/h (1 Bft) W-SW 237 0 min 0,000 mm 0,0 UV-I 28 W/m 9,7 C 12,9 C 4,8 km/h (1 Bft) 100,00 %
17.04.2016 17:51 12,9 C 82 % 1009,5 hPa 0,0 l/m 3,7 km/h (1 Bft) W-SW 237 0 min 0,000 mm 0,0 UV-I 26 W/m 9,9 C 12,9 C 4,8 km/h (1 Bft) 100,00 %
17.04.2016 17:52 12,9 C 82 % 1009,6 hPa 0,0 l/m 4,2 km/h (1 Bft) W-SW 237 0 min 0,000 mm 0,0 UV-I 26 W/m 9,9 C 12,9 C 4,8 km/h (1 Bft) 100,00 %
17.04.2016 17:53 12,9 C 82 % 1009,6 hPa 0,0 l/m 3,8 km/h (1 Bft) SW 236 0 min 0,000 mm 0,0 UV-I 27 W/m 9,9 C 12,9 C 4,8 km/h (1 Bft) 100,00 %
17.04.2016 17:54 12,9 C 82 % 1009,6 hPa 0,0 l/m 5,0 km/h (1 Bft) SW 229 0 min 0,000 mm 0,0 UV-I 29 W/m 9,9 C 12,9 C 8,0 km/h (2 Bft) 100,00 %
17.04.2016 17:55 12,8 C 82 % 1009,5 hPa 0,0 l/m 4,8 km/h (1 Bft) W-SW 238 0 min 0,000 mm 0,0 UV-I 32 W/m 9,8 C 12,8 C 6,4 km/h (2 Bft) 95,83 %
17.04.2016 17:56 12,8 C 82 % 1009,5 hPa 0,0 l/m 3,8 km/h (1 Bft) W-SW 239 0 min 0,000 mm 0,0 UV-I 36 W/m 9,8 C 12,8 C 4,8 km/h (1 Bft) 100,00 %
17.04.2016 17:57 12,8 C 82 % 1009,5 hPa 0,0 l/m 3,6 km/h (1 Bft) W-SW 240 0 min 0,000 mm 0,0 UV-I 40 W/m 9,8 C 12,8 C 4,8 km/h (1 Bft) 100,00 %
17.04.2016 17:58 12,8 C 82 % 1009,5 hPa 0,0 l/m 3,8 km/h (1 Bft) W-SW 240 0 min 0,000 mm 0,0 UV-I 44 W/m 9,8 C 12,8 C 6,4 km/h (2 Bft) 100,00 %
17.04.2016 17:59 12,8 C 82 % 1009,4 hPa 0,0 l/m 2,3 km/h (1 Bft) W-SW 240 0 min 0,000 mm 0,0 UV-I 49 W/m 9,8 C 12,8 C 3,2 km/h (1 Bft) 100,00 %
17.04.2016 18:00 12,8 C 83 % 1009,4 hPa 0,0 l/m 1,5 km/h (1 Bft) W-SW 240 0 min 0,000 mm 0,0 UV-I 56 W/m 10,0 C 12,8 C 3,2 km/h (1 Bft) 100,00 %
17.04.2016 18:01 12,8 C 83 % 1009,3 hPa 0,0 l/m 0,4 km/h (0 Bft) W-SW 240 0 min 0,025 mm 0,0 UV-I 66 W/m 10,0 C 12,8 C 1,6 km/h (1 Bft) 95,83 %
17.04.2016 18:02 12,8 C 82 % 1009,3 hPa 0,0 l/m 0,0 km/h (0 Bft) W-SW 240 0 min 0,000 mm 0,0 UV-I 69 W/m 9,8 C 12,8 C 0,0 km/h (0 Bft) 100,00 %
17.04.2016 18:03 12,8 C 82 % 1009,3 hPa 0,0 l/m 0,1 km/h (0 Bft) W-SW 240 0 min 0,000 mm 0,0 UV-I 63 W/m 9,8 C 12,8 C 1,6 km/h (1 Bft) 96,30 %
17.04.2016 18:04 12,8 C 82 % 1009,3 hPa 0,0 l/m 0,0 km/h (0 Bft) W-SW 240 0 min 0,000 mm 0,0 UV-I 53 W/m 9,8 C 12,8 C 0,0 km/h (0 Bft) 100,00 %
17.04.2016 18:05 12,8 C 81 % 1009,3 hPa 0,0 l/m 0,0 km/h (0 Bft) W-SW 240 0 min 0,000 mm 0,0 UV-I 44 W/m 9,6 C 12,8 C 0,0 km/h (0 Bft) 100,00 %
17.04.2016 18:06 12,8 C 81 % 1009,3 hPa 0,0 l/m 0,0 km/h (0 Bft) W-SW 240 0 min 0,000 mm 0,0 UV-I 42 W/m 9,6 C 12,8 C 0,0 km/h (0 Bft) 100,00 %
17.04.2016 18:07 12,8 C 81 % 1009,3 hPa 0,0 l/m 2,3 km/h (1 Bft) W-SW 240 0 min 0,000 mm 0,0 UV-I 46 W/m 9,6 C 12,8 C 3,2 km/h (1 Bft) 100,00 %
17.04.2016 18:08 12,9 C 81 % 1009,3 hPa 0,0 l/m 2,4 km/h (1 Bft) W-SW 240 0 min 0,000 mm 0,0 UV-I 53 W/m 9,7 C 12,9 C 3,2 km/h (1 Bft) 95,83 %
17.04.2016 18:09 12,9 C 81 % 1009,4 hPa 0,0 l/m 2,3 km/h (1 Bft) W-SW 240 0 min 0,000 mm 0,0 UV-I 52 W/m 9,7 C 12,9 C 3,2 km/h (1 Bft) 100,00 %
17.04.2016 18:10 12,9 C 81 % 1009,4 hPa 0,0 l/m 3,0 km/h (1 Bft) W-SW 240 0 min 0,000 mm 0,0 UV-I 45 W/m 9,7 C 12,9 C 4,8 km/h (1 Bft) 100,00 %
17.04.2016 18:11 12,9 C 82 % 1009,5 hPa 0,0 l/m 2,8 km/h (1 Bft) W-SW 240 0 min 0,000 mm 0,0 UV-I 35 W/m 9,9 C 12,9 C 4,8 km/h (1 Bft) 100,00 %
17.04.2016 18:12 12,9 C 82 % 1009,5 hPa 0,0 l/m 3,0 km/h (1 Bft) SW 216 0 min 0,000 mm 0,0 UV-I 29 W/m 9,9 C 12,9 C 4,8 km/h (1 Bft) 100,00 %
17.04.2016 18:13 12,8 C 82 % 1009,6 hPa 0,0 l/m 5,3 km/h (1 Bft) S-SW 198 0 min 0,000 mm 0,0 UV-I 26 W/m 9,8 C 12,8 C 6,4 km/h (2 Bft) 96,15 %
17.04.2016 18:14 12,8 C 82 % 1009,5 hPa 0,0 l/m 3,9 km/h (1 Bft) S-SW 197 0 min 0,000 mm 0,0 UV-I 28 W/m 9,8 C 12,8 C 4,8 km/h (1 Bft) 100,00 %
17.04.2016 18:15 12,8 C 82 % 1009,5 hPa 0,0 l/m 3,1 km/h (1 Bft) S-SW 197 0 min 0,000 mm 0,0 UV-I 30 W/m 9,8 C 12,8 C 4,8 km/h (1 Bft) 95,65 %
17.04.2016 18:16 12,8 C 82 % 1009,6 hPa 0,0 l/m 3,2 km/h (1 Bft) S-SW 197 0 min 0,000 mm 0,0 UV-I 30 W/m 9,8 C 12,8 C 4,8 km/h (1 Bft) 100,00 %
17.04.2016 18:17 12,8 C 82 % 1009,5 hPa 0,0 l/m 2,9 km/h (1 Bft) S-SW 211 0 min 0,000 mm 0,0 UV-I 32 W/m 9,8 C 12,8 C 4,8 km/h (1 Bft) 92,86 %
17.04.2016 18:18 12,8 C 81 % 1009,5 hPa 0,0 l/m 3,5 km/h (1 Bft) S 187 0 min 0,000 mm 0,0 UV-I 35 W/m 9,6 C 12,8 C 4,8 km/h (1 Bft) 100,00 %
17.04.2016 18:19 12,8 C 81 % 1009,6 hPa 0,0 l/m 4,3 km/h (1 Bft) S-SW 207 0 min 0,000 mm 0,0 UV-I 35 W/m 9,6 C 12,8 C 4,8 km/h (1 Bft) 96,15 %
17.04.2016 18:20 12,8 C 81 % 1009,5 hPa 0,0 l/m 3,1 km/h (1 Bft) S-SW 207 0 min 0,000 mm 0,0 UV-I 33 W/m 9,6 C 12,8 C 4,8 km/h (1 Bft) 96,30 %
17.04.2016 18:21 12,8 C 81 % 1009,5 hPa 0,0 l/m 2,5 km/h (1 Bft) S-SW 206 0 min 0,000 mm 0,0 UV-I 30 W/m 9,6 C 12,8 C 4,8 km/h (1 Bft) 100,00 %
17.04.2016 18:22 12,8 C 82 % 1009,5 hPa 0,0 l/m 2,5 km/h (1 Bft) S-SW 206 0 min 0,000 mm 0,0 UV-I 26 W/m 9,8 C 12,8 C 4,8 km/h (1 Bft) 95,83 %
17.04.2016 18:23 12,8 C 82 % 1009,6 hPa 0,0 l/m 1,4 km/h (1 Bft) S-SW 206 0 min 0,000 mm 0,0 UV-I 24 W/m 9,8 C 12,8 C 1,6 km/h (1 Bft) 100,00 %
17.04.2016 18:24 12,8 C 82 % 1009,7 hPa 0,0 l/m 1,5 km/h (1 Bft) S-SW 206 0 min 0,000 mm 0,0 UV-I 23 W/m 9,8 C 12,8 C 3,2 km/h (1 Bft) 96,15 %
17.04.2016 18:25 12,7 C 82 % 1009,7 hPa 0,0 l/m 1,6 km/h (1 Bft) S-SW 206 0 min 0,000 mm 0,0 UV-I 21 W/m 9,7 C 12,7 C 3,2 km/h (1 Bft) 100,00 %
17.04.2016 18:26 12,7 C 82 % 1009,7 hPa 0,0 l/m 0,9 km/h (0 Bft) S-SW 206 0 min 0,000 mm 0,0 UV-I 23 W/m 9,7 C 12,7 C 1,6 km/h (1 Bft) 95,65 %
17.04.2016 18:27 12,7 C 82 % 1009,7 hPa 0,0 l/m 1,0 km/h (0 Bft) S-SW 206 0 min 0,000 mm 0,0 UV-I 23 W/m 9,7 C 12,7 C 1,6 km/h (1 Bft) 100,00 %
17.04.2016 18:28 12,7 C 83 % 1009,7 hPa 0,0 l/m 1,7 km/h (1 Bft) S-SW 206 0 min 0,000 mm 0,0 UV-I 22 W/m 9,9 C 12,7 C 3,2 km/h (1 Bft) 95,65 %
17.04.2016 18:29 12,7 C 83 % 1009,7 hPa 0,0 l/m 1,2 km/h (1 Bft) S-SW 206 0 min 0,000 mm 0,0 UV-I 20 W/m 9,9 C 12,7 C 3,2 km/h (1 Bft) 96,30 %
17.04.2016 18:30 12,7 C 82 % 1009,7 hPa 0,0 l/m 0,4 km/h (0 Bft) S-SW 206 0 min 0,000 mm 0,0 UV-I 16 W/m 9,7 C 12,7 C 1,6 km/h (1 Bft) 100,00 %
17.04.2016 18:31 12,7 C 83 % 1009,7 hPa 0,0 l/m 0,8 km/h (0 Bft) S-SW 206 0 min 0,000 mm 0,0 UV-I 16 W/m 9,9 C 12,7 C 1,6 km/h (1 Bft) 96,30 %
17.04.2016 18:32 12,7 C 82 % 1009,7 hPa 0,0 l/m 0,8 km/h (0 Bft) S-SW 206 0 min 0,000 mm 0,0 UV-I 18 W/m 9,7 C 12,7 C 1,6 km/h (1 Bft) 100,00 %
17.04.2016 18:33 12,7 C 83 % 1009,7 hPa 0,0 l/m 0,1 km/h (0 Bft) S-SW 206 0 min 0,000 mm 0,0 UV-I 18 W/m 9,9 C 12,7 C 1,6 km/h (1 Bft) 95,83 %
17.04.2016 18:34 12,7 C 83 % 1009,7 hPa 0,0 l/m 1,5 km/h (1 Bft) S-SW 206 0 min 0,000 mm 0,0 UV-I 18 W/m 9,9 C 12,7 C 3,2 km/h (1 Bft) 100,00 %
17.04.2016 18:35 12,7 C 83 % 1009,7 hPa 0,0 l/m 1,9 km/h (1 Bft) S-SW 206 0 min 0,000 mm 0,0 UV-I 17 W/m 9,9 C 12,7 C 3,2 km/h (1 Bft) 95,83 %
17.04.2016 18:36 12,7 C 84 % 1009,8 hPa 0,0 l/m 2,5 km/h (1 Bft) S-SW 206 0 min 0,000 mm 0,0 UV-I 16 W/m 10,1 C 12,7 C 3,2 km/h (1 Bft) 100,00 %
17.04.2016 18:37 12,6 C 84 % 1009,8 hPa 0,0 l/m 2,0 km/h (1 Bft) S-SW 206 0 min 0,000 mm 0,0 UV-I 16 W/m 10,0 C 12,6 C 3,2 km/h (1 Bft) 95,83 %
17.04.2016 18:38 12,7 C 83 % 1009,8 hPa 0,0 l/m 1,1 km/h (1 Bft) S-SW 206 0 min 0,000 mm 0,0 UV-I 18 W/m 9,9 C 12,7 C 3,2 km/h (1 Bft) 100,00 %
17.04.2016 18:39 12,6 C 84 % 1009,8 hPa 0,0 l/m 0,9 km/h (0 Bft) S-SW 206 0 min 0,000 mm 0,0 UV-I 18 W/m 10,0 C 12,6 C 1,6 km/h (1 Bft) 95,83 %
17.04.2016 18:40 12,6 C 84 % 1009,8 hPa 0,0 l/m 1,1 km/h (1 Bft) S-SW 206 0 min 0,000 mm 0,0 UV-I 20 W/m 10,0 C 12,6 C 3,2 km/h (1 Bft) 96,15 %
17.04.2016 18:41 12,6 C 83 % 1009,8 hPa 0,0 l/m 3,9 km/h (1 Bft) S 182 0 min 0,000 mm 0,0 UV-I 21 W/m 9,8 C 12,6 C 8,0 km/h (2 Bft) 100,00 %
17.04.2016 18:42 12,6 C 83 % 1009,8 hPa 0,0 l/m 3,9 km/h (1 Bft) S 180 0 min 0,000 mm 0,0 UV-I 21 W/m 9,8 C 12,6 C 6,4 km/h (2 Bft) 98,43 %
17.04.2016 18:43 12,6 C 82 % 1009,7 hPa 0,0 l/m 1,4 km/h (1 Bft) S 180 0 min 0,000 mm 0,0 UV-I 21 W/m 9,6 C 12,6 C 3,2 km/h (1 Bft) 97,56 %
17.04.2016 18:44 12,6 C 83 % 1009,7 hPa 0,0 l/m 2,3 km/h (1 Bft) S 180 0 min 0,000 mm 0,0 UV-I 23 W/m 9,8 C 12,6 C 4,8 km/h (1 Bft) 95,83 %
17.04.2016 18:45 12,6 C 83 % 1009,7 hPa 0,0 l/m 2,3 km/h (1 Bft) S 180 0 min 0,000 mm 0,0 UV-I 23 W/m 9,8 C 12,6 C 3,2 km/h (1 Bft) 100,00 %
17.04.2016 18:46 12,6 C 83 % 1009,8 hPa 0,0 l/m 2,3 km/h (1 Bft) S 180 0 min 0,000 mm 0,0 UV-I 22 W/m 9,8 C 12,6 C 3,2 km/h (1 Bft) 92,31 %
17.04.2016 18:47 12,6 C 84 % 1009,8 hPa 0,0 l/m 3,8 km/h (1 Bft) S 180 0 min 0,000 mm 0,0 UV-I 20 W/m 10,0 C 12,6 C 4,8 km/h (1 Bft) 95,83 %
17.04.2016 18:48 12,6 C 83 % 1009,8 hPa 0,0 l/m 3,1 km/h (1 Bft) S 180 0 min 0,000 mm 0,0 UV-I 18 W/m 9,8 C 12,6 C 4,8 km/h (1 Bft) 100,00 %
17.04.2016 18:49 12,5 C 84 % 1009,8 hPa 0,0 l/m 2,8 km/h (1 Bft) S-SW 196 0 min 0,000 mm 0,0 UV-I 16 W/m 9,9 C 12,5 C 4,8 km/h (1 Bft) 100,00 %
17.04.2016 18:50 12,5 C 84 % 1009,8 hPa 0,0 l/m 3,2 km/h (1 Bft) S-SW 194 0 min 0,000 mm 0,0 UV-I 16 W/m 9,9 C 12,5 C 4,8 km/h (1 Bft) 100,00 %
17.04.2016 18:51 12,4 C 84 % 1009,8 hPa 0,0 l/m 3,8 km/h (1 Bft) S-SW 194 0 min 0,000 mm 0,0 UV-I 16 W/m 9,8 C 12,4 C 4,8 km/h (1 Bft) 100,00 %
17.04.2016 18:52 12,4 C 84 % 1009,8 hPa 0,0 l/m 3,0 km/h (1 Bft) S-SW 194 0 min 0,000 mm 0,0 UV-I 16 W/m 9,8 C 12,4 C 3,2 km/h (1 Bft) 100,00 %
17.04.2016 18:53 12,4 C 84 % 1009,8 hPa 0,0 l/m 3,1 km/h (1 Bft) S-SW 194 0 min 0,000 mm 0,0 UV-I 16 W/m 9,8 C 12,4 C 4,8 km/h (1 Bft) 100,00 %
17.04.2016 18:54 12,4 C 84 % 1009,8 hPa 0,0 l/m 4,4 km/h (1 Bft) S-SW 196 0 min 0,000 mm 0,0 UV-I 16 W/m 9,8 C 12,4 C 6,4 km/h (2 Bft) 95,83 %
17.04.2016 18:55 12,4 C 84 % 1009,8 hPa 0,0 l/m 3,1 km/h (1 Bft) S-SW 196 0 min 0,000 mm 0,0 UV-I 16 W/m 9,8 C 12,4 C 4,8 km/h (1 Bft) 100,00 %
17.04.2016 18:56 12,4 C 84 % 1009,8 hPa 0,0 l/m 2,7 km/h (1 Bft) S-SW 196 0 min 0,000 mm 0,0 UV-I 15 W/m 9,8 C 12,4 C 4,8 km/h (1 Bft) 100,00 %
17.04.2016 18:57 12,3 C 84 % 1009,8 hPa 0,0 l/m 4,4 km/h (1 Bft) S-SW 207 0 min 0,000 mm 0,0 UV-I 13 W/m 9,7 C 12,3 C 6,4 km/h (2 Bft) 100,00 %
17.04.2016 18:58 12,3 C 85 % 1009,8 hPa 0,0 l/m 4,7 km/h (1 Bft) S-SW 198 0 min 0,000 mm 0,0 UV-I 11 W/m 9,9 C 12,3 C 6,4 km/h (2 Bft) 91,67 %
17.04.2016 18:59 12,3 C 85 % 1009,8 hPa 0,0 l/m 3,0 km/h (1 Bft) S-SW 198 0 min 0,000 mm 0,0 UV-I 11 W/m 9,9 C 12,3 C 4,8 km/h (1 Bft) 100,00 %
17.04.2016 19:00 12,3 C 84 % 1009,9 hPa 0,0 l/m 3,0 km/h (1 Bft) W-SW 252 0 min 0,000 mm 0,0 UV-I 9 W/m 9,7 C 12,3 C 6,4 km/h (2 Bft) 100,00 %
17.04.2016 19:01 12,3 C 84 % 1009,9 hPa 0,0 l/m 3,8 km/h (1 Bft) W-SW 250 0 min 0,026 mm 0,0 UV-I 9 W/m 9,7 C 12,3 C 4,8 km/h (1 Bft) 91,67 %
17.04.2016 19:02 12,3 C 84 % 1009,9 hPa 0,0 l/m 2,4 km/h (1 Bft) W-SW 250 0 min 0,000 mm 0,0 UV-I 9 W/m 9,7 C 12,3 C 3,2 km/h (1 Bft) 100,00 %
17.04.2016 19:03 12,3 C 84 % 1009,9 hPa 0,0 l/m 4,3 km/h (1 Bft) W-SW 246 0 min 0,000 mm 0,0 UV-I 8 W/m 9,7 C 12,3 C 4,8 km/h (1 Bft) 100,00 %
17.04.2016 19:04 12,3 C 85 % 1009,9 hPa 0,0 l/m 3,9 km/h (1 Bft) W-SW 246 0 min 0,000 mm 0,0 UV-I 7 W/m 9,9 C 12,3 C 4,8 km/h (1 Bft) 100,00 %
17.04.2016 19:05 12,3 C 85 % 1009,9 hPa 0,0 l/m 3,0 km/h (1 Bft) W-SW 246 0 min 0,000 mm 0,0 UV-I 7 W/m 9,9 C 12,3 C 4,8 km/h (1 Bft) 100,00 %
17.04.2016 19:06 12,3 C 85 % 1009,9 hPa 0,0 l/m 3,1 km/h (1 Bft) W-SW 246 0 min 0,000 mm 0,0 UV-I 7 W/m 9,9 C 12,3 C 4,8 km/h (1 Bft) 100,00 %
17.04.2016 19:07 12,2 C 85 % 1009,9 hPa 0,0 l/m 4,1 km/h (1 Bft) W-SW 245 0 min 0,000 mm 0,0 UV-I 7 W/m 9,8 C 12,2 C 6,4 km/h (2 Bft) 100,00 %
17.04.2016 19:08 12,2 C 85 % 1009,9 hPa 0,0 l/m 3,8 km/h (1 Bft) SW 232 0 min 0,000 mm 0,0 UV-I 6 W/m 9,8 C 12,2 C 6,4 km/h (2 Bft) 100,00 %
17.04.2016 19:09 12,2 C 86 % 1009,9 hPa 0,0 l/m 5,1 km/h (1 Bft) SW 226 0 min 0,000 mm 0,0 UV-I 5 W/m 9,9 C 12,2 C 6,4 km/h (2 Bft) 100,00 %
17.04.2016 19:10 12,2 C 86 % 1009,9 hPa 0,0 l/m 4,5 km/h (1 Bft) W-SW 239 0 min 0,000 mm 0,0 UV-I 5 W/m 9,9 C 12,2 C 6,4 km/h (2 Bft) 95,65 %
17.04.2016 19:11 12,2 C 86 % 1009,9 hPa 0,0 l/m 5,9 km/h (2 Bft) SW 223 0 min 0,000 mm 0,0 UV-I 5 W/m 9,9 C 12,2 C 8,0 km/h (2 Bft) 100,00 %
17.04.2016 19:12 12,2 C 86 % 1010,0 hPa 0,0 l/m 5,6 km/h (1 Bft) SW 224 0 min 0,000 mm 0,0 UV-I 5 W/m 9,9 C 12,2 C 8,0 km/h (2 Bft) 100,00 %
17.04.2016 19:13 12,1 C 86 % 1009,9 hPa 0,0 l/m 5,2 km/h (1 Bft) SW 218 0 min 0,000 mm 0,0 UV-I 5 W/m 9,8 C 12,1 C 6,4 km/h (2 Bft) 100,00 %
17.04.2016 19:14 12,1 C 86 % 1010,0 hPa 0,0 l/m 4,8 km/h (1 Bft) SW 230 0 min 0,000 mm 0,0 UV-I 5 W/m 9,8 C 12,1 C 6,4 km/h (2 Bft) 100,00 %
17.04.2016 19:15 12,1 C 86 % 1010,0 hPa 0,0 l/m 5,0 km/h (1 Bft) SW 223 0 min 0,000 mm 0,0 UV-I 5 W/m 9,8 C 12,1 C 8,0 km/h (2 Bft) 95,83 %
17.04.2016 19:16 12,1 C 86 % 1010,0 hPa 0,0 l/m 4,4 km/h (1 Bft) SW 224 0 min 0,000 mm 0,0 UV-I 5 W/m 9,8 C 12,1 C 6,4 km/h (2 Bft) 95,65 %
17.04.2016 19:17 12,1 C 86 % 1010,0 hPa 0,0 l/m 4,4 km/h (1 Bft) SW 224 0 min 0,000 mm 0,0 UV-I 5 W/m 9,8 C 12,1 C 6,4 km/h (2 Bft) 100,00 %
17.04.2016 19:18 12,1 C 86 % 1010,0 hPa 0,0 l/m 3,3 km/h (1 Bft) SW 224 0 min 0,000 mm 0,0 UV-I 5 W/m 9,8 C 12,1 C 6,4 km/h (2 Bft) 95,65 %
17.04.2016 19:19 12,0 C 86 % 1010,0 hPa 0,0 l/m 3,9 km/h (1 Bft) SW 224 0 min 0,000 mm 0,0 UV-I 7 W/m 9,7 C 12,0 C 4,8 km/h (1 Bft) 100,00 %
17.04.2016 19:20 12,0 C 87 % 1010,0 hPa 0,0 l/m 3,4 km/h (1 Bft) SW 224 0 min 0,000 mm 0,0 UV-I 7 W/m 9,9 C 12,0 C 4,8 km/h (1 Bft) 100,00 %
17.04.2016 19:21 12,0 C 87 % 1009,9 hPa 0,0 l/m 2,7 km/h (1 Bft) SW 224 0 min 0,000 mm 0,0 UV-I 7 W/m 9,9 C 12,0 C 4,8 km/h (1 Bft) 100,00 %
17.04.2016 19:22 12,0 C 87 % 1010,0 hPa 0,0 l/m 3,8 km/h (1 Bft) W-SW 244 0 min 0,000 mm 0,0 UV-I 7 W/m 9,9 C 12,0 C 4,8 km/h (1 Bft) 100,00 %
17.04.2016 19:23 12,0 C 87 % 1010,0 hPa 0,0 l/m 4,2 km/h (1 Bft) W 271 0 min 0,000 mm 0,0 UV-I 7 W/m 9,9 C 12,0 C 6,4 km/h (2 Bft) 100,00 %
17.04.2016 19:24 12,0 C 87 % 1010,0 hPa 0,0 l/m 5,1 km/h (1 Bft) W 259 0 min 0,000 mm 0,0 UV-I 7 W/m 9,9 C 12,0 C 9,7 km/h (2 Bft) 100,00 %
17.04.2016 19:25 12,0 C 87 % 1010,0 hPa 0,0 l/m 4,5 km/h (1 Bft) W-SW 257 0 min 0,000 mm 0,0 UV-I 7 W/m 9,9 C 12,0 C 6,4 km/h (2 Bft) 100,00 %
17.04.2016 19:26 11,9 C 87 % 1010,1 hPa 0,0 l/m 4,5 km/h (1 Bft) W-SW 244 0 min 0,000 mm 0,0 UV-I 6 W/m 9,8 C 11,9 C 6,4 km/h (2 Bft) 100,00 %
17.04.2016 19:27 11,9 C 87 % 1010,2 hPa 0,0 l/m 4,6 km/h (1 Bft) W-SW 244 0 min 0,000 mm 0,0 UV-I 5 W/m 9,8 C 11,9 C 6,4 km/h (2 Bft) 95,65 %
17.04.2016 19:28 11,9 C 87 % 1010,2 hPa 0,0 l/m 4,2 km/h (1 Bft) W-SW 254 0 min 0,000 mm 0,0 UV-I 5 W/m 9,8 C 11,9 C 6,4 km/h (2 Bft) 100,00 %
17.04.2016 19:29 11,9 C 86 % 1010,2 hPa 0,0 l/m 4,6 km/h (1 Bft) W-SW 246 0 min 0,000 mm 0,0 UV-I 5 W/m 9,6 C 11,9 C 6,4 km/h (2 Bft) 100,00 %
17.04.2016 19:30 11,9 C 87 % 1010,3 hPa 0,2 l/m 6,1 km/h (2 Bft) W-SW 250 0 min 0,000 mm 0,0 UV-I 5 W/m 9,8 C 11,9 C 8,0 km/h (2 Bft) 100,00 %
17.04.2016 19:31 11,9 C 87 % 1010,2 hPa 0,0 l/m 4,9 km/h (1 Bft) W-SW 253 0 min 0,000 mm 0,0 UV-I 5 W/m 9,8 C 11,9 C 9,7 km/h (2 Bft) 100,00 %
17.04.2016 19:32 11,9 C 87 % 1010,2 hPa 0,0 l/m 4,9 km/h (1 Bft) W-SW 257 0 min 0,000 mm 0,0 UV-I 5 W/m 9,8 C 11,9 C 6,4 km/h (2 Bft) 100,00 %
17.04.2016 19:33 11,9 C 87 % 1010,2 hPa 0,0 l/m 4,4 km/h (1 Bft) W-SW 249 0 min 0,000 mm 0,0 UV-I 5 W/m 9,8 C 11,9 C 4,8 km/h (1 Bft) 100,00 %
17.04.2016 19:34 11,9 C 87 % 1010,2 hPa 0,0 l/m 4,8 km/h (1 Bft) W-SW 252 0 min 0,000 mm 0,0 UV-I 1 W/m 9,8 C 11,9 C 6,4 km/h (2 Bft) 100,00 %
17.04.2016 19:35 11,8 C 87 % 1010,2 hPa 0,0 l/m 3,5 km/h (1 Bft) W-SW 248 0 min 0,000 mm 0,0 UV-I 0 W/m 9,7 C 11,8 C 4,8 km/h (1 Bft) 100,00 %
17.04.2016 19:36 11,8 C 87 % 1010,2 hPa 0,0 l/m 4,9 km/h (1 Bft) SW 219 0 min 0,000 mm 0,0 UV-I 0 W/m 9,7 C 11,8 C 8,0 km/h (2 Bft) 100,00 %
17.04.2016 19:37 11,8 C 87 % 1010,2 hPa 0,0 l/m 4,8 km/h (1 Bft) SW 214 0 min 0,000 mm 0,0 UV-I 0 W/m 9,7 C 11,8 C 6,4 km/h (2 Bft) 100,00 %
17.04.2016 19:38 11,8 C 88 % 1010,2 hPa 0,0 l/m 4,3 km/h (1 Bft) SW 226 0 min 0,000 mm 0,0 UV-I 0 W/m 9,9 C 11,8 C 8,0 km/h (2 Bft) 100,00 %
17.04.2016 19:39 11,8 C 88 % 1010,3 hPa 0,0 l/m 4,3 km/h (1 Bft) S-SW 207 0 min 0,000 mm 0,0 UV-I 0 W/m 9,9 C 11,8 C 6,4 km/h (2 Bft) 100,00 %
17.04.2016 19:40 11,7 C 88 % 1010,3 hPa 0,0 l/m 5,1 km/h (1 Bft) S-SW 199 0 min 0,000 mm 0,0 UV-I 0 W/m 9,8 C 11,7 C 6,4 km/h (2 Bft) 100,00 %
17.04.2016 19:41 11,7 C 88 % 1010,4 hPa 0,0 l/m 5,0 km/h (1 Bft) S 191 0 min 0,000 mm 0,0 UV-I 0 W/m 9,8 C 11,7 C 8,0 km/h (2 Bft) 100,00 %
17.04.2016 19:42 11,7 C 88 % 1010,4 hPa 0,0 l/m 4,9 km/h (1 Bft) S-SW 196 0 min 0,000 mm 0,0 UV-I 0 W/m 9,8 C 11,7 C 8,0 km/h (2 Bft) 100,00 %
17.04.2016 19:43 11,7 C 88 % 1010,4 hPa 0,0 l/m 6,1 km/h (2 Bft) S-SW 198 0 min 0,000 mm 0,0 UV-I 0 W/m 9,8 C 11,7 C 8,0 km/h (2 Bft) 96,55 %
17.04.2016 19:44 11,7 C 88 % 1010,4 hPa 0,0 l/m 5,6 km/h (1 Bft) S-SW 198 0 min 0,000 mm 0,0 UV-I 0 W/m 9,8 C 11,7 C 6,4 km/h (2 Bft) 93,33 %
17.04.2016 19:45 11,7 C 88 % 1010,4 hPa 0,0 l/m 4,7 km/h (1 Bft) S-SW 200 0 min 0,000 mm 0,0 UV-I 0 W/m 9,8 C 11,7 C 6,4 km/h (2 Bft) 100,00 %
17.04.2016 19:46 11,7 C 88 % 1010,4 hPa 0,0 l/m 4,4 km/h (1 Bft) W-SW 246 0 min 0,000 mm 0,0 UV-I 0 W/m 9,8 C 11,7 C 6,4 km/h (2 Bft) 100,00 %
17.04.2016 19:47 11,6 C 89 % 1010,5 hPa 0,0 l/m 4,5 km/h (1 Bft) SW 236 0 min 0,000 mm 0,0 UV-I 0 W/m 9,8 C 11,6 C 9,7 km/h (2 Bft) 100,00 %
17.04.2016 19:48 11,6 C 89 % 1010,5 hPa 0,0 l/m 4,1 km/h (1 Bft) SW 229 0 min 0,000 mm 0,0 UV-I 0 W/m 9,8 C 11,6 C 6,4 km/h (2 Bft) 95,65 %
17.04.2016 19:49 11,6 C 89 % 1010,5 hPa 0,0 l/m 5,6 km/h (1 Bft) W-SW 252 0 min 0,000 mm 0,0 UV-I 0 W/m 9,8 C 11,6 C 8,0 km/h (2 Bft) 100,00 %
17.04.2016 19:50 11,6 C 89 % 1010,5 hPa 0,0 l/m 6,9 km/h (2 Bft) SW 232 0 min 0,000 mm 0,0 UV-I 0 W/m 9,8 C 11,3 C 9,7 km/h (2 Bft) 100,00 %
17.04.2016 19:51 11,6 C 89 % 1010,6 hPa 0,0 l/m 6,4 km/h (2 Bft) SW 222 0 min 0,000 mm 0,0 UV-I 0 W/m 9,8 C 11,6 C 8,0 km/h (2 Bft) 100,00 %
17.04.2016 19:52 11,6 C 89 % 1010,6 hPa 0,0 l/m 7,2 km/h (2 Bft) W-SW 238 0 min 0,000 mm 0,0 UV-I 0 W/m 9,8 C 11,1 C 9,7 km/h (2 Bft) 100,00 %
17.04.2016 19:53 11,6 C 89 % 1010,7 hPa 0,0 l/m 5,7 km/h (1 Bft) SW 235 0 min 0,000 mm 0,0 UV-I 0 W/m 9,8 C 11,6 C 8,0 km/h (2 Bft) 100,00 %
17.04.2016 19:54 11,6 C 89 % 1010,7 hPa 0,0 l/m 6,2 km/h (2 Bft) SW 236 0 min 0,000 mm 0,0 UV-I 0 W/m 9,8 C 11,6 C 8,0 km/h (2 Bft) 100,00 %
17.04.2016 19:55 11,6 C 90 % 1010,7 hPa 0,0 l/m 7,2 km/h (2 Bft) SW 227 0 min 0,000 mm 0,0 UV-I 0 W/m 10,0 C 11,1 C 9,7 km/h (2 Bft) 95,83 %
17.04.2016 19:56 11,6 C 90 % 1010,8 hPa 0,0 l/m 5,7 km/h (1 Bft) W-SW 240 0 min 0,000 mm 0,0 UV-I 0 W/m 10,0 C 11,6 C 6,4 km/h (2 Bft) 94,12 %
17.04.2016 19:57 11,5 C 90 % 1010,7 hPa 0,0 l/m 5,5 km/h (1 Bft) W-SW 258 0 min 0,000 mm 0,0 UV-I 0 W/m 9,9 C 11,5 C 6,4 km/h (2 Bft) 100,00 %
17.04.2016 19:58 11,5 C 90 % 1010,7 hPa 0,0 l/m 4,7 km/h (1 Bft) W-SW 238 0 min 0,000 mm 0,0 UV-I 0 W/m 9,9 C 11,5 C 4,8 km/h (1 Bft) 100,00 %
17.04.2016 19:59 11,5 C 90 % 1010,8 hPa 0,0 l/m 6,5 km/h (2 Bft) W 260 0 min 0,000 mm 0,0 UV-I 0 W/m 9,9 C 11,5 C 11,3 km/h (2 Bft) 100,00 %
17.04.2016 20:00 11,5 C 90 % 1010,8 hPa 0,0 l/m 7,2 km/h (2 Bft) W-SW 243 0 min 0,000 mm 0,0 UV-I 0 W/m 9,9 C 11,0 C 11,3 km/h (2 Bft) 100,00 %
17.04.2016 20:02 11,4 C 90 % 1010,9 hPa 0,0 l/m 7,1 km/h (2 Bft) W-SW 244 0 min 0,000 mm 0,0 UV-I 0 W/m 9,8 C 10,9 C 9,7 km/h (2 Bft) 100,00 %
17.04.2016 20:03 11,4 C 91 % 1011,0 hPa 0,2 l/m 6,2 km/h (2 Bft) W-SW 257 0 min 0,000 mm 0,0 UV-I 0 W/m 10,0 C 11,4 C 9,7 km/h (2 Bft) 96,30 %
17.04.2016 20:04 11,4 C 91 % 1011,0 hPa 0,0 l/m 7,0 km/h (2 Bft) W 279 0 min 0,000 mm 0,0 UV-I 0 W/m 10,0 C 11,0 C 9,7 km/h (2 Bft) 95,65 %
17.04.2016 20:05 11,4 C 91 % 1011,1 hPa 0,0 l/m 8,4 km/h (2 Bft) W-SW 258 0 min 0,000 mm 0,0 UV-I 0 W/m 10,0 C 10,1 C 11,3 km/h (2 Bft) 100,00 %
17.04.2016 20:06 11,4 C 91 % 1011,1 hPa 0,0 l/m 6,3 km/h (2 Bft) W 271 0 min 0,000 mm 0,0 UV-I 0 W/m 10,0 C 11,4 C 9,7 km/h (2 Bft) 100,00 %
17.04.2016 20:07 11,4 C 91 % 1011,1 hPa 0,0 l/m 11,4 km/h (2 Bft) W-SW 252 0 min 0,000 mm 0,0 UV-I 0 W/m 10,0 C 8,4 C 14,5 km/h (3 Bft) 96,88 %
17.04.2016 20:08 11,4 C 91 % 1011,1 hPa 0,0 l/m 9,9 km/h (2 Bft) W-SW 258 0 min 0,000 mm 0,0 UV-I 0 W/m 10,0 C 9,2 C 11,3 km/h (2 Bft) 100,00 %
17.04.2016 20:09 11,4 C 91 % 1011,2 hPa 0,0 l/m 11,1 km/h (2 Bft) W 261 0 min 0,000 mm 0,0 UV-I 0 W/m 10,0 C 8,6 C 12,9 km/h (3 Bft) 100,00 %
17.04.2016 20:10 11,3 C 91 % 1011,2 hPa 0,0 l/m 8,0 km/h (2 Bft) W-SW 248 0 min 0,000 mm 0,0 UV-I 0 W/m 9,9 C 10,2 C 11,3 km/h (2 Bft) 100,00 %
17.04.2016 20:11 11,3 C 91 % 1011,2 hPa 0,0 l/m 5,0 km/h (1 Bft) W 273 0 min 0,000 mm 0,0 UV-I 0 W/m 9,9 C 11,3 C 8,0 km/h (2 Bft) 100,00 %
17.04.2016 20:12 11,3 C 91 % 1011,2 hPa 0,0 l/m 5,7 km/h (1 Bft) W 266 0 min 0,000 mm 0,0 UV-I 0 W/m 9,9 C 11,3 C 6,4 km/h (2 Bft) 100,00 %
17.04.2016 20:13 11,3 C 91 % 1011,2 hPa 0,0 l/m 5,7 km/h (1 Bft) W 268 0 min 0,000 mm 0,0 UV-I 0 W/m 9,9 C 11,3 C 6,4 km/h (2 Bft) 85,71 %
17.04.2016 20:14 11,3 C 91 % 1011,3 hPa 0,0 l/m 8,3 km/h (2 Bft) W-SW 255 0 min 0,000 mm 0,0 UV-I 0 W/m 9,9 C 10,0 C 12,9 km/h (3 Bft) 100,00 %
17.04.2016 20:15 11,3 C 91 % 1011,3 hPa 0,2 l/m 7,1 km/h (2 Bft) W-SW 250 0 min 0,000 mm 0,0 UV-I 0 W/m 9,9 C 10,8 C 11,3 km/h (2 Bft) 92,31 %
17.04.2016 20:16 11,3 C 91 % 1011,3 hPa 0,0 l/m 6,3 km/h (2 Bft) W 265 0 min 0,000 mm 0,0 UV-I 0 W/m 9,9 C 11,3 C 9,7 km/h (2 Bft) 96,30 %
17.04.2016 20:17 11,3 C 91 % 1011,3 hPa 0,0 l/m 5,4 km/h (1 Bft) W 268 0 min 0,000 mm 0,0 UV-I 0 W/m 9,9 C 11,3 C 9,7 km/h (2 Bft) 90,91 %
17.04.2016 20:18 11,3 C 91 % 1011,3 hPa 0,0 l/m 6,4 km/h (2 Bft) W-SW 238 0 min 0,000 mm 0,0 UV-I 0 W/m 9,9 C 11,3 C 9,7 km/h (2 Bft) 94,44 %
17.04.2016 20:19 11,2 C 91 % 1011,3 hPa 0,0 l/m 9,2 km/h (2 Bft) W-SW 258 0 min 0,000 mm 0,0 UV-I 0 W/m 9,8 C 9,4 C 12,9 km/h (3 Bft) 98,46 %
17.04.2016 20:20 11,2 C 92 % 1011,3 hPa 0,0 l/m 8,0 km/h (2 Bft) W 261 0 min 0,000 mm 0,0 UV-I 0 W/m 9,9 C 10,1 C 11,3 km/h (2 Bft) 97,56 %
17.04.2016 20:21 11,2 C 92 % 1011,3 hPa 0,0 l/m 8,5 km/h (2 Bft) W 262 0 min 0,000 mm 0,0 UV-I 0 W/m 9,9 C 9,8 C 12,9 km/h (3 Bft) 100,00 %
17.04.2016 20:22 11,2 C 92 % 1011,3 hPa 0,0 l/m 6,4 km/h (2 Bft) W-SW 258 0 min 0,000 mm 0,0 UV-I 0 W/m 9,9 C 11,2 C 9,7 km/h (2 Bft) 95,83 %
17.04.2016 20:23 11,2 C 92 % 1011,3 hPa 0,0 l/m 9,4 km/h (2 Bft) W 271 0 min 0,000 mm 0,0 UV-I 0 W/m 9,9 C 9,3 C 14,5 km/h (3 Bft) 100,00 %
17.04.2016 20:24 11,2 C 92 % 1011,4 hPa 0,0 l/m 9,8 km/h (2 Bft) W-SW 247 0 min 0,000 mm 0,0 UV-I 0 W/m 9,9 C 9,0 C 12,9 km/h (3 Bft) 96,15 %
17.04.2016 20:25 11,2 C 92 % 1011,4 hPa 0,0 l/m 9,4 km/h (2 Bft) W 269 0 min 0,000 mm 0,0 UV-I 0 W/m 9,9 C 9,3 C 12,9 km/h (3 Bft) 100,00 %
17.04.2016 20:26 11,1 C 91 % 1011,5 hPa 0,0 l/m 10,8 km/h (2 Bft) W-SW 257 0 min 0,000 mm 0,0 UV-I 0 W/m 9,7 C 8,4 C 12,9 km/h (3 Bft) 96,15 %
17.04.2016 20:27 11,1 C 92 % 1011,5 hPa 0,2 l/m 9,4 km/h (2 Bft) W 271 0 min 0,000 mm 0,0 UV-I 0 W/m 9,8 C 9,1 C 11,3 km/h (2 Bft) 100,00 %
17.04.2016 20:28 11,1 C 92 % 1011,6 hPa 0,0 l/m 8,7 km/h (2 Bft) W 261 0 min 0,000 mm 0,0 UV-I 0 W/m 9,8 C 9,6 C 11,3 km/h (2 Bft) 96,15 %
17.04.2016 20:29 11,1 C 92 % 1011,6 hPa 0,0 l/m 9,7 km/h (2 Bft) W 263 0 min 0,000 mm 0,0 UV-I 0 W/m 9,8 C 9,0 C 12,9 km/h (3 Bft) 100,00 %
17.04.2016 20:30 11,1 C 92 % 1011,6 hPa 0,0 l/m 10,5 km/h (2 Bft) W-NW 293 0 min 0,000 mm 0,0 UV-I 0 W/m 9,8 C 8,5 C 16,1 km/h (3 Bft) 92,86 %
17.04.2016 20:31 11,0 C 92 % 1011,6 hPa 0,0 l/m 13,0 km/h (3 Bft) W 275 0 min 0,000 mm 0,0 UV-I 0 W/m 9,8 C 7,2 C 20,9 km/h (4 Bft) 96,30 %
17.04.2016 20:32 11,0 C 91 % 1011,6 hPa 0,0 l/m 10,1 km/h (2 Bft) W-SW 253 0 min 0,000 mm 0,0 UV-I 0 W/m 9,6 C 8,6 C 16,1 km/h (3 Bft) 92,31 %
17.04.2016 20:33 10,9 C 91 % 1011,8 hPa 0,0 l/m 13,4 km/h (3 Bft) W-SW 248 0 min 0,000 mm 0,0 UV-I 0 W/m 9,5 C 6,9 C 19,3 km/h (3 Bft) 88,89 %
17.04.2016 20:34 10,9 C 91 % 1011,8 hPa 0,0 l/m 12,1 km/h (2 Bft) W-NW 290 0 min 0,000 mm 0,0 UV-I 0 W/m 9,5 C 7,5 C 14,5 km/h (3 Bft) 100,00 %
17.04.2016 20:35 10,9 C 91 % 1011,8 hPa 0,0 l/m 15,4 km/h (3 Bft) W-SW 248 0 min 0,000 mm 0,0 UV-I 0 W/m 9,5 C 6,1 C 20,9 km/h (4 Bft) 95,83 %
17.04.2016 20:36 10,9 C 91 % 1011,9 hPa 0,0 l/m 14,3 km/h (3 Bft) SW 228 0 min 0,000 mm 0,0 UV-I 0 W/m 9,5 C 6,5 C 19,3 km/h (3 Bft) 91,30 %
17.04.2016 20:37 10,8 C 91 % 1011,9 hPa 0,0 l/m 13,1 km/h (3 Bft) W-SW 256 0 min 0,000 mm 0,0 UV-I 0 W/m 9,4 C 6,9 C 22,5 km/h (4 Bft) 100,00 %
17.04.2016 20:38 10,8 C 91 % 1011,9 hPa 0,0 l/m 12,6 km/h (3 Bft) W 263 0 min 0,000 mm 0,0 UV-I 0 W/m 9,4 C 7,1 C 17,7 km/h (3 Bft) 100,00 %
17.04.2016 20:39 10,8 C 91 % 1011,9 hPa 0,0 l/m 14,2 km/h (3 Bft) W 267 0 min 0,000 mm 0,0 UV-I 0 W/m 9,4 C 6,4 C 19,3 km/h (3 Bft) 89,66 %
17.04.2016 20:40 10,8 C 91 % 1011,9 hPa 0,0 l/m 14,0 km/h (3 Bft) W 273 0 min 0,000 mm 0,0 UV-I 0 W/m 9,4 C 6,5 C 19,3 km/h (3 Bft) 96,55 %
17.04.2016 20:41 10,8 C 91 % 1011,9 hPa 0,0 l/m 11,0 km/h (2 Bft) W 269 0 min 0,000 mm 0,0 UV-I 0 W/m 9,4 C 7,9 C 16,1 km/h (3 Bft) 98,41 %
17.04.2016 20:42 10,7 C 91 % 1011,9 hPa 0,0 l/m 11,2 km/h (2 Bft) W 261 0 min 0,000 mm 0,0 UV-I 0 W/m 9,3 C 7,7 C 14,5 km/h (3 Bft) 97,73 %
17.04.2016 20:43 10,7 C 91 % 1011,9 hPa 0,0 l/m 10,5 km/h (2 Bft) W 279 0 min 0,000 mm 0,0 UV-I 0 W/m 9,3 C 8,1 C 16,1 km/h (3 Bft) 100,00 %
17.04.2016 20:44 10,7 C 91 % 1012,0 hPa 0,2 l/m 16,5 km/h (3 Bft) W 260 0 min 0,000 mm 0,0 UV-I 0 W/m 9,3 C 5,4 C 20,9 km/h (4 Bft) 86,67 %
17.04.2016 20:45 10,7 C 91 % 1012,0 hPa 0,0 l/m 11,5 km/h (2 Bft) W 273 0 min 0,000 mm 0,0 UV-I 0 W/m 9,3 C 7,6 C 17,7 km/h (3 Bft) 96,55 %
17.04.2016 20:46 10,7 C 91 % 1012,0 hPa 0,0 l/m 7,8 km/h (2 Bft) W-SW 257 0 min 0,000 mm 0,0 UV-I 0 W/m 9,3 C 9,7 C 11,3 km/h (2 Bft) 100,00 %
17.04.2016 20:47 10,6 C 91 % 1012,1 hPa 0,0 l/m 12,6 km/h (3 Bft) W 262 0 min 0,000 mm 0,0 UV-I 0 W/m 9,2 C 6,9 C 17,7 km/h (3 Bft) 96,55 %
17.04.2016 20:48 10,6 C 91 % 1012,1 hPa 0,0 l/m 17,6 km/h (3 Bft) SW 229 0 min 0,000 mm 0,0 UV-I 0 W/m 9,2 C 4,9 C 20,9 km/h (4 Bft) 100,00 %
17.04.2016 20:49 10,6 C 91 % 1012,1 hPa 0,0 l/m 10,9 km/h (2 Bft) W-SW 244 0 min 0,000 mm 0,0 UV-I 0 W/m 9,2 C 7,8 C 14,5 km/h (3 Bft) 100,00 %
17.04.2016 20:50 10,5 C 91 % 1012,1 hPa 0,0 l/m 10,9 km/h (2 Bft) W-SW 252 0 min 0,000 mm 0,0 UV-I 0 W/m 9,1 C 7,7 C 19,3 km/h (3 Bft) 100,00 %
17.04.2016 20:51 10,5 C 91 % 1012,1 hPa 0,0 l/m 10,7 km/h (2 Bft) W 262 0 min 0,000 mm 0,0 UV-I 0 W/m 9,1 C 7,8 C 16,1 km/h (3 Bft) 95,65 %
17.04.2016 20:52 10,5 C 91 % 1012,1 hPa 0,0 l/m 12,6 km/h (3 Bft) W-SW 239 0 min 0,000 mm 0,0 UV-I 0 W/m 9,1 C 6,8 C 16,1 km/h (3 Bft) 100,00 %
17.04.2016 20:53 10,4 C 91 % 1012,2 hPa 0,2 l/m 13,0 km/h (3 Bft) W 263 0 min 0,000 mm 0,0 UV-I 0 W/m 9,0 C 6,5 C 16,1 km/h (3 Bft) 100,00 %
17.04.2016 20:54 10,4 C 91 % 1012,2 hPa 0,0 l/m 11,2 km/h (2 Bft) W 261 0 min 0,000 mm 0,0 UV-I 0 W/m 9,0 C 7,4 C 14,5 km/h (3 Bft) 100,00 %
17.04.2016 20:55 10,4 C 92 % 1012,2 hPa 0,0 l/m 13,6 km/h (3 Bft) W-SW 246 0 min 0,000 mm 0,0 UV-I 0 W/m 9,2 C 6,2 C 17,7 km/h (3 Bft) 100,00 %
17.04.2016 20:56 10,4 C 92 % 1012,2 hPa 0,0 l/m 12,9 km/h (3 Bft) W 267 0 min 0,000 mm 0,0 UV-I 0 W/m 9,2 C 6,5 C 16,1 km/h (3 Bft) 95,83 %
17.04.2016 20:57 10,4 C 92 % 1012,2 hPa 0,0 l/m 10,8 km/h (2 Bft) SW 232 0 min 0,000 mm 0,0 UV-I 0 W/m 9,2 C 7,6 C 12,9 km/h (3 Bft) 100,00 %
17.04.2016 20:58 10,3 C 92 % 1012,2 hPa 0,0 l/m 8,5 km/h (2 Bft) W-SW 241 0 min 0,000 mm 0,0 UV-I 0 W/m 9,1 C 8,8 C 12,9 km/h (3 Bft) 100,00 %
17.04.2016 20:59 10,3 C 92 % 1012,2 hPa 0,0 l/m 10,9 km/h (2 Bft) W 261 0 min 0,000 mm 0,0 UV-I 0 W/m 9,1 C 7,4 C 14,5 km/h (3 Bft) 100,00 %
17.04.2016 21:00 10,3 C 92 % 1012,2 hPa 0,0 l/m 10,7 km/h (2 Bft) W 264 0 min 0,000 mm 0,0 UV-I 0 W/m 9,1 C 7,5 C 14,5 km/h (3 Bft) 86,67 %
17.04.2016 21:01 10,3 C 92 % 1012,2 hPa 0,2 l/m 10,8 km/h (2 Bft) W-SW 257 0 min 0,000 mm 0,0 UV-I 0 W/m 9,1 C 7,5 C 14,5 km/h (3 Bft) 100,00 %
17.04.2016 21:02 10,3 C 92 % 1012,3 hPa 0,0 l/m 12,5 km/h (3 Bft) W-SW 252 0 min 0,000 mm 0,0 UV-I 0 W/m 9,1 C 6,6 C 17,7 km/h (3 Bft) 100,00 %
17.04.2016 21:03 10,3 C 92 % 1012,3 hPa 0,0 l/m 11,1 km/h (2 Bft) W-SW 257 0 min 0,000 mm 0,0 UV-I 0 W/m 9,1 C 7,3 C 14,5 km/h (3 Bft) 95,83 %
17.04.2016 21:04 10,3 C 93 % 1012,4 hPa 0,0 l/m 8,9 km/h (2 Bft) W 275 0 min 0,000 mm 0,0 UV-I 0 W/m 9,2 C 8,6 C 12,9 km/h (3 Bft) 100,00 %
17.04.2016 21:05 10,2 C 93 % 1012,4 hPa 0,0 l/m 11,4 km/h (2 Bft) W 259 0 min 0,000 mm 0,0 UV-I 0 W/m 9,1 C 7,1 C 16,1 km/h (3 Bft) 100,00 %
17.04.2016 21:06 10,2 C 93 % 1012,4 hPa 0,0 l/m 12,6 km/h (3 Bft) S-SW 194 0 min 0,000 mm 0,0 UV-I 0 W/m 9,1 C 6,5 C 17,7 km/h (3 Bft) 100,00 %
17.04.2016 21:07 10,2 C 93 % 1012,4 hPa 0,2 l/m 14,7 km/h (3 Bft) W-NW 284 0 min 0,000 mm 0,0 UV-I 0 W/m 9,1 C 5,5 C 19,3 km/h (3 Bft) 100,00 %
17.04.2016 21:08 10,2 C 93 % 1012,3 hPa 0,0 l/m 13,0 km/h (3 Bft) W-SW 250 0 min 0,000 mm 0,0 UV-I 0 W/m 9,1 C 6,3 C 16,1 km/h (3 Bft) 100,00 %
17.04.2016 21:09 10,2 C 93 % 1012,4 hPa 0,0 l/m 8,3 km/h (2 Bft) W-SW 256 0 min 0,000 mm 0,0 UV-I 0 W/m 9,1 C 8,9 C 11,3 km/h (2 Bft) 100,00 %
17.04.2016 21:10 10,2 C 93 % 1012,4 hPa 0,0 l/m 10,5 km/h (2 Bft) W-SW 251 0 min 0,000 mm 0,0 UV-I 0 W/m 9,1 C 7,5 C 12,9 km/h (3 Bft) 100,00 %
17.04.2016 21:11 10,2 C 93 % 1012,4 hPa 0,0 l/m 9,6 km/h (2 Bft) W-SW 256 0 min 0,000 mm 0,0 UV-I 0 W/m 9,1 C 8,0 C 12,9 km/h (3 Bft) 96,67 %
17.04.2016 21:12 10,2 C 93 % 1012,3 hPa 0,0 l/m 8,2 km/h (2 Bft) W 265 0 min 0,000 mm 0,0 UV-I 0 W/m 9,1 C 8,9 C 11,3 km/h (2 Bft) 100,00 %
17.04.2016 21:13 10,2 C 93 % 1012,4 hPa 0,0 l/m 7,7 km/h (2 Bft) W-SW 255 0 min 0,000 mm 0,0 UV-I 0 W/m 9,1 C 9,3 C 12,9 km/h (3 Bft) 100,00 %
17.04.2016 21:14 10,2 C 93 % 1012,5 hPa 0,0 l/m 7,1 km/h (2 Bft) W 279 0 min 0,000 mm 0,0 UV-I 0 W/m 9,1 C 9,7 C 9,7 km/h (2 Bft) 100,00 %
17.04.2016 21:15 10,1 C 93 % 1012,4 hPa 0,2 l/m 6,4 km/h (2 Bft) W-SW 244 0 min 0,000 mm 0,0 UV-I 0 W/m 9,0 C 10,1 C 8,0 km/h (2 Bft) 100,00 %
17.04.2016 21:16 10,1 C 93 % 1012,5 hPa 0,0 l/m 9,4 km/h (2 Bft) W 259 0 min 0,000 mm 0,0 UV-I 0 W/m 9,0 C 8,1 C 12,9 km/h (3 Bft) 100,00 %
17.04.2016 21:17 10,1 C 93 % 1012,4 hPa 0,0 l/m 7,8 km/h (2 Bft) W-SW 237 0 min 0,000 mm 0,0 UV-I 0 W/m 9,0 C 9,1 C 11,3 km/h (2 Bft) 100,00 %
17.04.2016 21:18 10,1 C 94 % 1012,3 hPa 0,0 l/m 10,1 km/h (2 Bft) W 259 0 min 0,000 mm 0,0 UV-I 0 W/m 9,2 C 7,6 C 12,9 km/h (3 Bft) 95,65 %
17.04.2016 21:19 10,1 C 94 % 1012,3 hPa 0,0 l/m 6,3 km/h (2 Bft) W 263 0 min 0,000 mm 0,0 UV-I 0 W/m 9,2 C 10,1 C 8,0 km/h (2 Bft) 100,00 %
17.04.2016 21:20 10,1 C 94 % 1012,3 hPa 0,0 l/m 8,2 km/h (2 Bft) W 259 0 min 0,000 mm 0,0 UV-I 0 W/m 9,2 C 8,8 C 12,9 km/h (3 Bft) 97,56 %
17.04.2016 21:21 10,1 C 94 % 1012,3 hPa 0,2 l/m 8,2 km/h (2 Bft) W-SW 254 0 min 0,000 mm 0,0 UV-I 0 W/m 9,2 C 8,8 C 11,3 km/h (2 Bft) 100,00 %
17.04.2016 21:22 10,1 C 94 % 1012,2 hPa 0,0 l/m 8,1 km/h (2 Bft) W-SW 257 0 min 0,000 mm 0,0 UV-I 0 W/m 9,2 C 8,9 C 11,3 km/h (2 Bft) 100,00 %
17.04.2016 21:23 10,1 C 94 % 1012,2 hPa 0,0 l/m 7,1 km/h (2 Bft) W-SW 252 0 min 0,000 mm 0,0 UV-I 0 W/m 9,2 C 9,6 C 11,3 km/h (2 Bft) 100,00 %
17.04.2016 21:24 10,1 C 94 % 1012,2 hPa 0,0 l/m 6,8 km/h (2 Bft) W-SW 252 0 min 0,000 mm 0,0 UV-I 0 W/m 9,2 C 9,8 C 9,7 km/h (2 Bft) 100,00 %
17.04.2016 21:25 10,1 C 94 % 1012,2 hPa 0,0 l/m 7,8 km/h (2 Bft) W-SW 248 0 min 0,000 mm 0,0 UV-I 0 W/m 9,2 C 9,1 C 11,3 km/h (2 Bft) 100,00 %
17.04.2016 21:26 10,1 C 94 % 1012,3 hPa 0,0 l/m 9,3 km/h (2 Bft) W 262 0 min 0,000 mm 0,0 UV-I 0 W/m 9,2 C 8,1 C 11,3 km/h (2 Bft) 100,00 %
17.04.2016 21:27 10,1 C 94 % 1012,3 hPa 0,0 l/m 8,9 km/h (2 Bft) W-SW 242 0 min 0,000 mm 0,0 UV-I 0 W/m 9,2 C 8,4 C 12,9 km/h (3 Bft) 95,65 %
17.04.2016 21:28 10,1 C 94 % 1012,3 hPa 0,0 l/m 8,7 km/h (2 Bft) W 265 0 min 0,000 mm 0,0 UV-I 0 W/m 9,2 C 8,5 C 12,9 km/h (3 Bft) 100,00 %
17.04.2016 21:29 10,1 C 94 % 1012,3 hPa 0,0 l/m 7,5 km/h (2 Bft) W-SW 256 0 min 0,000 mm 0,0 UV-I 0 W/m 9,2 C 9,3 C 11,3 km/h (2 Bft) 100,00 %
17.04.2016 21:30 10,1 C 94 % 1012,3 hPa 0,0 l/m 6,7 km/h (2 Bft) W-SW 241 0 min 0,000 mm 0,0 UV-I 0 W/m 9,2 C 9,9 C 11,3 km/h (2 Bft) 100,00 %
17.04.2016 21:31 10,0 C 94 % 1012,4 hPa 0,0 l/m 6,5 km/h (2 Bft) W-SW 255 0 min 0,000 mm 0,0 UV-I 0 W/m 9,1 C 10,0 C 11,3 km/h (2 Bft) 100,00 %
17.04.2016 21:32 10,0 C 94 % 1012,4 hPa 0,0 l/m 7,1 km/h (2 Bft) S-SW 213 0 min 0,000 mm 0,0 UV-I 0 W/m 9,1 C 9,5 C 8,0 km/h (2 Bft) 100,00 %
17.04.2016 21:33 10,0 C 94 % 1012,5 hPa 0,0 l/m 6,8 km/h (2 Bft) SW 219 0 min 0,000 mm 0,0 UV-I 0 W/m 9,1 C 9,7 C 9,7 km/h (2 Bft) 95,65 %
17.04.2016 21:34 10,0 C 94 % 1012,5 hPa 0,0 l/m 4,1 km/h (1 Bft) S 187 0 min 0,000 mm 0,0 UV-I 0 W/m 9,1 C 10,0 C 4,8 km/h (1 Bft) 100,00 %
17.04.2016 21:35 10,0 C 94 % 1012,4 hPa 0,0 l/m 6,8 km/h (2 Bft) SW 223 0 min 0,000 mm 0,0 UV-I 0 W/m 9,1 C 9,7 C 9,7 km/h (2 Bft) 100,00 %
17.04.2016 21:36 10,0 C 94 % 1012,4 hPa 0,0 l/m 8,4 km/h (2 Bft) SW 220 0 min 0,000 mm 0,0 UV-I 0 W/m 9,1 C 8,6 C 11,3 km/h (2 Bft) 100,00 %
17.04.2016 21:37 10,0 C 94 % 1012,4 hPa 0,0 l/m 9,5 km/h (2 Bft) S-SW 204 0 min 0,000 mm 0,0 UV-I 0 W/m 9,1 C 7,9 C 12,9 km/h (3 Bft) 90,91 %
17.04.2016 21:38 10,0 C 94 % 1012,4 hPa 0,0 l/m 8,0 km/h (2 Bft) S-SW 202 0 min 0,000 mm 0,0 UV-I 0 W/m 9,1 C 8,9 C 9,7 km/h (2 Bft) 100,00 %
17.04.2016 21:39 10,0 C 94 % 1012,4 hPa 0,0 l/m 7,0 km/h (2 Bft) S-SW 205 0 min 0,000 mm 0,0 UV-I 0 W/m 9,1 C 9,6 C 9,7 km/h (2 Bft) 97,37 %
17.04.2016 21:40 10,0 C 94 % 1012,4 hPa 0,0 l/m 9,8 km/h (2 Bft) S-SW 196 0 min 0,000 mm 0,0 UV-I 0 W/m 9,1 C 7,7 C 12,9 km/h (3 Bft) 100,00 %
17.04.2016 21:41 10,0 C 94 % 1012,4 hPa 0,0 l/m 7,7 km/h (2 Bft) S-SW 194 0 min 0,000 mm 0,0 UV-I 0 W/m 9,1 C 9,1 C 9,7 km/h (2 Bft) 100,00 %
17.04.2016 21:42 10,0 C 94 % 1012,4 hPa 0,0 l/m 9,8 km/h (2 Bft) S-SO 167 0 min 0,000 mm 0,0 UV-I 0 W/m 9,1 C 7,7 C 12,9 km/h (3 Bft) 100,00 %
17.04.2016 21:43 10,0 C 94 % 1012,3 hPa 0,0 l/m 10,8 km/h (2 Bft) S 182 0 min 0,000 mm 0,0 UV-I 0 W/m 9,1 C 7,1 C 14,5 km/h (3 Bft) 100,00 %
17.04.2016 21:44 10,0 C 94 % 1012,3 hPa 0,0 l/m 9,8 km/h (2 Bft) S-SW 206 0 min 0,000 mm 0,0 UV-I 0 W/m 9,1 C 7,7 C 16,1 km/h (3 Bft) 100,00 %
17.04.2016 21:45 10,1 C 94 % 1012,4 hPa 0,0 l/m 9,6 km/h (2 Bft) S 188 0 min 0,000 mm 0,0 UV-I 0 W/m 9,2 C 7,9 C 16,1 km/h (3 Bft) 96,67 %
17.04.2016 21:46 10,1 C 94 % 1012,4 hPa 0,0 l/m 9,4 km/h (2 Bft) S-SW 209 0 min 0,000 mm 0,0 UV-I 0 W/m 9,2 C 8,1 C 14,5 km/h (3 Bft) 100,00 %
17.04.2016 21:47 10,0 C 95 % 1012,4 hPa 0,0 l/m 6,4 km/h (2 Bft) S-SW 202 0 min 0,000 mm 0,0 UV-I 0 W/m 9,2 C 10,0 C 9,7 km/h (2 Bft) 100,00 %
17.04.2016 21:48 10,1 C 94 % 1012,4 hPa 0,0 l/m 11,1 km/h (2 Bft) SW 228 0 min 0,000 mm 0,0 UV-I 0 W/m 9,2 C 7,1 C 14,5 km/h (3 Bft) 100,00 %
17.04.2016 21:49 10,0 C 94 % 1012,4 hPa 0,0 l/m 10,1 km/h (2 Bft) SW 223 0 min 0,000 mm 0,0 UV-I 0 W/m 9,1 C 7,5 C 14,5 km/h (3 Bft) 100,00 %
17.04.2016 21:50 10,1 C 94 % 1012,4 hPa 0,0 l/m 11,3 km/h (2 Bft) SW 232 0 min 0,000 mm 0,0 UV-I 0 W/m 9,2 C 7,0 C 17,7 km/h (3 Bft) 100,00 %
17.04.2016 21:51 10,1 C 94 % 1012,4 hPa 0,0 l/m 9,9 km/h (2 Bft) W-SW 250 0 min 0,000 mm 0,0 UV-I 0 W/m 9,2 C 7,8 C 14,5 km/h (3 Bft) 100,00 %
17.04.2016 21:52 10,1 C 94 % 1012,4 hPa 0,0 l/m 7,6 km/h (2 Bft) S 179 0 min 0,000 mm 0,0 UV-I 0 W/m 9,2 C 9,2 C 11,3 km/h (2 Bft) 100,00 %
17.04.2016 21:53 10,1 C 94 % 1012,4 hPa 0,0 l/m 7,3 km/h (2 Bft) W-SW 253 0 min 0,000 mm 0,0 UV-I 0 W/m 9,2 C 9,4 C 11,3 km/h (2 Bft) 100,00 %
17.04.2016 21:54 10,1 C 94 % 1012,4 hPa 0,0 l/m 8,3 km/h (2 Bft) W-SW 239 0 min 0,000 mm 0,0 UV-I 0 W/m 9,2 C 8,8 C 11,3 km/h (2 Bft) 100,00 %
17.04.2016 21:55 10,0 C 94 % 1012,4 hPa 0,0 l/m 8,0 km/h (2 Bft) W-SW 257 0 min 0,000 mm 0,0 UV-I 0 W/m 9,1 C 8,9 C 12,9 km/h (3 Bft) 100,00 %
17.04.2016 21:56 10,1 C 94 % 1012,4 hPa 0,0 l/m 6,4 km/h (2 Bft) SW 215 0 min 0,000 mm 0,0 UV-I 0 W/m 9,2 C 10,1 C 11,3 km/h (2 Bft) 96,15 %
17.04.2016 21:57 10,1 C 94 % 1012,5 hPa 0,0 l/m 7,5 km/h (2 Bft) W-SW 243 0 min 0,000 mm 0,0 UV-I 0 W/m 9,2 C 9,3 C 11,3 km/h (2 Bft) 100,00 %
17.04.2016 21:58 10,1 C 95 % 1012,5 hPa 0,0 l/m 8,7 km/h (2 Bft) W-SW 243 0 min 0,000 mm 0,0 UV-I 0 W/m 9,3 C 8,5 C 9,7 km/h (2 Bft) 98,45 %
17.04.2016 21:59 10,0 C 95 % 1012,6 hPa 0,0 l/m 9,1 km/h (2 Bft) S-SW 203 0 min 0,000 mm 0,0 UV-I 0 W/m 9,2 C 8,1 C 14,5 km/h (3 Bft) 100,00 %
17.04.2016 22:00 10,0 C 95 % 1012,5 hPa 0,0 l/m 10,5 km/h (2 Bft) S-SW 199 0 min 0,000 mm 0,0 UV-I 0 W/m 9,2 C 7,3 C 14,5 km/h (3 Bft) 100,00 %
17.04.2016 22:01 10,0 C 95 % 1012,6 hPa 0,0 l/m 10,1 km/h (2 Bft) S-SW 211 0 min 0,000 mm 0,0 UV-I 0 W/m 9,2 C 7,5 C 14,5 km/h (3 Bft) 100,00 %
17.04.2016 22:02 10,0 C 95 % 1012,5 hPa 0,0 l/m 8,4 km/h (2 Bft) W-SW 246 0 min 0,000 mm 0,0 UV-I 0 W/m 9,2 C 8,6 C 12,9 km/h (3 Bft) 100,00 %
17.04.2016 22:03 10,0 C 95 % 1012,5 hPa 0,0 l/m 10,1 km/h (2 Bft) S-SW 203 0 min 0,000 mm 0,0 UV-I 0 W/m 9,2 C 7,5 C 14,5 km/h (3 Bft) 100,00 %
17.04.2016 22:04 10,0 C 95 % 1012,5 hPa 0,0 l/m 6,8 km/h (2 Bft) S-SW 213 0 min 0,000 mm 0,0 UV-I 0 W/m 9,2 C 9,7 C 9,7 km/h (2 Bft) 100,00 %
17.04.2016 22:05 10,0 C 95 % 1012,5 hPa 0,0 l/m 6,6 km/h (2 Bft) SW 225 0 min 0,000 mm 0,0 UV-I 0 W/m 9,2 C 9,9 C 9,7 km/h (2 Bft) 100,00 %
17.04.2016 22:06 10,0 C 95 % 1012,5 hPa 0,0 l/m 8,3 km/h (2 Bft) SW 221 0 min 0,000 mm 0,0 UV-I 0 W/m 9,2 C 8,7 C 12,9 km/h (3 Bft) 100,00 %
17.04.2016 22:07 9,9 C 95 % 1012,5 hPa 0,0 l/m 7,3 km/h (2 Bft) W-SW 254 0 min 0,000 mm 0,0 UV-I 0 W/m 9,1 C 9,2 C 11,3 km/h (2 Bft) 100,00 %
17.04.2016 22:08 9,9 C 95 % 1012,5 hPa 0,2 l/m 6,8 km/h (2 Bft) W-SW 252 0 min 0,000 mm 0,0 UV-I 0 W/m 9,1 C 9,6 C 11,3 km/h (2 Bft) 96,67 %
17.04.2016 22:09 9,9 C 94 % 1012,5 hPa 0,0 l/m 8,2 km/h (2 Bft) W 262 0 min 0,000 mm 0,0 UV-I 0 W/m 9,0 C 8,6 C 11,3 km/h (2 Bft) 100,00 %
17.04.2016 22:10 9,9 C 94 % 1012,6 hPa 0,0 l/m 6,8 km/h (2 Bft) W-SW 237 0 min 0,000 mm 0,0 UV-I 0 W/m 9,0 C 9,6 C 9,7 km/h (2 Bft) 100,00 %
17.04.2016 22:11 9,9 C 94 % 1012,6 hPa 0,0 l/m 9,7 km/h (2 Bft) W-SW 242 0 min 0,000 mm 0,0 UV-I 0 W/m 9,0 C 7,7 C 14,5 km/h (3 Bft) 96,15 %
17.04.2016 22:12 9,9 C 94 % 1012,7 hPa 0,0 l/m 7,8 km/h (2 Bft) SW 219 0 min 0,000 mm 0,0 UV-I 0 W/m 9,0 C 8,9 C 11,3 km/h (2 Bft) 100,00 %
17.04.2016 22:13 9,9 C 94 % 1012,7 hPa 0,0 l/m 8,8 km/h (2 Bft) SW 236 0 min 0,000 mm 0,0 UV-I 0 W/m 9,0 C 8,2 C 11,3 km/h (2 Bft) 100,00 %
17.04.2016 22:14 9,9 C 94 % 1012,7 hPa 0,0 l/m 10,5 km/h (2 Bft) W-SW 244 0 min 0,000 mm 0,0 UV-I 0 W/m 9,0 C 7,2 C 14,5 km/h (3 Bft) 100,00 %
17.04.2016 22:15 9,9 C 94 % 1012,7 hPa 0,0 l/m 7,2 km/h (2 Bft) SW 219 0 min 0,000 mm 0,0 UV-I 0 W/m 9,0 C 9,3 C 12,9 km/h (3 Bft) 100,00 %
17.04.2016 22:16 9,9 C 94 % 1012,7 hPa 0,0 l/m 6,2 km/h (2 Bft) W-SW 249 0 min 0,000 mm 0,0 UV-I 0 W/m 9,0 C 9,9 C 9,7 km/h (2 Bft) 100,00 %
17.04.2016 22:17 9,9 C 94 % 1012,7 hPa 0,0 l/m 7,5 km/h (2 Bft) W-SW 240 0 min 0,000 mm 0,0 UV-I 0 W/m 9,0 C 9,1 C 9,7 km/h (2 Bft) 100,00 %
17.04.2016 22:18 9,8 C 94 % 1012,7 hPa 0,0 l/m 6,8 km/h (2 Bft) SW 232 0 min 0,000 mm 0,0 UV-I 0 W/m 8,9 C 9,5 C 9,7 km/h (2 Bft) 100,00 %
17.04.2016 22:19 9,8 C 94 % 1012,7 hPa 0,0 l/m 8,6 km/h (2 Bft) W-SW 244 0 min 0,000 mm 0,0 UV-I 0 W/m 8,9 C 8,2 C 12,9 km/h (3 Bft) 95,83 %
17.04.2016 22:20 9,8 C 94 % 1012,7 hPa 0,0 l/m 8,9 km/h (2 Bft) SW 232 0 min 0,000 mm 0,0 UV-I 0 W/m 8,9 C 8,0 C 12,9 km/h (3 Bft) 100,00 %
17.04.2016 22:21 9,8 C 94 % 1012,6 hPa 0,0 l/m 9,3 km/h (2 Bft) W-SW 250 0 min 0,000 mm 0,0 UV-I 0 W/m 8,9 C 7,8 C 12,9 km/h (3 Bft) 95,83 %
17.04.2016 22:22 9,8 C 94 % 1012,6 hPa 0,0 l/m 8,6 km/h (2 Bft) W-SW 252 0 min 0,000 mm 0,0 UV-I 0 W/m 8,9 C 8,2 C 12,9 km/h (3 Bft) 96,55 %
17.04.2016 22:23 9,8 C 94 % 1012,6 hPa 0,0 l/m 6,2 km/h (2 Bft) W 263 0 min 0,000 mm 0,0 UV-I 0 W/m 8,9 C 9,8 C 8,0 km/h (2 Bft) 100,00 %
17.04.2016 22:24 9,8 C 94 % 1012,7 hPa 0,0 l/m 8,4 km/h (2 Bft) W-SW 257 0 min 0,000 mm 0,0 UV-I 0 W/m 8,9 C 8,4 C 12,9 km/h (3 Bft) 95,83 %
17.04.2016 22:25 9,8 C 94 % 1012,6 hPa 0,0 l/m 7,6 km/h (2 Bft) W-SW 252 0 min 0,000 mm 0,0 UV-I 0 W/m 8,9 C 8,9 C 12,9 km/h (3 Bft) 100,00 %
17.04.2016 22:26 9,8 C 94 % 1012,7 hPa 0,0 l/m 7,2 km/h (2 Bft) W-SW 255 0 min 0,000 mm 0,0 UV-I 0 W/m 8,9 C 9,2 C 8,0 km/h (2 Bft) 96,15 %
17.04.2016 22:27 9,8 C 94 % 1012,7 hPa 0,0 l/m 8,6 km/h (2 Bft) W-SW 240 0 min 0,000 mm 0,0 UV-I 0 W/m 8,9 C 8,2 C 11,3 km/h (2 Bft) 100,00 %
17.04.2016 22:28 9,8 C 94 % 1012,7 hPa 0,0 l/m 8,3 km/h (2 Bft) W-SW 257 0 min 0,000 mm 0,0 UV-I 0 W/m 8,9 C 8,4 C 11,3 km/h (2 Bft) 91,30 %
17.04.2016 22:29 9,8 C 94 % 1012,8 hPa 0,0 l/m 8,5 km/h (2 Bft) W-SW 246 0 min 0,000 mm 0,0 UV-I 0 W/m 8,9 C 8,3 C 12,9 km/h (3 Bft) 95,83 %
17.04.2016 22:30 9,8 C 94 % 1012,8 hPa 0,0 l/m 8,0 km/h (2 Bft) W-SW 244 0 min 0,000 mm 0,0 UV-I 0 W/m 8,9 C 8,6 C 11,3 km/h (2 Bft) 100,00 %
17.04.2016 22:31 9,8 C 94 % 1012,8 hPa 0,0 l/m 5,7 km/h (1 Bft) W 275 0 min 0,000 mm 0,0 UV-I 0 W/m 8,9 C 9,8 C 6,4 km/h (2 Bft) 95,83 %
17.04.2016 22:32 9,8 C 94 % 1012,8 hPa 0,0 l/m 7,0 km/h (2 Bft) SW 232 0 min 0,000 mm 0,0 UV-I 0 W/m 8,9 C 9,4 C 11,3 km/h (2 Bft) 100,00 %
17.04.2016 22:33 9,8 C 94 % 1012,8 hPa 0,0 l/m 6,4 km/h (2 Bft) SW 231 0 min 0,000 mm 0,0 UV-I 0 W/m 8,9 C 9,8 C 11,3 km/h (2 Bft) 95,83 %
17.04.2016 22:34 9,8 C 94 % 1012,8 hPa 0,0 l/m 7,1 km/h (2 Bft) W 260 0 min 0,000 mm 0,0 UV-I 0 W/m 8,9 C 9,3 C 12,9 km/h (3 Bft) 100,00 %
17.04.2016 22:35 9,8 C 94 % 1012,8 hPa 0,0 l/m 8,9 km/h (2 Bft) W-SW 252 0 min 0,000 mm 0,0 UV-I 0 W/m 8,9 C 8,0 C 11,3 km/h (2 Bft) 91,67 %
17.04.2016 22:36 9,8 C 94 % 1012,9 hPa 0,0 l/m 8,8 km/h (2 Bft) W 261 0 min 0,000 mm 0,0 UV-I 0 W/m 8,9 C 8,1 C 12,9 km/h (3 Bft) 92,31 %
17.04.2016 22:37 9,8 C 94 % 1012,9 hPa 0,0 l/m 5,7 km/h (1 Bft) W 267 0 min 0,000 mm 0,0 UV-I 0 W/m 8,9 C 9,8 C 9,7 km/h (2 Bft) 95,83 %
17.04.2016 22:38 9,8 C 94 % 1012,8 hPa 0,0 l/m 5,5 km/h (1 Bft) W-NW 286 0 min 0,000 mm 0,0 UV-I 0 W/m 8,9 C 9,8 C 9,7 km/h (2 Bft) 100,00 %
17.04.2016 22:39 9,8 C 94 % 1012,8 hPa 0,0 l/m 5,3 km/h (1 Bft) W 270 0 min 0,000 mm 0,0 UV-I 0 W/m 8,9 C 9,8 C 8,0 km/h (2 Bft) 91,67 %
17.04.2016 22:40 9,8 C 94 % 1012,8 hPa 0,0 l/m 8,7 km/h (2 Bft) SW 230 0 min 0,000 mm 0,0 UV-I 0 W/m 8,9 C 8,2 C 12,9 km/h (3 Bft) 97,56 %
17.04.2016 22:41 9,7 C 94 % 1012,8 hPa 0,0 l/m 7,2 km/h (2 Bft) W-SW 245 0 min 0,000 mm 0,0 UV-I 0 W/m 8,8 C 9,1 C 11,3 km/h (2 Bft) 100,00 %
17.04.2016 22:42 9,7 C 94 % 1012,9 hPa 0,0 l/m 7,4 km/h (2 Bft) W-SW 256 0 min 0,000 mm 0,0 UV-I 0 W/m 8,8 C 9,0 C 11,3 km/h (2 Bft) 100,00 %
17.04.2016 22:43 9,7 C 94 % 1012,9 hPa 0,0 l/m 7,6 km/h (2 Bft) W-SW 244 0 min 0,000 mm 0,0 UV-I 0 W/m 8,8 C 8,8 C 12,9 km/h (3 Bft) 95,45 %
17.04.2016 22:44 9,7 C 94 % 1012,9 hPa 0,0 l/m 7,4 km/h (2 Bft) W-SW 255 0 min 0,000 mm 0,0 UV-I 0 W/m 8,8 C 9,0 C 12,9 km/h (3 Bft) 83,33 %
17.04.2016 22:45 9,7 C 94 % 1013,0 hPa 0,0 l/m 6,8 km/h (2 Bft) W-SW 256 0 min 0,000 mm 0,0 UV-I 0 W/m 8,8 C 9,4 C 9,7 km/h (2 Bft) 100,00 %
17.04.2016 22:46 9,7 C 94 % 1013,0 hPa 0,0 l/m 7,4 km/h (2 Bft) SW 215 0 min 0,000 mm 0,0 UV-I 0 W/m 8,8 C 9,0 C 11,3 km/h (2 Bft) 95,83 %
17.04.2016 22:47 9,7 C 94 % 1013,0 hPa 0,0 l/m 9,0 km/h (2 Bft) SW 225 0 min 0,000 mm 0,0 UV-I 0 W/m 8,8 C 7,9 C 11,3 km/h (2 Bft) 96,15 %
17.04.2016 22:48 9,7 C 94 % 1013,1 hPa 0,0 l/m 9,1 km/h (2 Bft) SW 220 0 min 0,000 mm 0,0 UV-I 0 W/m 8,8 C 7,8 C 12,9 km/h (3 Bft) 96,30 %
17.04.2016 22:49 9,7 C 94 % 1013,1 hPa 0,0 l/m 8,2 km/h (2 Bft) S-SW 209 0 min 0,000 mm 0,0 UV-I 0 W/m 8,8 C 8,4 C 11,3 km/h (2 Bft) 96,15 %
17.04.2016 22:50 9,7 C 94 % 1013,1 hPa 0,0 l/m 9,2 km/h (2 Bft) SW 232 0 min 0,000 mm 0,0 UV-I 0 W/m 8,8 C 7,7 C 14,5 km/h (3 Bft) 100,00 %
17.04.2016 22:51 9,7 C 94 % 1013,1 hPa 0,0 l/m 8,8 km/h (2 Bft) SW 225 0 min 0,000 mm 0,0 UV-I 0 W/m 8,8 C 8,0 C 12,9 km/h (3 Bft) 100,00 %
17.04.2016 22:52 9,7 C 94 % 1013,0 hPa 0,0 l/m 6,9 km/h (2 Bft) W-SW 242 0 min 0,000 mm 0,0 UV-I 0 W/m 8,8 C 9,3 C 9,7 km/h (2 Bft) 96,30 %
17.04.2016 22:53 9,7 C 94 % 1013,0 hPa 0,0 l/m 7,7 km/h (2 Bft) SW 214 0 min 0,000 mm 0,0 UV-I 0 W/m 8,8 C 8,7 C 11,3 km/h (2 Bft) 100,00 %
17.04.2016 22:54 9,7 C 94 % 1013,0 hPa 0,0 l/m 8,5 km/h (2 Bft) W-SW 244 0 min 0,000 mm 0,0 UV-I 0 W/m 8,8 C 8,2 C 12,9 km/h (3 Bft) 100,00 %
17.04.2016 22:55 9,7 C 94 % 1013,1 hPa 0,0 l/m 6,9 km/h (2 Bft) SW 236 0 min 0,000 mm 0,0 UV-I 0 W/m 8,8 C 9,3 C 9,7 km/h (2 Bft) 100,00 %
17.04.2016 22:56 9,7 C 94 % 1013,1 hPa 0,0 l/m 7,5 km/h (2 Bft) W-SW 257 0 min 0,000 mm 0,0 UV-I 0 W/m 8,8 C 8,9 C 11,3 km/h (2 Bft) 96,67 %
17.04.2016 22:57 9,7 C 94 % 1013,1 hPa 0,0 l/m 8,1 km/h (2 Bft) W-SW 240 0 min 0,000 mm 0,0 UV-I 0 W/m 8,8 C 8,5 C 11,3 km/h (2 Bft) 100,00 %
17.04.2016 22:58 9,7 C 94 % 1013,1 hPa 0,0 l/m 8,9 km/h (2 Bft) W-SW 244 0 min 0,000 mm 0,0 UV-I 0 W/m 8,8 C 7,9 C 11,3 km/h (2 Bft) 96,55 %
17.04.2016 22:59 9,7 C 94 % 1013,1 hPa 0,0 l/m 7,3 km/h (2 Bft) W-SW 249 0 min 0,000 mm 0,0 UV-I 0 W/m 8,8 C 9,0 C 9,7 km/h (2 Bft) 100,00 %
17.04.2016 23:00 9,7 C 94 % 1013,0 hPa 0,0 l/m 7,4 km/h (2 Bft) W-SW 240 0 min 0,000 mm 0,0 UV-I 0 W/m 8,8 C 9,0 C 11,3 km/h (2 Bft) 100,00 %
17.04.2016 23:02 9,7 C 94 % 1013,1 hPa 0,0 l/m 7,7 km/h (2 Bft) SW 217 0 min 0,000 mm 0,0 UV-I 0 W/m 8,8 C 8,7 C 11,3 km/h (2 Bft) 100,00 %
17.04.2016 23:03 9,7 C 94 % 1013,0 hPa 0,0 l/m 7,2 km/h (2 Bft) W-SW 254 0 min 0,000 mm 0,0 UV-I 0 W/m 8,8 C 9,1 C 11,3 km/h (2 Bft) 100,00 %
17.04.2016 23:04 9,7 C 94 % 1013,1 hPa 0,0 l/m 7,3 km/h (2 Bft) SW 236 0 min 0,000 mm 0,0 UV-I 0 W/m 8,8 C 9,0 C 11,3 km/h (2 Bft) 100,00 %
17.04.2016 23:05 9,7 C 94 % 1013,1 hPa 0,0 l/m 7,6 km/h (2 Bft) W-SW 257 0 min 0,000 mm 0,0 UV-I 0 W/m 8,8 C 8,8 C 9,7 km/h (2 Bft) 100,00 %
17.04.2016 23:06 9,7 C 94 % 1013,2 hPa 0,0 l/m 6,4 km/h (2 Bft) W-SW 242 0 min 0,000 mm 0,0 UV-I 0 W/m 8,8 C 9,7 C 8,0 km/h (2 Bft) 100,00 %
17.04.2016 23:07 9,7 C 94 % 1013,2 hPa 0,0 l/m 7,6 km/h (2 Bft) SW 232 0 min 0,000 mm 0,0 UV-I 0 W/m 8,8 C 8,8 C 9,7 km/h (2 Bft) 100,00 %
17.04.2016 23:08 9,7 C 94 % 1013,2 hPa 0,0 l/m 7,5 km/h (2 Bft) SW 229 0 min 0,000 mm 0,0 UV-I 0 W/m 8,8 C 8,9 C 9,7 km/h (2 Bft) 100,00 %
17.04.2016 23:09 9,7 C 94 % 1013,2 hPa 0,0 l/m 6,4 km/h (2 Bft) W 266 0 min 0,000 mm 0,0 UV-I 0 W/m 8,8 C 9,7 C 8,0 km/h (2 Bft) 100,00 %
17.04.2016 23:10 9,7 C 94 % 1013,2 hPa 0,0 l/m 7,0 km/h (2 Bft) W-SW 251 0 min 0,000 mm 0,0 UV-I 0 W/m 8,8 C 9,3 C 9,7 km/h (2 Bft) 100,00 %
17.04.2016 23:11 9,7 C 94 % 1013,2 hPa 0,0 l/m 6,2 km/h (2 Bft) W 264 0 min 0,000 mm 0,0 UV-I 0 W/m 8,8 C 9,7 C 9,7 km/h (2 Bft) 97,37 %
17.04.2016 23:12 9,7 C 94 % 1013,2 hPa 0,0 l/m 7,9 km/h (2 Bft) W 271 0 min 0,000 mm 0,0 UV-I 0 W/m 8,8 C 8,6 C 9,7 km/h (2 Bft) 100,00 %
17.04.2016 23:13 9,7 C 94 % 1013,1 hPa 0,0 l/m 8,0 km/h (2 Bft) W-SW 255 0 min 0,000 mm 0,0 UV-I 0 W/m 8,8 C 8,5 C 11,3 km/h (2 Bft) 100,00 %
17.04.2016 23:14 9,7 C 94 % 1013,1 hPa 0,0 l/m 6,3 km/h (2 Bft) W-SW 255 0 min 0,000 mm 0,0 UV-I 0 W/m 8,8 C 9,7 C 9,7 km/h (2 Bft) 97,56 %
17.04.2016 23:15 9,7 C 95 % 1013,1 hPa 0,0 l/m 7,2 km/h (2 Bft) W 262 0 min 0,000 mm 0,0 UV-I 0 W/m 8,9 C 9,1 C 11,3 km/h (2 Bft) 91,67 %
17.04.2016 23:16 9,7 C 95 % 1013,2 hPa 0,0 l/m 7,7 km/h (2 Bft) W-SW 254 0 min 0,000 mm 0,0 UV-I 0 W/m 8,9 C 8,7 C 11,3 km/h (2 Bft) 95,65 %
17.04.2016 23:17 9,7 C 95 % 1013,2 hPa 0,0 l/m 10,1 km/h (2 Bft) W-SW 248 0 min 0,000 mm 0,0 UV-I 0 W/m 8,9 C 7,2 C 14,5 km/h (3 Bft) 98,43 %
17.04.2016 23:18 9,7 C 95 % 1013,2 hPa 0,0 l/m 7,4 km/h (2 Bft) W 269 0 min 0,000 mm 0,0 UV-I 0 W/m 8,9 C 9,0 C 11,3 km/h (2 Bft) 100,00 %
17.04.2016 23:19 9,7 C 95 % 1013,2 hPa 0,2 l/m 7,9 km/h (2 Bft) SW 226 0 min 0,000 mm 0,0 UV-I 0 W/m 8,9 C 8,6 C 11,3 km/h (2 Bft) 100,00 %
17.04.2016 23:20 9,7 C 95 % 1013,2 hPa 0,0 l/m 7,6 km/h (2 Bft) W-SW 252 0 min 0,000 mm 0,0 UV-I 0 W/m 8,9 C 8,8 C 11,3 km/h (2 Bft) 100,00 %
17.04.2016 23:21 9,7 C 94 % 1013,2 hPa 0,0 l/m 6,8 km/h (2 Bft) W 259 0 min 0,000 mm 0,0 UV-I 0 W/m 8,8 C 9,4 C 9,7 km/h (2 Bft) 100,00 %
17.04.2016 23:22 9,7 C 95 % 1013,3 hPa 0,0 l/m 8,1 km/h (2 Bft) W 276 0 min 0,000 mm 0,0 UV-I 0 W/m 8,9 C 8,5 C 9,7 km/h (2 Bft) 100,00 %
17.04.2016 23:23 9,7 C 95 % 1013,2 hPa 0,0 l/m 5,4 km/h (1 Bft) W 267 0 min 0,000 mm 0,0 UV-I 0 W/m 8,9 C 9,7 C 6,4 km/h (2 Bft) 100,00 %
17.04.2016 23:24 9,7 C 95 % 1013,3 hPa 0,0 l/m 5,6 km/h (1 Bft) W 281 0 min 0,000 mm 0,0 UV-I 0 W/m 8,9 C 9,7 C 9,7 km/h (2 Bft) 93,33 %
17.04.2016 23:25 9,7 C 95 % 1013,3 hPa 0,0 l/m 4,4 km/h (1 Bft) W 264 0 min 0,000 mm 0,0 UV-I 0 W/m 8,9 C 9,7 C 6,4 km/h (2 Bft) 100,00 %
17.04.2016 23:26 9,7 C 95 % 1013,3 hPa 0,0 l/m 3,8 km/h (1 Bft) W 263 0 min 0,000 mm 0,0 UV-I 0 W/m 8,9 C 9,7 C 6,4 km/h (2 Bft) 100,00 %
17.04.2016 23:27 9,7 C 95 % 1013,4 hPa 0,0 l/m 4,9 km/h (1 Bft) W 265 0 min 0,000 mm 0,0 UV-I 0 W/m 8,9 C 9,7 C 6,4 km/h (2 Bft) 96,15 %
17.04.2016 23:28 9,7 C 95 % 1013,4 hPa 0,0 l/m 4,8 km/h (1 Bft) W 264 0 min 0,000 mm 0,0 UV-I 0 W/m 8,9 C 9,7 C 6,4 km/h (2 Bft) 100,00 %
17.04.2016 23:29 9,6 C 95 % 1013,6 hPa 0,0 l/m 4,5 km/h (1 Bft) W-NW 297 0 min 0,000 mm 0,0 UV-I 0 W/m 8,8 C 9,6 C 6,4 km/h (2 Bft) 100,00 %
17.04.2016 23:30 9,7 C 95 % 1013,5 hPa 0,0 l/m 5,9 km/h (2 Bft) W 269 0 min 0,000 mm 0,0 UV-I 0 W/m 8,9 C 9,7 C 11,3 km/h (2 Bft) 100,00 %
17.04.2016 23:31 9,6 C 95 % 1013,5 hPa 0,0 l/m 6,3 km/h (2 Bft) W 268 0 min 0,000 mm 0,0 UV-I 0 W/m 8,8 C 9,6 C 11,3 km/h (2 Bft) 100,00 %
17.04.2016 23:32 9,6 C 95 % 1013,6 hPa 0,0 l/m 4,4 km/h (1 Bft) W-SW 258 0 min 0,000 mm 0,0 UV-I 0 W/m 8,8 C 9,6 C 9,7 km/h (2 Bft) 100,00 %
17.04.2016 23:33 9,6 C 95 % 1013,5 hPa 0,0 l/m 6,0 km/h (2 Bft) W 267 0 min 0,000 mm 0,0 UV-I 0 W/m 8,8 C 9,6 C 9,7 km/h (2 Bft) 100,00 %
17.04.2016 23:34 9,6 C 95 % 1013,5 hPa 0,2 l/m 5,2 km/h (1 Bft) W 259 0 min 0,000 mm 0,0 UV-I 0 W/m 8,8 C 9,6 C 8,0 km/h (2 Bft) 100,00 %
17.04.2016 23:35 9,6 C 95 % 1013,5 hPa 0,0 l/m 4,7 km/h (1 Bft) W-SW 253 0 min 0,000 mm 0,0 UV-I 0 W/m 8,8 C 9,6 C 6,4 km/h (2 Bft) 100,00 %
17.04.2016 23:36 9,6 C 95 % 1013,6 hPa 0,0 l/m 5,2 km/h (1 Bft) SW 226 0 min 0,000 mm 0,0 UV-I 0 W/m 8,8 C 9,6 C 6,4 km/h (2 Bft) 100,00 %
17.04.2016 23:37 9,6 C 95 % 1013,6 hPa 0,0 l/m 8,2 km/h (2 Bft) S-SW 199 0 min 0,000 mm 0,0 UV-I 0 W/m 8,8 C 8,3 C 12,9 km/h (3 Bft) 100,00 %
17.04.2016 23:38 9,6 C 95 % 1013,7 hPa 0,0 l/m 5,1 km/h (1 Bft) W-SW 238 0 min 0,000 mm 0,0 UV-I 0 W/m 8,8 C 9,6 C 6,4 km/h (2 Bft) 100,00 %
17.04.2016 23:39 9,6 C 95 % 1013,7 hPa 0,0 l/m 5,9 km/h (2 Bft) SW 229 0 min 0,000 mm 0,0 UV-I 0 W/m 8,8 C 9,6 C 8,0 km/h (2 Bft) 100,00 %
17.04.2016 23:40 9,6 C 95 % 1013,8 hPa 0,0 l/m 6,7 km/h (2 Bft) W-SW 242 0 min 0,000 mm 0,0 UV-I 0 W/m 8,8 C 9,4 C 8,0 km/h (2 Bft) 100,00 %
17.04.2016 23:41 9,6 C 95 % 1013,8 hPa 0,2 l/m 6,0 km/h (2 Bft) W-SW 246 0 min 0,000 mm 0,0 UV-I 0 W/m 8,8 C 9,6 C 9,7 km/h (2 Bft) 100,00 %
17.04.2016 23:42 9,6 C 95 % 1013,8 hPa 0,0 l/m 7,3 km/h (2 Bft) W-SW 246 0 min 0,000 mm 0,0 UV-I 0 W/m 8,8 C 8,9 C 9,7 km/h (2 Bft) 100,00 %
17.04.2016 23:43 9,6 C 95 % 1013,8 hPa 0,0 l/m 8,7 km/h (2 Bft) W-SW 258 0 min 0,000 mm 0,0 UV-I 0 W/m 8,8 C 8,0 C 12,9 km/h (3 Bft) 100,00 %
17.04.2016 23:44 9,6 C 95 % 1013,7 hPa 0,0 l/m 6,8 km/h (2 Bft) W-SW 257 0 min 0,000 mm 0,0 UV-I 0 W/m 8,8 C 9,3 C 11,3 km/h (2 Bft) 100,00 %
17.04.2016 23:45 9,6 C 95 % 1013,7 hPa 0,0 l/m 6,8 km/h (2 Bft) W 259 0 min 0,000 mm 0,0 UV-I 0 W/m 8,8 C 9,3 C 11,3 km/h (2 Bft) 100,00 %
17.04.2016 23:46 9,5 C 95 % 1013,7 hPa 0,0 l/m 7,0 km/h (2 Bft) W-SW 257 0 min 0,000 mm 0,0 UV-I 0 W/m 8,7 C 9,1 C 9,7 km/h (2 Bft) 100,00 %
17.04.2016 23:47 9,6 C 95 % 1013,7 hPa 0,0 l/m 4,8 km/h (1 Bft) W 281 0 min 0,000 mm 0,0 UV-I 0 W/m 8,8 C 9,6 C 6,4 km/h (2 Bft) 100,00 %
17.04.2016 23:48 9,5 C 95 % 1013,7 hPa 0,0 l/m 4,9 km/h (1 Bft) W 267 0 min 0,000 mm 0,0 UV-I 0 W/m 8,7 C 9,5 C 6,4 km/h (2 Bft) 100,00 %
17.04.2016 23:49 9,6 C 95 % 1013,7 hPa 0,0 l/m 5,9 km/h (2 Bft) W-SW 252 0 min 0,000 mm 0,0 UV-I 0 W/m 8,8 C 9,6 C 8,0 km/h (2 Bft) 95,83 %
17.04.2016 23:50 9,5 C 95 % 1013,8 hPa 0,0 l/m 5,7 km/h (1 Bft) W-SW 250 0 min 0,000 mm 0,0 UV-I 0 W/m 8,7 C 9,5 C 8,0 km/h (2 Bft) 96,15 %
17.04.2016 23:51 9,6 C 95 % 1013,8 hPa 0,0 l/m 6,4 km/h (2 Bft) W-SW 256 0 min 0,000 mm 0,0 UV-I 0 W/m 8,8 C 9,6 C 9,7 km/h (2 Bft) 100,00 %
17.04.2016 23:52 9,6 C 95 % 1013,9 hPa 0,0 l/m 5,7 km/h (1 Bft) W-SW 256 0 min 0,000 mm 0,0 UV-I 0 W/m 8,8 C 9,6 C 6,4 km/h (2 Bft) 100,00 %
17.04.2016 23:53 9,6 C 95 % 1014,0 hPa 0,0 l/m 6,0 km/h (2 Bft) W 265 0 min 0,000 mm 0,0 UV-I 0 W/m 8,8 C 9,6 C 6,4 km/h (2 Bft) 100,00 %
17.04.2016 23:54 9,6 C 96 % 1014,0 hPa 0,0 l/m 4,8 km/h (1 Bft) W 262 0 min 0,000 mm 0,0 UV-I 0 W/m 9,0 C 9,6 C 6,4 km/h (2 Bft) 96,88 %
17.04.2016 23:55 9,6 C 96 % 1014,0 hPa 0,0 l/m 10,9 km/h (2 Bft) W-SW 256 0 min 0,000 mm 0,0 UV-I 0 W/m 9,0 C 6,6 C 16,1 km/h (3 Bft) 93,33 %
17.04.2016 23:56 9,6 C 96 % 1014,1 hPa 0,2 l/m 7,2 km/h (2 Bft) W-NW 285 0 min 0,000 mm 0,0 UV-I 0 W/m 9,0 C 9,0 C 11,3 km/h (2 Bft) 96,55 %
17.04.2016 23:57 9,6 C 95 % 1014,1 hPa 0,0 l/m 7,5 km/h (2 Bft) W 269 0 min 0,000 mm 0,0 UV-I 0 W/m 8,8 C 8,8 C 11,3 km/h (2 Bft) 100,00 %
17.04.2016 23:58 9,5 C 95 % 1014,1 hPa 0,0 l/m 5,2 km/h (1 Bft) W-SW 252 0 min 0,000 mm 0,0 UV-I 0 W/m 8,7 C 9,5 C 9,7 km/h (2 Bft) 100,00 %
17.04.2016 23:59 9,5 C 96 % 1014,1 hPa 0,0 l/m 6,1 km/h (2 Bft) W-SW 254 0 min 0,000 mm 0,0 UV-I 0 W/m 8,9 C 9,5 C 9,7 km/h (2 Bft) 100,00 %
_ Min-Zeit 06:19 13:03 05:09 - 04:56 - - - - - - 06:19 06:56 04:56 04:05
Minimum _ 5,9 C 58 % 1001,0 hPa - 0,0 km/h (0 Bft) - - - - - - 5,3 C -3,1 C 0,0 km/h (0 Bft) 81,82 %
_ Max-Zeit 13:13 07:03 23:56 19:30 08:18 - - 12:50 12:01 12:06 11:39 09:55 13:13 08:12 00:00
Maximum _ 16,7 C 97 % 1014,1 hPa 0,2 l/m 24,6 km/h
SW (4 Bft)
- - 5 min 0,330 mm 4,9 UV-I 932 W/m 10,1 C 16,7 C 37,0 km/h
SW (5 Bft)
100,00 %
Durchschnitt _ 11,7 C 82 % 1007,3 hPa #3,0 l/m 7,3 km/h (2 Bft) W-SW - #4:45 h #1,956 mm 1,9 UV-I 218 W/m 8,4 C 10,5 C 10,8 km/h (2 Bft) 98,43 %